[[{"header":{"parameterUnit":"m.s-1","parameterCategory":1,"la1":30.6,"la2":29.2853,"lo1":-89.7004,"lo2":-87.6739,"dy":0.0162,"dx":0.0183,"nx":112,"ny":82,"refTime":"2024-06-30T18:00:00:Z","depth":0,"parameterNumber":2,"parameterNumberName":"U-component_of_WINDS"},"data":[0.0,0.0,0.0,0.0,0.0,0.0,0.0,0.0,0.0,0.0,0.0,0.0,0.0,0.0,0.0,0.0,0.0,0.0,0.0,0.0,0.0,0.0,0.0,0.0,0.0,0.0,0.0,0.0,0.0,0.0,0.0,0.0,0.0,0.0,0.0,0.0,0.0,0.0,0.0,0.0,0.0,0.0,0.0,0.0,0.0,0.0,0.0,0.0,0.0,0.0,0.0,0.0,0.0,0.0,0.0,0.0,0.0,0.0,0.0,0.0,0.0,0.0,0.0,0.0,0.0,0.0,0.0,0.0,0.0,0.0,0.0,0.0,0.0,0.0,0.0,0.0,0.0,0.0,0.0,0.0,0.0,0.0,0.0,0.0,0.0,0.0,0.0,0.0,0.0,0.0,0.0,-3.4321,-3.7845,-4.023,-4.1022,-3.8891,-3.5748,-3.1654,0.0,0.0,0.0,0.0,0.0,0.0,0.0,0.0,0.0,0.0,0.0,0.0,0.0,0.0,0.0,0.0,0.0,0.0,0.0,0.0,0.0,0.0,0.0,0.0,0.0,0.0,0.0,0.0,0.0,0.0,0.0,0.0,0.0,0.0,0.0,0.0,0.0,0.0,0.0,0.0,0.0,0.0,0.0,0.0,0.0,0.0,0.0,0.0,0.0,0.0,0.0,0.0,0.0,0.0,0.0,0.0,0.0,0.0,0.0,0.0,0.0,0.0,0.0,0.0,0.0,0.0,0.0,0.0,0.0,0.0,0.0,0.0,0.0,0.0,0.0,0.0,0.0,0.0,0.0,0.0,0.0,0.0,0.0,0.0,0.0,0.0,0.0,0.0,0.0,0.0,0.0,0.0,0.0,0.0,0.0,0.0,0.0,0.0,0.0,0.0,0.0,0.0,0.0,0.0,-3.1555,-3.8248,-3.9533,-4.023,-4.1022,-3.8891,-3.5748,-3.1654,0.0,0.0,0.0,0.0,0.0,0.0,0.0,0.0,0.0,0.0,0.0,0.0,0.0,0.0,0.0,0.0,0.0,0.0,0.0,0.0,0.0,0.0,0.0,0.0,0.0,0.0,0.0,0.0,0.0,0.0,0.0,0.0,0.0,0.0,0.0,0.0,0.0,0.0,0.0,0.0,0.0,0.0,0.0,0.0,0.0,0.0,0.0,0.0,0.0,0.0,0.0,0.0,0.0,0.0,0.0,0.0,0.0,0.0,0.0,0.0,0.0,0.0,0.0,0.0,0.0,0.0,0.0,0.0,0.0,0.0,0.0,0.0,0.0,0.0,0.0,0.0,0.0,0.0,0.0,0.0,0.0,0.0,0.0,0.0,0.0,0.0,0.0,0.0,0.0,0.0,0.0,0.0,0.0,0.0,0.0,0.0,0.0,0.0,0.0,0.0,0.0,0.0,0.0,-3.0687,-3.3733,-3.9313,-3.99,-4.0047,-4.0414,-3.823,-3.5289,-3.1635,-2.8723,0.0,0.0,0.0,0.0,0.0,0.0,0.0,0.0,0.0,0.0,0.0,0.0,0.0,0.0,0.0,0.0,0.0,0.0,0.0,0.0,0.0,0.0,0.0,0.0,0.0,0.0,0.0,0.0,0.0,0.0,0.0,0.0,0.0,0.0,0.0,0.0,0.0,0.0,0.0,0.0,0.0,0.0,0.0,0.0,0.0,0.0,0.0,0.0,0.0,0.0,0.0,0.0,0.0,0.0,0.0,0.0,0.0,0.0,0.0,0.0,0.0,0.0,0.0,0.0,0.0,0.0,0.0,0.0,0.0,0.0,0.0,0.0,0.0,0.0,0.0,0.0,0.0,0.0,0.0,0.0,0.0,0.0,0.0,0.0,0.0,0.0,0.0,0.0,0.0,0.0,0.0,0.0,0.0,0.0,0.0,0.0,0.0,0.0,0.0,0.0,0.0,0.0,-3.3917,-3.5789,-3.9496,-3.9717,-3.968,-3.9879,-3.7331,-3.4468,-3.158,-2.7842,0.0,0.0,0.0,0.0,0.0,0.0,0.0,0.0,0.0,0.0,0.0,0.0,0.0,0.0,0.0,0.0,0.0,0.0,0.0,0.0,0.0,0.0,0.0,0.0,0.0,0.0,0.0,0.0,0.0,0.0,0.0,0.0,0.0,0.0,0.0,0.0,0.0,0.0,0.0,0.0,0.0,0.0,0.0,0.0,0.0,0.0,0.0,0.0,0.0,0.0,0.0,0.0,0.0,0.0,0.0,0.0,0.0,0.0,0.0,0.0,0.0,0.0,0.0,0.0,0.0,0.0,0.0,0.0,0.0,0.0,0.0,0.0,0.0,0.0,0.0,0.0,0.0,0.0,0.0,0.0,0.0,0.0,0.0,0.0,0.0,0.0,0.0,0.0,0.0,0.0,0.0,0.0,0.0,0.0,0.0,0.0,0.0,0.0,0.0,0.0,0.0,0.0,-3.4243,-3.7092,-3.9625,-3.9239,-3.9093,-3.9827,-3.6266,-3.3238,-3.1507,-2.6264,0.0,0.0,0.0,0.0,0.0,0.0,0.0,0.0,0.0,0.0,0.0,0.0,0.0,0.0,0.0,0.0,0.0,0.0,0.0,0.0,0.0,0.0,0.0,0.0,0.0,0.0,0.0,0.0,0.0,0.0,0.0,0.0,0.0,0.0,0.0,0.0,0.0,0.0,0.0,0.0,0.0,0.0,0.0,0.0,0.0,0.0,0.0,0.0,0.0,0.0,0.0,0.0,0.0,0.0,0.0,0.0,0.0,0.0,0.0,0.0,0.0,0.0,0.0,0.0,0.0,0.0,0.0,0.0,0.0,0.0,0.0,0.0,0.0,0.0,0.0,0.0,0.0,0.0,0.0,0.0,0.0,0.0,0.0,0.0,0.0,0.0,0.0,0.0,0.0,0.0,0.0,0.0,0.0,0.0,0.0,0.0,0.0,0.0,0.0,0.0,0.0,0.0,-3.3348,-3.5862,0.0,-3.8891,-3.8615,-3.8429,-3.6028,-3.3225,-3.0099,0.0,0.0,0.0,0.0,0.0,0.0,0.0,0.0,0.0,0.0,0.0,0.0,0.0,0.0,0.0,0.0,0.0,0.0,0.0,0.0,0.0,0.0,0.0,0.0,0.0,0.0,0.0,0.0,0.0,0.0,0.0,0.0,0.0,0.0,0.0,0.0,0.0,0.0,0.0,0.0,0.0,0.0,0.0,0.0,0.0,0.0,0.0,0.0,0.0,0.0,0.0,0.0,0.0,0.0,0.0,0.0,0.0,0.0,0.0,0.0,0.0,0.0,0.0,0.0,0.0,0.0,0.0,0.0,0.0,0.0,0.0,0.0,0.0,0.0,0.0,0.0,0.0,0.0,0.0,0.0,0.0,0.0,0.0,0.0,0.0,0.0,0.0,0.0,0.0,0.0,0.0,0.0,0.0,0.0,0.0,0.0,0.0,0.0,0.0,0.0,0.0,0.0,-3.0846,-3.3256,-3.5642,0.0,-3.8707,-3.8377,-3.7566,-3.5495,-3.2748,-2.9225,0.0,0.0,0.0,0.0,0.0,0.0,0.0,0.0,0.0,0.0,0.0,0.0,0.0,0.0,0.0,0.0,0.0,0.0,0.0,0.0,0.0,0.0,0.0,0.0,0.0,0.0,0.0,0.0,0.0,0.0,0.0,0.0,0.0,0.0,0.0,0.0,0.0,0.0,0.0,0.0,0.0,0.0,0.0,0.0,0.0,0.0,0.0,0.0,0.0,0.0,0.0,0.0,0.0,0.0,0.0,0.0,0.0,0.0,0.0,0.0,0.0,0.0,0.0,0.0,0.0,0.0,0.0,0.0,0.0,0.0,0.0,0.0,0.0,0.0,0.0,0.0,0.0,0.0,0.0,0.0,0.0,0.0,0.0,0.0,0.0,0.0,0.0,0.0,0.0,0.0,0.0,0.0,0.0,0.0,0.0,0.0,0.0,0.0,0.0,0.0,0.0,0.0,-3.0993,-3.4279,-3.6909,-3.8542,-3.8707,-3.8377,-3.7566,-3.4486,-3.1574,0.0,0.0,0.0,0.0,0.0,0.0,0.0,0.0,0.0,0.0,0.0,0.0,0.0,0.0,0.0,0.0,0.0,0.0,0.0,0.0,0.0,0.0,0.0,0.0,0.0,0.0,0.0,0.0,0.0,0.0,0.0,0.0,0.0,0.0,0.0,0.0,0.0,0.0,0.0,0.0,0.0,0.0,0.0,0.0,0.0,0.0,0.0,0.0,0.0,0.0,0.0,0.0,0.0,0.0,0.0,0.0,0.0,0.0,0.0,0.0,0.0,0.0,0.0,0.0,0.0,0.0,0.0,0.0,0.0,0.0,0.0,0.0,0.0,0.0,0.0,0.0,0.0,0.0,0.0,0.0,0.0,0.0,0.0,0.0,0.0,0.0,0.0,0.0,0.0,0.0,0.0,0.0,0.0,0.0,0.0,0.0,0.0,0.0,0.0,0.0,0.0,0.0,0.0,-3.0919,-3.4279,-3.6909,-3.8542,-3.8707,-3.8138,-3.6776,-3.4688,-3.1696,-2.7574,0.0,0.0,0.0,0.0,0.0,0.0,0.0,0.0,0.0,0.0,0.0,0.0,0.0,0.0,0.0,0.0,0.0,0.0,0.0,0.0,0.0,0.0,0.0,0.0,0.0,0.0,0.0,0.0,0.0,0.0,0.0,0.0,0.0,0.0,0.0,0.0,0.0,0.0,0.0,0.0,0.0,0.0,0.0,0.0,0.0,0.0,0.0,0.0,0.0,0.0,0.0,0.0,0.0,0.0,0.0,0.0,0.0,0.0,0.0,0.0,0.0,0.0,0.0,0.0,0.0,0.0,0.0,0.0,0.0,0.0,0.0,0.0,0.0,0.0,0.0,0.0,0.0,0.0,0.0,0.0,0.0,0.0,0.0,0.0,0.0,0.0,0.0,0.0,0.0,0.0,0.0,0.0,0.0,0.0,0.0,0.0,0.0,0.0,0.0,0.0,0.0,0.0,-3.0919,-3.4279,-3.6909,-3.8542,-3.8707,-3.8046,-3.6431,-3.4761,-3.188,-2.7365,0.0,0.0,0.0,0.0,0.0,0.0,0.0,0.0,0.0,0.0,0.0,0.0,0.0,0.0,0.0,0.0,0.0,0.0,0.0,0.0,0.0,0.0,0.0,0.0,0.0,0.0,0.0,0.0,0.0,0.0,0.0,0.0,0.0,0.0,0.0,0.0,0.0,0.0,0.0,0.0,0.0,0.0,0.0,0.0,0.0,0.0,0.0,0.0,0.0,0.0,0.0,0.0,0.0,0.0,0.0,0.0,0.0,0.0,0.0,0.0,0.0,0.0,0.0,0.0,0.0,0.0,0.0,0.0,0.0,0.0,0.0,0.0,0.0,0.0,0.0,0.0,0.0,0.0,0.0,0.0,0.0,0.0,0.0,0.0,0.0,0.0,0.0,0.0,0.0,0.0,0.0,0.0,0.0,0.0,0.0,0.0,0.0,0.0,0.0,0.0,0.0,0.0,-3.0993,-3.4279,-3.6909,-3.8542,-3.8707,-3.8046,-3.6431,-3.4835,-3.2192,-2.8172,0.0,0.0,0.0,0.0,0.0,0.0,0.0,0.0,0.0,0.0,0.0,0.0,0.0,0.0,0.0,0.0,0.0,0.0,0.0,0.0,0.0,0.0,0.0,0.0,0.0,0.0,0.0,0.0,0.0,0.0,0.0,0.0,0.0,0.0,0.0,0.0,0.0,0.0,0.0,0.0,0.0,0.0,0.0,0.0,0.0,0.0,0.0,0.0,0.0,0.0,0.0,0.0,0.0,0.0,0.0,0.0,0.0,0.0,0.0,0.0,-2.9275,0.0,0.0,0.0,0.0,0.0,0.0,0.0,0.0,0.0,0.0,0.0,0.0,0.0,0.0,0.0,0.0,0.0,0.0,0.0,0.0,0.0,0.0,0.0,0.0,0.0,0.0,0.0,0.0,0.0,0.0,0.0,0.0,0.0,0.0,0.0,0.0,0.0,0.0,0.0,0.0,0.0,-3.0901,-3.4279,-3.6909,-3.8542,-3.8707,-3.8046,-3.6431,-3.5334,-3.3023,-2.9005,0.0,0.0,0.0,0.0,0.0,0.0,0.0,0.0,0.0,0.0,0.0,0.0,0.0,0.0,0.0,0.0,0.0,0.0,0.0,0.0,0.0,0.0,0.0,0.0,0.0,0.0,0.0,0.0,0.0,0.0,0.0,0.0,0.0,0.0,0.0,0.0,0.0,0.0,0.0,0.0,0.0,0.0,0.0,0.0,0.0,0.0,0.0,0.0,0.0,0.0,0.0,0.0,0.0,0.0,0.0,0.0,0.0,0.0,0.0,0.0,0.0,-3.1775,0.0,0.0,0.0,0.0,0.0,0.0,0.0,0.0,0.0,0.0,0.0,0.0,0.0,0.0,0.0,0.0,0.0,0.0,0.0,0.0,0.0,0.0,0.0,0.0,0.0,0.0,0.0,0.0,0.0,0.0,0.0,0.0,0.0,0.0,0.0,0.0,0.0,0.0,0.0,0.0,-3.0993,-3.4279,-3.6909,-3.8542,-3.8707,-3.8046,-3.6431,-3.55,-3.361,-3.0356,-2.789,0.0,0.0,0.0,0.0,0.0,0.0,0.0,0.0,0.0,0.0,0.0,0.0,0.0,0.0,0.0,0.0,0.0,0.0,0.0,0.0,0.0,0.0,0.0,0.0,0.0,0.0,0.0,0.0,0.0,0.0,0.0,0.0,0.0,0.0,0.0,0.0,0.0,0.0,0.0,0.0,0.0,0.0,0.0,0.0,0.0,0.0,0.0,0.0,0.0,0.0,0.0,0.0,0.0,0.0,-3.8623,-3.9315,-3.9315,-3.9719,-4.0285,-3.818,-3.7212,-3.693,0.0,0.0,0.0,0.0,0.0,0.0,0.0,0.0,0.0,0.0,0.0,0.0,0.0,0.0,0.0,0.0,0.0,0.0,0.0,0.0,0.0,0.0,0.0,0.0,0.0,-3.4897,-3.438,0.0,0.0,0.0,0.0,0.0,0.0,0.0,0.0,0.0,0.0,0.0,0.0,-3.1488,-3.4559,-3.7074,-3.8542,-3.8707,-3.8046,-3.6431,-3.5628,-3.4179,-3.1751,-2.9487,-2.7255,0.0,0.0,0.0,0.0,0.0,0.0,0.0,0.0,0.0,0.0,0.0,0.0,0.0,0.0,0.0,0.0,0.0,0.0,0.0,0.0,0.0,0.0,0.0,0.0,0.0,0.0,0.0,0.0,0.0,0.0,0.0,0.0,-2.3524,-2.4677,0.0,0.0,0.0,0.0,0.0,0.0,0.0,0.0,0.0,0.0,0.0,0.0,0.0,0.0,-3.7488,-3.9815,-4.1019,-4.1154,-4.3374,-4.4498,-4.4594,-4.4594,-4.4671,-4.4748,-4.4421,0.0,-3.8815,-3.6853,0.0,0.0,0.0,0.0,0.0,0.0,0.0,0.0,0.0,0.0,0.0,0.0,0.0,0.0,0.0,0.0,0.0,0.0,0.0,0.0,0.0,0.0,-3.8279,-3.8844,-3.8591,-3.801,0.0,-3.2748,-2.8675,-2.8143,0.0,0.0,0.0,0.0,0.0,0.0,0.0,0.0,-3.3073,-3.5748,-3.7694,-3.8597,-3.8707,-3.8046,-3.6431,-3.6193,-3.5073,-3.2601,-3.0834,-2.9427,-2.8418,-2.4914,0.0,0.0,0.0,0.0,0.0,0.0,0.0,0.0,0.0,0.0,0.0,0.0,0.0,0.0,0.0,0.0,0.0,0.0,0.0,0.0,0.0,0.0,0.0,0.0,0.0,0.0,0.0,0.0,0.0,-2.3651,-2.6367,-2.6722,-2.7159,-2.6928,0.0,0.0,0.0,0.0,0.0,0.0,0.0,0.0,0.0,-3.8942,-3.9854,-4.1181,-4.2989,-4.4566,-4.5336,-4.5355,-4.6471,-4.7009,-4.7009,-4.7009,-4.7009,-4.7009,-4.7009,-4.5701,-4.3355,-4.0681,-3.8584,-3.6899,0.0,0.0,0.0,0.0,0.0,-3.4846,-3.7103,0.0,0.0,0.0,0.0,0.0,0.0,0.0,0.0,0.0,0.0,0.0,0.0,0.0,0.0,-4.0976,-4.0983,-4.0726,-4.0726,-3.7771,-3.4449,0.0,-3.1207,-2.9567,-2.5684,0.0,0.0,0.0,0.0,0.0,-3.4179,-3.6248,-3.7823,-3.8615,-3.8707,-3.8046,-3.6431,-3.6303,-3.5422,-3.3403,-3.2179,-3.0986,-2.9721,-2.7556,-2.5134,0.0,0.0,0.0,0.0,0.0,0.0,0.0,0.0,0.0,0.0,0.0,0.0,0.0,0.0,0.0,0.0,0.0,0.0,0.0,0.0,0.0,0.0,0.0,0.0,0.0,0.0,0.0,0.0,-2.6776,-2.9102,-2.889,-3.0358,-3.0544,0.0,0.0,0.0,0.0,0.0,0.0,-3.7904,-3.8404,-4.0027,-4.3,-4.3932,-4.5297,-4.7192,-4.7798,-4.8105,-4.8105,-4.8105,-4.8105,-4.8105,-4.8105,-4.8105,-4.8105,-4.8105,-4.7759,-4.699,-4.4008,-4.1777,-4.0123,-3.8604,-3.75,-3.6969,-3.843,-3.8565,-3.8404,-4.1173,-4.1566,-4.0665,-3.9689,0.0,-3.7668,-3.4522,0.0,0.0,0.0,0.0,-3.5984,-3.8284,0.0,-4.0873,-4.2268,-4.2598,-4.2598,-4.2598,-4.1497,-3.9478,0.0,-3.5349,-3.3922,-2.95,0.0,0.0,0.0,0.0,-3.3793,-3.5426,-3.6909,-3.8043,-3.8634,-3.8707,-3.8046,-3.6431,-3.6303,-3.5569,-3.3917,-3.2852,-3.177,-3.0558,-2.9335,-2.7189,-2.3978,0.0,0.0,0.0,0.0,0.0,0.0,0.0,0.0,0.0,0.0,0.0,0.0,0.0,0.0,0.0,0.0,0.0,0.0,0.0,0.0,0.0,0.0,0.0,0.0,0.0,0.0,0.0,0.0,0.0,-3.1602,-3.5084,0.0,0.0,0.0,0.0,-3.6327,-3.7276,-3.8892,-4.1404,-4.3047,-4.4759,-4.6577,-4.7432,-4.7913,-4.8048,-4.8086,-4.8105,-4.8105,-4.8105,-4.8105,-4.8105,-4.8105,-4.8105,-4.8105,-4.8105,-4.8086,-4.7894,-4.6144,-4.4412,-4.2816,-4.1912,-4.1008,-4.0362,-4.1277,-4.1577,-4.1692,-4.2701,-4.247,-4.1867,-4.2758,-4.1177,-3.8915,-3.8701,-3.771,0.0,0.0,-3.9562,-4.0378,-4.2084,-4.2361,-4.2396,-4.3239,-4.3441,-4.3441,-4.3441,-4.2782,-4.1662,0.0,-3.7771,-3.5881,-3.4766,0.0,-3.2693,-3.3348,-3.4252,-3.5481,-3.7162,-3.8102,-3.867,-3.8707,-3.8707,-3.8046,-3.6431,-3.6303,-3.5569,-3.3917,-3.232,-3.1415,-3.1342,-2.9102,-2.7402,-2.6437,-2.4125,0.0,0.0,0.0,0.0,0.0,0.0,0.0,0.0,0.0,0.0,0.0,0.0,0.0,0.0,0.0,0.0,0.0,0.0,0.0,0.0,0.0,0.0,0.0,0.0,0.0,0.0,0.0,0.0,-3.5718,-3.8046,0.0,0.0,-3.7719,-3.9296,-4.0719,-4.2104,-4.3758,-4.5759,-4.6413,-4.7298,-4.8471,-4.8798,-4.9202,-4.976,-4.976,-4.976,-4.976,-4.976,-4.976,-4.976,-4.976,-4.976,-4.976,-4.976,-4.9452,-4.8894,-4.8279,-4.7067,-4.547,-4.4586,-4.4055,-4.3825,-4.4124,-4.4239,-4.4278,-4.4605,-4.4509,-4.4214,-4.4011,-4.2896,-4.1609,-4.1389,-4.0823,-4.0471,-4.1368,-4.1609,-4.1839,-4.2961,-4.3157,-4.313,-4.3441,-4.3515,-4.3515,-4.3515,-4.3276,-4.2892,-4.234,-4.0689,-3.8634,-3.6248,-3.6229,-3.6068,-3.4766,-3.5734,-3.7,-3.812,-3.8524,-3.8707,-3.8707,-3.8707,-3.8046,-3.6431,-3.6303,-3.5367,-3.3183,-3.2504,-3.1715,-3.0668,-2.931,-2.7952,-2.662,-2.474,-2.2409,0.0,0.0,0.0,0.0,0.0,0.0,0.0,0.0,0.0,0.0,0.0,0.0,0.0,0.0,0.0,0.0,0.0,0.0,0.0,0.0,0.0,0.0,0.0,0.0,0.0,0.0,-3.8104,-3.8392,-4.0931,-4.1893,-3.9912,-4.1739,-4.3547,-4.4701,-4.5817,-4.7067,-4.8471,-4.8548,-4.9067,-5.0202,-5.024,-5.0664,-5.1529,-5.1529,-5.1395,-5.1106,-5.1106,-5.0952,-5.0712,-5.0712,-5.0712,-5.0712,-5.0712,-5.0366,-4.9817,-4.951,-4.874,-4.7663,-4.6778,-4.6278,-4.6028,-4.6028,-4.5845,-4.5594,-4.5594,-4.5541,-4.5333,-4.4757,-4.4135,-4.3549,-4.3344,-4.3018,-4.2817,-4.3135,-4.2961,-4.2818,-4.3368,-4.3515,-4.3515,-4.3515,-4.3515,-4.3515,-4.3515,-4.3515,-4.3515,-4.3515,-4.2415,-4.0836,-3.8689,-3.8982,-3.8857,-3.6931,-3.7606,-3.841,-3.867,-3.8707,-3.8707,-3.8707,-3.8707,-3.8046,-3.6431,-3.6028,-3.5037,-3.3115,-3.2234,-3.1427,-3.0632,-2.931,-2.7959,-2.662,-2.4759,-2.2997,-2.1336,0.0,0.0,0.0,0.0,0.0,0.0,0.0,0.0,0.0,0.0,0.0,0.0,0.0,0.0,0.0,0.0,0.0,0.0,0.0,0.0,0.0,0.0,0.0,-3.4398,-3.7976,-4.0323,-3.9631,-4.3893,-4.5951,-4.3489,-4.6201,-4.8105,-4.8144,-4.8144,-4.8529,-4.9433,-4.9471,-5.024,-5.1885,-5.1942,-5.2346,-5.3203,-5.3203,-5.2779,-5.1942,-5.1942,-5.1529,-5.0789,-5.075,-5.075,-5.075,-5.0712,-5.0712,-5.0635,-4.9779,-4.9433,-4.9356,-4.8452,-4.7625,-4.6923,-4.6904,-4.6355,-4.5594,-4.5594,-4.539,-4.5126,-4.5126,-4.4896,-4.4618,-4.4618,-4.4346,-4.4031,-4.4031,-4.3775,-4.3515,-4.3515,-4.3515,-4.3515,-4.3515,-4.3515,-4.3515,-4.3515,-4.3515,-4.3515,-4.3515,-4.2873,-4.2323,-4.2304,-4.1662,-4.0857,-4.0065,-3.9918,0.0,-3.8836,-3.8726,-3.8707,-3.8707,-3.8707,-3.8065,-3.6468,-3.5536,-3.4674,-3.3825,-3.1549,-3.0577,-3.1342,-2.909,-2.7457,-2.6638,-2.4327,-2.3098,-2.3061,0.0,0.0,0.0,0.0,0.0,0.0,0.0,0.0,0.0,0.0,0.0,0.0,0.0,0.0,0.0,0.0,0.0,0.0,0.0,0.0,0.0,0.0,-3.8765,-3.8765,-4.0862,-4.2989,-4.4624,-4.6047,-4.6846,-4.674,-4.7567,-4.8355,-4.899,-4.9048,-4.9683,-5.1135,-5.1212,-5.1712,-5.2818,-5.2837,-5.2972,-5.3203,-5.3203,-5.3087,-5.2837,-5.2837,-5.2741,-5.2491,-5.1856,-5.1568,-5.1548,-5.0952,-5.0712,-5.0673,-5.0442,-5.0346,-5.0183,-4.8682,-4.7971,-4.7702,-4.7115,-4.6355,-4.5594,-4.5594,-4.555,-4.5457,-4.5457,-4.541,-4.5332,-4.5332,-4.4912,-4.4447,-4.4447,-4.3974,-4.3515,-4.3515,-4.3515,-4.3515,-4.3515,-4.3515,-4.3515,-4.3515,-4.3515,-4.3515,-4.3515,-4.3331,-4.2983,-4.2396,-4.2121,-4.1699,-4.0875,0.0,0.0,-3.9588,-3.9056,-3.8707,-3.8707,-3.8707,-3.8285,-3.7254,-3.6413,-3.5092,0.0,-3.1751,-3.0907,-3.054,-2.9329,-2.8301,-2.7493,-2.6245,-2.5328,0.0,0.0,0.0,0.0,0.0,0.0,0.0,0.0,0.0,0.0,0.0,0.0,0.0,0.0,0.0,0.0,0.0,0.0,0.0,0.0,0.0,0.0,-3.9181,-4.195,-4.3028,-4.3739,-4.4836,-4.6673,-4.7192,-4.774,-4.8567,-4.8971,-4.9548,-5.0375,-5.0452,-5.1029,-5.2365,-5.2442,-5.2837,-5.3722,-5.3741,-5.3914,-5.4241,-5.4241,-5.4087,-5.3741,-5.3741,-5.3549,-5.3183,-5.2673,-5.2442,0.0,-5.1568,-5.1202,-5.1183,-5.0846,-5.0712,0.0,0.0,0.0,0.0,0.0,-4.6874,-4.6144,-4.6144,-4.5913,-4.5594,-4.5594,-4.5594,-4.5594,-4.5594,-4.5232,-4.4812,-4.4812,-4.4406,-4.3962,-4.3962,-4.3836,-4.371,-4.371,-4.3614,-4.3515,-4.3515,-4.3515,-4.3515,-4.3515,0.0,0.0,-4.2873,-4.28,-4.2525,-4.1735,-4.1203,-4.0653,0.0,-3.9478,-3.9074,-3.8744,-3.8707,-3.8377,-3.7566,-3.6431,0.0,0.0,0.0,-3.1035,-3.0228,-2.9739,0.0,0.0,0.0,0.0,0.0,0.0,0.0,0.0,-2.6439,-2.721,0.0,0.0,0.0,0.0,0.0,0.0,0.0,0.0,0.0,0.0,0.0,0.0,0.0,0.0,0.0,0.0,-4.2258,-4.4316,-4.6577,-4.6317,-4.6201,-4.7086,-4.7817,-4.8586,-4.9452,-5.0317,-5.1125,-5.1846,-5.1981,-5.2423,-5.3299,0.0,0.0,0.0,0.0,-5.4972,-5.5684,-5.5703,-5.5338,-5.4645,-5.4645,-5.4222,-5.3491,-5.3395,-5.3356,-5.3299,-5.2423,-5.1981,-5.1846,-5.1125,-5.0789,-5.0712,-5.0712,-5.0173,-4.9317,-4.8529,-4.7682,0.0,0.0,0.0,0.0,-4.5594,-4.5594,-4.5594,-4.5594,-4.5381,-4.5096,-4.5096,-4.4861,-4.4593,-4.4593,-4.435,-4.4058,-4.4058,-4.3804,-4.3565,-4.3565,-4.3531,-4.3515,-4.3515,-4.3515,-4.3515,-4.3515,-4.3515,-4.3259,-4.2543,-4.2359,0.0,-4.0341,-4.001,-3.9625,-3.8909,0.0,0.0,-3.7694,-3.6193,-3.5243,-3.5151,-3.2963,-3.136,-3.065,-3.0613,-3.0558,-3.0467,-3.0467,-3.0815,-3.1544,-3.1635,-3.1727,-3.1751,-2.942,-2.9542,0.0,0.0,0.0,0.0,0.0,0.0,0.0,0.0,0.0,0.0,0.0,0.0,0.0,0.0,0.0,-4.1296,-4.4162,-4.6336,-4.6827,-4.7317,-4.7932,-4.8817,-4.9048,-4.949,-5.0366,-5.1183,-5.1731,-5.1885,-5.2538,-5.3337,-5.4203,-5.4241,0.0,-5.5434,-5.5472,-5.553,-5.5703,-5.5703,-5.5607,-5.5472,0.0,0.0,-5.5184,-5.453,-5.4241,-5.4203,-5.3337,-5.2538,-5.1885,-5.1731,-5.1298,-5.0712,-5.0712,-5.0173,-4.9375,-4.9202,-4.8182,-4.6904,-4.6904,-4.6336,-4.5594,-4.5594,-4.5594,-4.5594,-4.5594,-4.5381,0.0,-4.5096,-4.4861,-4.4593,-4.4593,-4.454,-4.4487,-4.4487,-4.4194,-4.3893,-4.3893,-4.3693,-4.3515,-4.3515,-4.3515,-4.3515,-4.3515,-4.3515,-4.346,-4.3277,-4.2708,-4.2194,-4.1882,-4.0689,-3.9827,-3.968,-3.9093,-3.8634,-3.8487,-3.7569,-3.6725,-3.6083,-3.4339,-3.3275,-3.3109,-3.3109,-3.2797,-3.2142,-3.2142,-3.2197,-3.2375,-3.3018,-3.3678,-3.4252,-3.2491,-3.2284,0.0,0.0,0.0,0.0,0.0,0.0,0.0,0.0,0.0,0.0,0.0,-3.6622,-3.8346,0.0,-4.2835,-4.4143,-4.6115,-4.7663,-4.8086,-4.8509,-4.8913,-4.9356,-4.9394,-4.974,-5.0616,-5.1433,-5.2077,-5.2519,-5.3356,-5.4222,-5.5049,-5.5107,-5.528,-5.5684,-5.5703,-5.5703,-5.5703,-5.5703,-5.5703,-5.5703,-5.5703,-5.5703,-5.5684,-5.528,-5.5107,-5.5049,-5.4203,-5.3606,-5.3126,-5.225,-5.1433,-5.0712,-5.0712,-5.0442,-5.0048,-5.0048,-4.924,-4.8086,-4.7663,-4.6951,-4.6182,-4.5748,-4.5594,-4.5594,-4.5594,-4.5485,-4.5342,-4.5342,-4.5232,-4.5107,-4.5107,-4.4977,-4.4849,-4.4849,-4.458,-4.429,-4.429,-4.4001,-4.3758,-4.3758,-4.3612,-4.3515,-4.3515,-4.3515,-4.3515,-4.3515,-4.3149,-4.2763,-4.2359,-4.1258,-4.0359,-3.9937,-3.9184,-3.8707,-3.8707,-3.797,-3.7162,-3.634,-3.5514,-3.5055,-3.5055,-3.5055,-3.4853,-3.4468,-3.4449,-3.4449,-3.4449,-3.4853,-3.5257,-3.5628,-3.5238,-3.5257,0.0,0.0,0.0,0.0,0.0,0.0,0.0,0.0,-3.4276,-3.7315,-3.8757,-4.0104,-4.2162,-4.3778,-4.5316,-4.6894,-4.7817,-4.8606,-4.9298,-4.9548,-4.9644,-4.9644,-4.9644,-4.999,-5.0837,-5.1664,-5.25,-5.3395,-5.4241,-5.5011,-5.5665,-5.5703,-5.5703,-5.5703,-5.5703,-5.5703,-5.5703,-5.5703,-5.5703,-5.5703,-5.5703,-5.5703,-5.5703,-5.5703,-5.5703,-5.5665,-5.4857,-5.4491,-5.4357,-5.2615,-5.1529,-5.0914,-5.077,-5.0712,-5.0712,-5.0712,-5.0144,-4.9298,-4.8606,-4.7721,-4.6778,-4.6086,-4.5748,-4.5594,-4.5594,-4.5594,-4.5594,-4.5594,-4.5594,-4.5594,-4.5594,-4.54,-4.5201,-4.5201,-4.4943,-4.4714,-4.4714,-4.4387,-4.4117,-4.4117,-4.3836,-4.3597,-4.3597,-4.3548,-4.3515,-4.3515,-4.3515,-4.3276,-4.2616,-4.1827,-4.102,-4.0212,-3.9405,-3.8872,-3.8707,-3.8102,-3.7456,-3.6798,-3.6615,-3.6523,-3.6523,-3.6376,-3.6303,-3.6303,-3.6303,-3.6376,-3.6523,-3.6523,-3.6597,-3.678,-3.7437,-3.7658,-2.8068,-2.9737,-3.1698,-3.4058,-3.4218,-3.518,0.0,0.0,-4.0054,-4.1989,-4.3643,-4.4844,-4.5114,-4.5951,-4.6913,-4.7817,-4.8682,-4.9298,-4.9394,-5.0067,-5.0558,-5.0558,-5.0558,-5.0875,-5.1692,-5.2549,-5.3414,-5.428,-5.5107,-5.5607,-5.5703,-5.5703,-5.5703,-5.5703,-5.5703,-5.5703,-5.5703,-5.5703,-5.5703,-5.5703,-5.5703,-5.5703,-5.5703,-5.5703,-5.5703,-5.5665,-5.4857,-5.4491,-5.4357,-5.2615,-5.1846,-5.1692,-5.0971,-5.0712,-5.0712,-5.0712,-5.0144,-4.9394,-4.9298,-4.8221,-4.6885,-4.6797,-4.622,-4.5594,-4.5594,-4.5594,-4.5594,-4.5594,-4.5594,-4.5594,-4.5594,-4.5577,-4.5531,-4.5531,-4.5292,-4.5052,-4.5052,-4.4769,-4.4527,-4.4527,-4.4204,-4.394,-4.394,-4.3693,-4.3515,-4.3515,-4.3515,-4.3478,-4.3386,-4.2653,-4.1864,-4.104,-4.0249,-3.9478,-3.8762,-3.8615,-3.8524,-3.845,-3.7768,-3.7364,-3.7364,-3.667,-3.6303,-3.6303,-3.6303,-3.6652,-3.7364,-3.7364,-3.7716,-3.8432,-3.8524,-3.8175,-3.2795,-3.443,-3.5738,0.0,-3.8546,-4.0027,-4.2527,-4.2547,-4.2489,-4.4201,-4.5114,-4.5594,-4.5594,-4.6682,-4.7721,0.0,-4.926,-5.0173,-5.0173,-5.0029,-4.9933,-4.9933,-4.9933,-5.026,-5.1125,-5.2414,-5.3356,-5.3722,-5.4953,-5.5703,-5.5703,-5.5703,-5.5703,-5.5703,-5.5703,-5.5703,-5.5703,-5.5703,-5.5703,-5.5703,-5.5703,-5.5703,-5.5703,-5.5703,-5.5703,-5.5684,-5.5338,-5.4934,-5.4395,-5.3164,-5.2365,-5.1808,-5.101,-5.0712,-5.0712,-5.0712,-5.0481,-5.0067,-4.9586,-4.8606,-4.7528,-4.7038,-4.6317,-4.5594,-4.5594,-4.5594,-4.5594,-4.5594,-4.5594,-4.5594,-4.5594,-4.5594,-4.5594,-4.5594,-4.5495,-4.54,-4.54,-4.5129,-4.4896,-4.4896,-4.4606,-4.4276,-4.4028,-4.3881,-4.3726,-4.3531,-4.3515,-4.3515,-4.3515,-4.28,-4.1809,-4.0543,-4.0102,-3.957,-3.8781,-3.8707,-3.8707,-3.8707,-3.8377,-3.8193,-3.8193,-3.7881,-3.7698,-3.7698,-3.7698,-3.7863,-3.8193,-3.8193,-3.8377,-3.8707,-3.8707,-3.8762,-3.5488,-3.7315,0.0,-3.9777,-4.172,-4.3489,-4.372,-4.3797,-4.4124,-4.5344,-4.5594,-4.5671,-4.5913,-4.6951,-4.7932,-4.8375,-4.951,-5.0442,-5.0673,-4.9952,-4.949,-4.9721,-4.9548,-4.974,-5.0616,-5.1991,-5.3049,-5.353,-5.4684,-5.5472,-5.5684,-5.5703,-5.5703,-5.5703,-5.5703,-5.5703,-5.5703,-5.5703,-5.5703,-5.5703,-5.5703,-5.5703,-5.5703,-5.5703,-5.5703,-5.5703,-5.5703,-5.5376,-5.4741,-5.3645,-5.2837,-5.2154,-5.1106,-5.0712,-5.0712,-5.0712,-5.0712,-5.0616,-4.9971,-4.9183,-4.8317,-4.7509,-4.6644,-4.5913,-4.5671,-4.5594,-4.5594,-4.5594,-4.5594,-4.5594,-4.5594,-4.5594,-4.5594,-4.5594,-4.5594,-4.5594,-4.5594,-4.541,-4.5232,-4.5232,-4.4966,-4.4644,-4.4341,-4.4233,-4.4091,-4.3839,-4.3712,-4.3595,-4.3513,-4.28,-4.1846,-4.0689,-4.0157,-3.9662,-3.9074,-3.8836,-3.8707,-3.8707,-3.8707,-3.8707,-3.8707,-3.8707,-3.8707,-3.8707,-3.8707,-3.8707,-3.8707,-3.8707,-3.8707,-3.8707,-3.8927,-3.9331,-3.468,0.0,-4.0631,-4.1508,-4.3008,-4.447,-4.5325,-4.5518,-4.5537,-4.5594,-4.5594,-4.5864,-4.6701,-4.6904,-4.7471,-4.9106,-4.9394,-4.9721,-5.0577,-4.9952,-4.9702,-5.0558,-4.9913,-4.974,0.0,-5.1452,-5.2635,-5.4337,-5.4511,-5.4876,-5.5665,-5.5703,-5.5703,-5.5703,-5.5703,-5.5703,-5.5703,-5.5703,-5.5703,-5.5703,-5.5703,-5.5703,-5.5703,-5.5703,-5.5703,-5.5703,-5.5703,-5.5684,-5.553,-5.3876,-5.3183,-5.301,-5.1337,-5.0712,-5.0712,-5.0712,-5.0712,-5.0712,-5.0673,-5.0087,-4.9221,-4.8355,-4.7528,-4.6701,-4.5864,-4.5594,-4.5594,-4.5594,-4.5594,-4.5594,-4.5594,-4.5594,-4.5594,-4.5594,-4.5594,-4.5594,-4.5594,-4.5586,-4.5586,-4.5586,-4.5312,-4.5085,-4.5074,-4.4812,-4.458,-4.4567,-4.4233,-4.3865,-4.3548,-4.28,-4.2286,-4.2231,-4.0818,-3.9882,-3.9863,-3.9148,-3.8707,-3.8707,-3.8707,-3.8707,-3.8707,-3.8707,-3.8707,-3.8707,-3.8707,-3.8707,-3.8707,-3.8707,-3.8707,-3.8726,-3.9496,-3.9879,-3.7938,0.0,-4.2412,-4.3258,-4.4316,-4.5248,-4.5537,-4.5594,-4.5594,-4.5594,-4.5152,-4.4989,-4.5874,-4.6028,-4.6586,-4.8279,-4.9029,-4.9702,-5.0577,-5.0462,-5.0173,-4.9875,-5.0087,0.0,0.0,0.0,0.0,-5.3549,-5.4164,-5.4857,-5.5665,-5.5703,-5.5972,-5.6541,-5.5992,-5.5972,-5.656,-5.5992,-5.5703,-5.5703,-5.5703,-5.5703,-5.5703,-5.5703,-5.5703,-5.5703,-5.5703,-5.5703,-5.5607,-5.4511,-5.3722,-5.3087,-5.1952,-5.1164,-5.0712,-5.0712,-5.0712,-5.0712,-5.0712,-5.0125,-4.926,-4.8375,-4.7567,-4.674,-4.5855,-4.5594,-4.5594,-4.5594,-4.5594,-4.5594,-4.5594,-4.5594,-4.5594,-4.5594,-4.5594,-4.5594,-4.5594,-4.5594,-4.5594,-4.5594,-4.5504,-4.5352,-4.5148,-4.5019,-4.4861,-4.4631,-4.4247,-4.3881,-4.3548,-4.3259,-4.2892,-4.2359,-4.1827,-4.1056,-3.9989,-3.9643,-3.9276,-3.8726,-3.8707,-3.8707,-3.8707,-3.8707,-3.8707,-3.8707,-3.8707,-3.8707,-3.8707,-3.8707,-3.8964,-3.9496,-3.9772,-4.0469,-4.0662,-4.2239,-4.3374,-4.4489,-4.519,-4.5594,-4.5594,-4.5594,-4.5518,-4.521,-4.4451,-4.4047,-4.4605,-4.4451,-4.4989,-4.7298,-4.8375,-4.9452,-5.0914,-5.1125,-5.1048,-5.0798,-5.0971,-5.1029,0.0,0.0,0.0,-5.3164,-5.401,-5.4991,-5.6088,-5.6145,-5.6549,-5.7434,-5.6915,-5.6742,-5.7003,-5.6445,-5.6011,-5.5703,-5.5703,-5.5703,-5.5703,-5.5703,-5.5703,-5.5703,-5.5703,-5.5703,-5.5645,-5.4818,-5.3991,-5.3106,-5.2231,-5.1414,-5.0712,-5.0712,-5.0712,-5.0712,-5.0712,-5.0327,-4.9663,-4.849,-4.7759,-4.7105,-4.596,-4.5594,-4.5594,-4.5594,-4.5594,-4.5594,-4.5594,-4.5594,-4.5594,-4.5594,-4.5594,-4.5594,-4.5594,-4.5594,-4.5594,-4.5594,-4.5594,-4.5522,-4.5322,-4.5292,-4.5161,-4.4837,-4.4561,-4.4219,-4.3742,-4.3563,-4.3313,-4.2782,-4.247,-4.1882,-4.0836,-4.0487,-4.012,-3.9588,-3.9294,-3.9129,-3.9129,-3.8854,-3.8707,-3.8707,-3.8707,-3.8836,-3.9129,-3.9129,-3.9533,-4.0341,-4.0616,-4.1313,-4.2643,-4.3162,-4.3605,-4.521,-4.5594,-4.5594,-4.5594,-4.5575,-4.5267,-4.4355,-4.3528,-4.2931,-4.2854,0.0,-4.2885,-4.6231,-4.7548,-4.9048,-5.1538,-5.1981,-5.2308,0.0,0.0,0.0,0.0,0.0,0.0,-5.3318,0.0,-5.528,-5.6907,-5.7041,-5.7453,-5.8338,-5.8319,-5.7915,-5.7137,-5.7041,-5.656,-5.5703,-5.5703,-5.5703,-5.5703,-5.5703,-5.5703,-5.5703,-5.5703,-5.5703,-5.5645,-5.4876,-5.403,-5.3126,-5.2288,-5.1452,-5.0712,-5.0712,-5.0712,-5.0712,-5.0712,-5.0712,-5.0423,-4.8721,-4.8144,-4.7798,-4.6163,-4.5633,-4.5594,-4.5594,-4.5594,-4.5594,-4.5594,-4.5594,-4.5594,-4.5594,-4.5594,-4.5594,-4.5594,-4.5594,-4.5594,-4.5594,-4.5594,-4.5594,-4.5594,-4.5594,-4.5495,-4.5161,-4.5107,-4.4842,-4.4087,-4.3726,-4.3513,-4.3496,-4.2818,-4.2341,-4.2304,-4.159,-4.1132,-4.1095,-4.0377,-3.9955,-3.9955,-3.9239,-3.8836,-3.8836,-3.8836,-3.9203,-3.9955,-3.9955,-4.0377,-4.1168,-4.1937,-4.2323,-4.2797,-4.4008,-4.5075,-4.5498,-4.5594,-4.5594,-4.5594,-4.5094,-4.4201,-4.2739,-4.1758,-4.0785,-3.9527,0.0,0.0,-4.4624,-4.7278,0.0,-5.1635,-5.3029,0.0,-5.326,0.0,-5.3664,-5.3241,-5.3799,0.0,0.0,-5.5261,-5.5857,-5.6945,-5.7607,-5.8357,-5.9165,-5.8607,-5.8473,-5.8858,-5.7618,-5.656,-5.5703,-5.5703,-5.5703,-5.5703,-5.5703,-5.5703,-5.5703,-5.5703,-5.5703,-5.5684,-5.5472,-5.453,-5.3183,-5.2972,-5.1972,-5.0712,-5.0712,-5.0712,-5.0712,-5.0712,-5.0712,-5.0519,-4.9413,-4.8625,-4.7913,-4.6874,-4.6124,-4.5594,-4.5594,-4.5594,-4.5594,-4.5594,-4.5594,-4.5594,-4.5594,-4.5594,-4.5594,-4.5594,-4.5594,-4.5594,-4.5594,-4.5594,-4.5594,-4.5594,-4.5594,-4.5568,-4.5485,-4.5253,-4.4842,-4.4087,-4.3924,-4.3772,-4.3531,-4.3331,-4.2947,-4.2359,-4.2121,-4.1754,-4.1132,-4.0912,-4.0799,-4.0799,-4.06,-4.049,-4.049,-4.049,-4.0581,-4.0799,-4.0799,-4.1222,-4.2011,-4.2194,-4.2616,-4.3951,-4.4883,-4.5594,-4.5594,-4.5594,-4.5306,-4.4182,-4.3547,-4.2412,-3.9615,-3.8661,0.0,-3.6084,-3.8161,0.0,0.0,0.0,0.0,-5.1615,-5.3395,-5.4453,0.0,-5.4722,0.0,-5.4876,-5.5299,-5.5934,0.0,-5.6492,-5.681,-5.803,-5.8569,-5.9204,-6.0031,-5.9627,-5.9261,-5.8973,-5.7646,-5.656,-5.5703,-5.5703,-5.5703,-5.5703,-5.5703,-5.5703,-5.5703,0.0,-5.5703,-5.5703,-5.5703,-5.4703,-5.3203,-5.3203,-5.2183,-5.0712,-5.0712,-5.0712,-5.0712,-5.0712,-5.0712,-5.0558,-4.9683,-4.8817,-4.7952,-4.7135,-4.6297,-4.5594,-4.5594,-4.5594,-4.5594,-4.5594,-4.5594,-4.5594,-4.5594,-4.5594,-4.5594,-4.5594,-4.5594,-4.5594,-4.5594,-4.5594,-4.5594,-4.5594,-4.5594,-4.5594,-4.5594,-4.5438,-4.5129,-4.4542,-4.4204,-4.3865,-4.3531,-4.3515,-4.3331,-4.2873,-4.2818,-4.2635,-4.2176,-4.1827,-4.1627,-4.1627,-4.1279,-4.1095,-4.1095,-4.1095,-4.126,-4.1627,-4.1627,-4.2047,-4.2818,-4.2818,-4.3057,-4.5402,-4.5594,-4.5594,-4.5594,-4.5518,-4.4778,-4.2354,-4.1538,-4.0135,-3.6,0.0,-3.4462,-3.2718,-3.5276,-3.8257,-4.0054,0.0,-4.874,-5.15,-5.3299,-5.4664,-5.5588,-5.5703,-5.603,-5.6926,-5.7003,-5.7407,-5.8396,-5.7761,-5.7973,-5.9415,-5.9608,-5.9973,-6.0608,-6.0627,-5.9819,-5.8146,-5.7376,-5.656,-5.5703,-5.5703,-5.5703,-5.5703,-5.5703,-5.5703,-5.5703,0.0,0.0,-5.5703,-5.5703,-5.4703,-5.3203,-5.3203,-5.2183,-5.0712,-5.0712,-5.0712,-5.0712,-5.0712,-5.0712,-5.0577,-4.9817,-4.8971,-4.8125,-4.7317,-4.6451,-4.5748,-4.5633,-4.5594,-4.5594,-4.5594,-4.5594,-4.5594,-4.5594,-4.5594,-4.5594,-4.5594,-4.5594,-4.5594,-4.5594,-4.5594,-4.5594,-4.5594,-4.5594,-4.5594,-4.5594,-4.5594,-4.5485,-4.5129,-4.4529,-4.4016,-4.3679,-4.3647,-4.3647,-4.3647,-4.3597,-4.3582,-4.3582,-4.2871,-4.2451,-4.2451,-4.1791,-4.1407,-4.1407,-4.1407,-4.1772,-4.2451,-4.2451,-4.2818,-4.3515,-4.3515,-4.3515,-4.5556,-4.5594,-4.5594,-4.5594,-4.5056,-4.4047,-4.222,-4.0181,0.0,0.0,-3.2814,-3.1833,-3.0088,-3.3141,-3.6719,-3.913,0.0,0.0,0.0,0.0,-5.3991,0.0,0.0,0.0,0.0,0.0,0.0,0.0,0.0,0.0,-5.9473,-6.0185,-6.03,-5.9742,-5.9723,-5.8915,-5.7253,-5.708,-5.656,-5.5703,-5.5703,-5.5703,-5.5703,-5.5703,-5.5703,-5.5703,0.0,0.0,-5.5703,-5.5703,-5.4703,-5.3203,-5.3203,-5.2183,-5.0712,-5.0712,-5.0712,-5.0712,-5.0712,-5.0712,-5.0673,-5.0519,-4.9875,-4.9009,-4.8144,-4.7317,-4.6528,-4.5806,-4.5594,-4.5594,-4.5594,-4.5594,-4.5594,-4.5594,-4.5594,-4.5594,-4.5594,-4.5594,-4.5594,-4.5594,-4.5594,-4.5594,-4.5594,-4.5594,-4.5594,-4.5594,-4.5594,-4.5485,-4.5129,-4.4988,-4.4781,-4.4447,-4.4406,-4.4406,-4.4406,-4.4106,-4.3909,-4.3909,-4.3533,-4.3277,-4.3277,-4.3149,-4.3075,-4.3075,-4.3075,-4.3149,-4.3277,-4.3277,-4.3368,-4.3515,-4.3515,-4.3515,-4.5629,-4.5594,-4.5594,-4.5594,-4.4932,-4.3508,-4.0508,0.0,0.0,0.0,-2.9987,-2.9198,-2.7448,-3.0968,0.0,0.0,0.0,0.0,0.0,0.0,0.0,0.0,0.0,0.0,0.0,0.0,0.0,0.0,0.0,0.0,-5.9492,-5.9492,-5.9319,-5.8896,-5.8877,-5.8261,-5.7003,-5.7003,-5.656,-5.5703,-5.5703,-5.5703,-5.5703,-5.5703,-5.5703,-5.5703,0.0,0.0,-5.5703,-5.5703,-5.4703,-5.3203,-5.3203,-5.2183,-5.0712,-5.0712,-5.0712,-5.0712,-5.0712,-5.0712,-5.0712,-5.0712,-5.0106,-4.924,-4.8355,-4.7548,-4.6721,-4.5845,-4.5594,-4.5594,-4.5594,-4.5594,-4.5594,-4.5594,-4.5594,-4.5594,-4.5594,-4.5594,-4.5594,-4.5594,-4.5594,-4.5594,-4.5594,-4.5594,-4.5594,-4.5594,-4.5594,-4.5531,-4.5371,-4.5352,-4.5161,-4.4644,-4.4593,-4.4593,-4.4593,-4.4414,-4.4304,-4.4304,-4.3974,-4.3756,-4.3756,-4.3597,-4.3515,-4.3515,-4.3515,-4.3515,-4.3515,-4.3515,-4.3515,-4.3515,-4.3515,-4.3515,-4.5623,-4.5643,-4.5635,-4.5603,-4.4662,-4.2758,-3.8873,-3.6276,0.0,0.0,-2.7601,-2.6986,-2.5808,0.0,-3.2122,0.0,-3.6834,0.0,0.0,0.0,0.0,0.0,0.0,0.0,0.0,0.0,0.0,0.0,0.0,0.0,0.0,-5.8646,-5.8204,-5.803,-5.803,-5.7607,-5.6733,-5.6714,-5.6387,-5.5703,-5.5703,-5.5703,-5.5703,-5.5703,-5.5703,-5.5703,0.0,0.0,0.0,-5.5511,-5.4568,-5.3183,-5.2991,-5.201,-5.0712,-5.0712,-5.0712,-5.0712,-5.0712,-5.0712,-5.0712,-5.0712,-5.0106,-4.924,-4.8355,-4.7548,-4.6721,-4.5845,-4.5594,-4.5594,-4.5594,-4.5594,-4.5594,-4.5594,-4.5594,-4.5594,-4.5594,-4.5594,-4.5594,-4.5594,-4.5594,-4.5594,-4.5594,-4.5594,-4.5594,-4.5594,-4.5594,-4.5594,-4.5594,-4.5594,-4.541,-4.4865,-4.4806,-4.4806,-4.4806,-4.4745,-4.4714,-4.4714,-4.4346,-4.4117,-4.4117,-4.3884,-4.3744,-4.3744,-4.3744,-4.3744,-4.3744,-4.3646,-4.3614,-4.3614,-4.3531,-4.3515,-4.5609,-4.5776,-4.5754,-4.5627,-4.3797,-4.1316,-3.8623,0.0,0.0,-2.8467,-2.664,-2.5731,-2.6365,-2.7505,-2.9627,-3.3455,0.0,-3.9365,0.0,0.0,0.0,0.0,0.0,0.0,0.0,0.0,0.0,0.0,0.0,0.0,0.0,-5.8338,-5.7934,-5.7137,-5.7118,-5.6695,-5.5818,-5.5818,-5.578,-5.5703,-5.5703,-5.5703,-5.5703,-5.5703,-5.5703,-5.5703,0.0,0.0,0.0,-5.4914,-5.4049,-5.3126,-5.2327,-5.1491,-5.0712,-5.0712,-5.0712,-5.0712,-5.0712,-5.0712,-5.0712,-5.0712,-5.0106,-4.924,-4.8355,-4.7548,-4.6721,-4.5845,-4.5594,-4.5594,-4.5594,-4.5594,-4.5594,-4.5594,-4.5594,-4.5594,-4.5594,-4.5594,-4.5594,-4.5594,-4.5594,-4.5594,-4.5594,-4.5594,-4.5594,-4.5594,-4.5594,-4.5594,-4.5594,-4.5594,-4.5577,-4.5513,-4.5504,-4.5504,-4.5504,-4.5232,-4.5052,-4.5052,-4.4732,-4.454,-4.454,-4.4514,-4.4501,-4.4501,-4.4501,-4.4501,-4.4501,-4.4136,-4.3955,-4.394,-4.3646,-4.3515,-4.4939,-4.5491,-4.5847,-4.5735,-4.3847,-4.1296,-3.8666,0.0,-3.1106,-2.8551,-2.6606,-2.5475,-2.5807,-2.6559,-2.8179,-3.1391,-3.291,-3.5718,-4.1508,0.0,0.0,0.0,0.0,0.0,0.0,0.0,0.0,0.0,0.0,0.0,0.0,-5.6742,-5.6569,-5.6233,-5.6233,-5.6049,-5.5703,-5.5703,-5.5703,-5.5703,-5.5703,-5.5703,-5.5703,-5.5703,-5.5703,-5.5703,0.0,0.0,0.0,-5.4818,-5.3991,-5.3106,-5.2231,-5.1414,-5.0712,-5.0712,-5.0712,-5.0712,-5.0712,-5.0712,-5.0712,-5.0712,-5.0106,-4.924,-4.8355,-4.7875,-4.7336,-4.5979,-4.5594,-4.5594,-4.5594,-4.5594,-4.5594,-4.5594,-4.5594,-4.5594,-4.5594,-4.5594,-4.5594,-4.5594,-4.5594,-4.5594,-4.5594,-4.5594,-4.5594,-4.5594,-4.5594,-4.5594,-4.5594,-4.5594,-4.5594,-4.5594,-4.5594,-4.5594,-4.5594,-4.5485,-4.541,-4.541,-4.5085,-4.4896,-4.4896,-4.4714,-4.4593,-4.4593,-4.4593,-4.4487,-4.4233,-4.4073,-4.3912,-4.3712,-4.3546,-4.3515,-4.3958,-4.497,-4.555,-4.5498,-4.3588,-4.0963,0.0,-3.4345,-3.0794,-2.8246,-2.6495,-2.5418,-2.5397,-2.6078,-2.7373,-2.9646,-3.116,-3.3833,-3.8938,-4.1854,0.0,0.0,0.0,0.0,0.0,0.0,0.0,0.0,0.0,0.0,0.0,0.0,-5.5703,-5.5703,-5.5703,-5.5703,-5.5703,-5.5703,-5.5703,-5.5703,-5.5703,-5.5703,-5.5703,-5.5703,-5.5703,0.0,0.0,0.0,0.0,-5.4184,-5.3376,-5.2741,-5.1875,-5.1202,-5.0712,-5.0712,-5.0712,-5.0712,-5.0712,-5.0712,-5.0712,-5.0712,-5.0289,-4.9567,-4.8432,-4.7932,-4.7451,-4.5998,-4.5594,-4.5594,-4.5594,-4.5594,-4.5594,-4.5594,-4.5594,-4.5594,-4.5594,-4.5594,-4.5594,-4.5594,-4.5594,-4.5594,-4.5594,-4.5594,-4.5594,-4.5594,-4.5594,-4.5594,-4.5594,-4.5594,-4.5594,-4.5594,-4.5594,-4.5594,-4.5594,-4.5594,-4.5594,-4.5594,-4.539,-4.5243,-4.5243,-4.5011,-4.4908,-4.4908,-4.4908,-4.475,-4.4457,-4.4368,-4.4146,-4.3823,-4.3693,-4.3597,-4.2701,-4.4192,-4.4802,-4.4733,-4.2743,-3.9922,-3.6506,-3.3067,-2.9883,-2.7343,-2.6106,-2.549,-2.5408,-2.6118,-2.7235,-2.886,-3.1237,-3.4661,-3.9765,-4.2681,0.0,0.0,0.0,0.0,0.0,0.0,0.0,0.0,0.0,0.0,0.0,0.0,-5.5703,-5.5703,-5.5703,-5.5703,-5.5703,-5.5703,-5.5703,-5.5703,-5.5703,-5.5703,-5.5703,-5.5703,0.0,0.0,0.0,0.0,0.0,-5.2635,-5.1923,-5.1827,-5.1029,-5.0712,-5.0712,-5.0712,-5.0712,-5.0712,-5.0712,-5.0712,-5.0712,-5.0712,-5.0693,-5.0366,-4.8625,-4.7548,-4.674,-4.5845,-4.5594,-4.5594,-4.5594,-4.5594,-4.5594,-4.5594,-4.5594,-4.5594,-4.5594,-4.5594,-4.5594,-4.5594,-4.5594,-4.5594,-4.5594,-4.5594,-4.5594,-4.5594,-4.5594,-4.5594,-4.5594,-4.5594,-4.5594,-4.5594,-4.5594,-4.5594,-4.5594,-4.5594,-4.5594,-4.5594,-4.5594,-4.5586,-4.5586,-4.5586,-4.5586,-4.5586,-4.5586,-4.5586,-4.5577,-4.5243,-4.4919,-4.458,-4.4175,-4.382,-3.7965,-3.9038,-3.95,-3.88,-3.7628,-3.6028,-3.3697,-3.1482,-2.9344,-2.7351,-2.6205,-2.5561,-2.5545,-2.5682,-2.7109,-3.1114,-3.2407,-3.468,0.0,0.0,0.0,0.0,0.0,0.0,0.0,0.0,0.0,0.0,0.0,0.0,0.0,0.0,-5.5703,-5.5703,-5.5703,-5.5703,-5.5703,-5.5703,-5.5703,-5.5703,-5.5703,-5.5703,-5.5703,-5.5703,0.0,0.0,0.0,0.0,0.0,-5.2365,-5.1904,-5.1808,-5.101,-5.0712,-5.0712,-5.0712,-5.0712,-5.0712,-5.0712,-5.0712,-5.0712,-5.0712,-5.0712,-5.0366,-4.8625,-4.7932,-4.7413,-4.5998,-4.5594,-4.5594,-4.5594,-4.5594,-4.5594,-4.5594,-4.5594,-4.5594,-4.5594,-4.5594,-4.5594,-4.5594,-4.5594,-4.5594,-4.5594,-4.5594,-4.5594,-4.5594,-4.5594,-4.5594,-4.5594,-4.5594,-4.5594,-4.5594,-4.5594,-4.5594,-4.5594,-4.5594,-4.5594,-4.5594,-4.5594,-4.5594,-4.5594,-4.5594,-4.5594,-4.5594,-4.5594,-4.5495,-4.5253,-4.514,-4.4931,-4.458,-4.4175,-4.394,-3.4434,-3.5664,-3.6171,-3.5531,-3.4799,-3.3652,-3.1564,-3.0053,-2.8613,-2.6875,-2.6032,-2.5633,-2.5603,-2.6065,-2.7479,-3.0616,-3.2417,0.0,0.0,0.0,0.0,0.0,0.0,0.0,0.0,0.0,0.0,0.0,0.0,0.0,0.0,0.0,-5.5703,-5.5703,-5.5703,-5.5703,-5.5703,-5.5703,-5.5703,-5.5703,-5.5703,-5.5728,-5.576,0.0,0.0,0.0,0.0,0.0,0.0,-5.1798,-5.1452,-5.1395,-5.0894,-5.0712,-5.0712,-5.0712,-5.0712,-5.0712,-5.0712,-5.0712,-5.0712,-5.0712,-5.0269,-4.951,-4.8432,-4.7663,-4.6932,-4.5902,-4.5594,-4.5594,-4.5594,-4.5594,-4.5594,-4.5594,-4.5594,-4.5594,-4.5594,-4.5594,-4.5594,-4.5594,-4.5594,-4.5594,-4.5594,-4.5594,-4.5594,-4.5594,-4.5594,-4.5594,-4.5594,-4.5594,-4.5594,-4.5594,-4.5594,-4.5594,-4.5594,-4.5594,-4.5594,-4.5594,-4.5594,-4.5594,-4.5594,-4.5594,-4.5594,-4.5594,-4.5594,-4.5495,-4.5292,-4.515,-4.4988,-4.4769,-4.4401,-4.415,0.0,-3.3496,-3.4141,-3.4082,-3.3496,-3.2305,-2.9883,-2.873,0.0,-2.6055,-2.5703,-2.5741,-2.5863,-2.7143,-2.8301,-2.8605,-3.198,0.0,0.0,0.0,0.0,0.0,0.0,0.0,0.0,0.0,0.0,0.0,0.0,0.0,0.0,0.0,0.0,-5.5703,-5.5703,-5.5703,-5.5703,-5.5705,-5.5716,-5.5716,-5.5679,-5.5711,-5.5796,0.0,0.0,0.0,0.0,0.0,0.0,-5.1048,-5.0721,-5.0721,-5.0721,-5.0721,-5.0721,-5.0721,-5.0721,-5.0721,-5.0721,-5.0712,-5.0712,-5.0693,-4.951,-4.8105,-4.8105,-4.6932,-4.5594,-4.5594,-4.5594,-4.5594,-4.5594,-4.5594,-4.5594,-4.5594,-4.5594,-4.5594,-4.5594,-4.5594,-4.5594,-4.5594,-4.5594,-4.5594,-4.5594,-4.5594,-4.5594,-4.5594,-4.5594,-4.5594,-4.5594,-4.5594,-4.5594,-4.5594,-4.5594,-4.5594,-4.5594,-4.5594,-4.5594,-4.5594,-4.5594,-4.5594,-4.5594,-4.5594,-4.5594,-4.5594,-4.5594,-4.5594,-4.5594,-4.5292,-4.5148,-4.5118,-4.4781,-4.4447,-2.7246,0.0,-2.8652,-2.7988,-2.8164,-2.8164,0.0,-2.6973,-2.6992,-2.5918,-2.5703,-2.6308,-2.828,-2.8408,-2.9673,-3.4221,0.0,0.0,0.0,0.0,0.0,0.0,0.0,0.0,0.0,0.0,0.0,0.0,0.0,0.0,0.0,0.0,0.0,-5.5703,-5.5703,-5.5703,-5.5703,-5.5808,-5.584,-5.584,-5.5322,-5.51,-5.5098,0.0,0.0,0.0,0.0,0.0,-5.1275,-5.1087,-5.101,-5.101,-5.101,-5.101,-5.101,-5.101,-5.101,-5.101,-5.101,-5.0945,-5.0827,-5.073,-4.951,-4.8105,-4.8105,-4.6932,-4.5594,-4.5594,-4.5594,-4.5594,-4.5594,-4.5594,-4.5594,-4.5594,-4.5594,-4.5594,-4.5594,-4.5594,-4.5594,-4.5594,-4.5594,-4.5594,-4.5594,-4.5594,-4.5594,-4.5594,-4.5594,-4.5594,-4.5594,-4.5594,-4.5594,-4.5594,-4.5594,-4.5594,-4.5594,-4.5594,-4.5594,-4.5594,-4.5594,-4.5594,-4.5594,-4.5594,-4.5594,-4.5594,-4.5594,-4.5594,-4.5594,-4.5513,-4.5485,-4.5466,-4.5129,-4.4931,-2.5703,-2.6914,-2.8086,-2.7617,-2.7832,-2.8066,-2.7598,-2.6934,-2.6269,-2.5801,-2.6016,-2.6855,-2.8672,-2.9568,-3.1337,0.0,0.0,0.0,0.0,0.0,0.0,0.0,0.0,0.0,0.0,0.0,0.0,0.0,0.0,0.0,0.0,0.0,0.0,0.0,-5.4914,-5.5077,-5.5769,-5.5857,-5.575,-5.5429,-5.5071,-5.4719,-5.4359,0.0,0.0,0.0,0.0,0.0,-5.1089,-5.1089,-5.1089,-5.1089,-5.1089,-5.1089,-5.1089,-5.1089,-5.1089,-5.1089,-5.1089,-5.1042,-5.092,-5.0444,-4.9388,-4.8193,-4.7747,-4.67,-4.568,-4.562,-4.5594,-4.5594,-4.5594,-4.5594,-4.5594,-4.5594,-4.5594,-4.5594,-4.5594,-4.5594,-4.5594,-4.5594,-4.5594,-4.5594,-4.5594,-4.5594,-4.5594,-4.5594,-4.5594,-4.5594,-4.5594,-4.5594,-4.5594,-4.5594,-4.5594,-4.5594,-4.5594,-4.5594,-4.5594,-4.5594,-4.5594,-4.5594,-4.5594,-4.5594,-4.5594,-4.5594,-4.5594,-4.5594,-4.5594,-4.5594,-4.5594,-4.5605,-4.5419,-4.5243,-2.6016,-2.8105,-3.0019,-2.9375,-2.9394,-2.957,-2.9434,-2.7695,-2.6094,-2.6094,-2.6797,-2.7773,-2.9043,-3.1191,0.0,0.0,0.0,0.0,0.0,0.0,0.0,0.0,0.0,0.0,0.0,0.0,0.0,0.0,0.0,0.0,0.0,0.0,0.0,0.0,-5.3922,-5.4237,-5.5562,-5.5581,-5.5288,-5.4733,-5.4616,-5.4247,-5.3609,-5.2606,0.0,0.0,0.0,0.0,-5.1148,-5.1148,-5.1148,-5.1148,-5.1148,-5.1148,-5.1148,-5.1148,-5.1148,-5.1144,-5.1126,-5.1025,-5.0806,-5.0058,-4.9124,-4.8137,-4.7287,-4.6448,-4.5789,-4.5657,-4.562,-4.5594,-4.5594,-4.5594,-4.5594,-4.5594,-4.5594,-4.5594,-4.5594,-4.5594,-4.5594,-4.5594,-4.5594,-4.5594,-4.5594,-4.5594,-4.5594,-4.5594,-4.5594,-4.5594,-4.5594,-4.5594,-4.5594,-4.5594,-4.5594,-4.5594,-4.5594,-4.5594,-4.5594,-4.5594,-4.5594,-4.5594,-4.5594,-4.5594,-4.5594,-4.5594,-4.5594,-4.5594,-4.5594,-4.5594,-4.5594,-4.5594,-4.5594,-4.5438,-2.75,-3.0312,-3.1934,-2.8301,-2.8516,-2.9414,-2.8672,-2.8184,-2.7891,-2.7891,-2.8594,-3.0137,-3.3164,-3.4648,-3.6465,0.0,0.0,0.0,0.0,0.0,0.0,0.0,0.0,0.0,0.0,0.0,0.0,0.0,0.0,0.0,0.0,0.0,0.0,0.0,0.0,-5.377,-5.4121,-5.4121,-5.407,-5.3969,-5.3339,-5.2984,-5.283,-5.1949,-5.1559,0.0,0.0,0.0,-5.1343,-5.1343,-5.1343,-5.1343,-5.1343,-5.1343,-5.1343,-5.1343,-5.1343,-5.134,-5.1225,-5.0737,-5.0137,-4.9872,-4.8711,-4.7368,-4.7213,-4.6527,-4.5796,-4.5789,-4.5696,-4.5594,-4.5594,-4.5594,-4.5594,-4.5594,-4.5594,-4.5594,-4.5594,-4.5594,-4.5594,-4.5594,-4.5594,-4.5594,-4.5594,-4.5594,-4.5594,-4.5594,-4.5594,-4.5594,-4.5594,-4.5594,-4.5594,-4.5594,-4.5594,-4.5594,-4.5594,-4.5594,-4.5594,-4.5594,-4.5594,-4.5594,-4.5594,-4.5594,-4.5594,-4.5594,-4.5594,-4.5594,-4.5594,-4.5594,-4.5594,-4.5594,-4.5594,-4.5577,-2.668,-2.9062,-3.0996,-2.9473,-3.1445,-3.3535,-3.2656,-3.1738,-3.1055,-3.1055,-3.1758,-3.2988,0.0,0.0,0.0,0.0,0.0,0.0,0.0,0.0,0.0,0.0,0.0,0.0,0.0,0.0,0.0,0.0,0.0,0.0,0.0,0.0,0.0,0.0,0.0,0.0,-5.2507,-5.2507,-5.2741,-5.319,-5.285,-5.2441,-5.1973,-5.1582,-5.1406,0.0,0.0,-5.1406,-5.1406,-5.1406,-5.1406,-5.1406,-5.1406,-5.1406,-5.1406,-5.1406,-5.1406,-5.1328,-5.0834,-5.042,-4.9948,-4.8931,-4.802,-4.7219,-4.6656,-4.6175,-4.5783,-4.5715,-4.5651,-4.5594,-4.5594,-4.5594,-4.5594,-4.5594,-4.5594,-4.5594,-4.5594,-4.5594,-4.5594,-4.5594,-4.5594,-4.5594,-4.5594,-4.5594,-4.5594,-4.5594,-4.5594,-4.5594,-4.5594,-4.5594,-4.5594,-4.5594,-4.5594,-4.5594,-4.5594,-4.5594,-4.5594,-4.5594,-4.5594,-4.5594,-4.5594,-4.5594,-4.5594,-4.5594,-4.5594,-4.5594,-4.5594,-4.5594,-4.5594,-4.5594,-4.5594,-4.5594,-2.6191,-2.793,-2.9805,-3.0684,-3.3516,-3.6133,-3.6269,-3.4961,-3.3887,-3.4492,-3.5312,-3.6172,0.0,0.0,0.0,0.0,0.0,0.0,0.0,0.0,0.0,0.0,0.0,0.0,0.0,0.0,0.0,0.0,0.0,0.0,0.0,0.0,0.0,0.0,0.0,0.0,-5.1406,-5.1406,-5.1738,-5.2402,-5.2402,-5.2051,-5.1406,-5.1406,-5.1406,-5.1406,-5.1406,-5.1406,-5.1406,-5.1406,-5.1406,-5.1406,-5.1406,-5.1289,-5.1113,-5.1113,-5.0996,-5.0723,-5.0117,-4.9766,-4.9375,-4.8027,-4.7397,-4.6999,-4.6225,-4.5938,-4.585,-4.5756,-4.5673,-4.5643,-4.5603,-4.5594,-4.5594,-4.5594,-4.5594,-4.5594,-4.5594,-4.5594,-4.5594,-4.5594,-4.5594,-4.5594,-4.5594,-4.5594,-4.5594,-4.5594,-4.5594,-4.5594,-4.5594,-4.5594,-4.5594,-4.5594,-4.5594,-4.5594,-4.5594,-4.5594,-4.5594,-4.5594,-4.5594,-4.5594,-4.5594,-4.5594,-4.5594,-4.5594,-4.5594,-4.5594,-4.5594,-4.5594,-4.5594,-4.5594,-4.5594,-4.5594,-2.7676,-2.8848,-2.9805,-3.0684,-3.1738,-3.3379,-3.6504,-3.5859,-3.5293,-3.7734,-3.8926,-3.9785,0.0,0.0,0.0,0.0,0.0,0.0,0.0,0.0,0.0,0.0,0.0,0.0,0.0,0.0,0.0,0.0,0.0,0.0,0.0,0.0,0.0,0.0,0.0,0.0,-5.1406,-5.1406,-5.1426,-5.1484,-5.1484,-5.1465,-5.1406,-5.1406,-5.1406,-5.1406,-5.1406,-5.1406,-5.1406,-5.1406,-5.1406,-5.1406,-5.1406,-5.0937,-5.0293,-5.0293,-4.9766,-4.9062,-4.9004,-4.8457,-4.7773,-4.7637,-4.7051,-4.6367,-4.6288,-4.6175,-4.6075,-4.6069,-4.5939,-4.5761,-4.5627,-4.5594,-4.5594,-4.5594,-4.5594,-4.5594,-4.5594,-4.5594,-4.5594,-4.5594,-4.5594,-4.5594,-4.5594,-4.5594,-4.5594,-4.5594,-4.5594,-4.5594,-4.5594,-4.5594,-4.5594,-4.5594,-4.5594,-4.5594,-4.5594,-4.5594,-4.5594,-4.5594,-4.5594,-4.5594,-4.5594,-4.5594,-4.5594,-4.5594,-4.5594,-4.5594,-4.5594,-4.5594,-4.5594,-4.5594,-4.5594,-4.5594,-2.6504,-2.8516,-3.0625,-3.1484,-3.3144,-3.5039,-3.6875,-3.8047,-3.9316,-4.1348,-4.2031,-4.2539,0.0,0.0,0.0,0.0,0.0,0.0,0.0,0.0,0.0,0.0,0.0,0.0,0.0,0.0,0.0,0.0,0.0,0.0,0.0,0.0,0.0,0.0,0.0,0.0,0.0,-5.1406,-5.1406,-5.1406,-5.1406,-5.1406,-5.1406,-5.1406,-5.1406,-5.1406,-5.1406,-5.1406,-5.1367,-5.0859,-5.0644,-5.0605,-5.0058,-4.9668,-4.9394,-4.9394,-4.918,-4.8828,-4.8281,-4.7871,-4.7519,-4.6973,-4.65,-4.6174,-4.6174,-4.6082,-4.5978,-4.5978,-4.5923,-4.5834,-4.5742,-4.5657,-4.5594,-4.5594,-4.5594,-4.5594,-4.5594,-4.5594,-4.5594,-4.5594,-4.5594,-4.5594,-4.5594,-4.5594,-4.5594,-4.5594,-4.5594,-4.5594,-4.5594,-4.5594,-4.5594,-4.5594,-4.5594,-4.5594,-4.5594,-4.5594,-4.5594,-4.5594,-4.5594,-4.5594,-4.5594,-4.5594,-4.5594,-4.5594,-4.5594,-4.5594,-4.5594,-4.5594,-4.5594,-4.5594,-4.5594,-4.5594,-2.6113,-2.8047,-3.0351,-3.1504,-3.3691,-3.6035,-3.7734,-3.9726,-4.1836,-4.4062,-4.4512,-4.4707,-4.5293,0.0,0.0,0.0,0.0,0.0,0.0,0.0,0.0,0.0,0.0,0.0,0.0,0.0,0.0,0.0,0.0,0.0,0.0,0.0,0.0,0.0,0.0,0.0,0.0,-5.0742,-5.0605,-5.0605,-5.0605,-5.0898,-5.1406,-5.1406,-5.1269,-5.1016,-5.1016,-5.0859,-5.0566,-5.0019,-4.9785,-4.9726,-4.9121,-4.873,-4.8496,-4.8496,-4.832,-4.7988,-4.7402,-4.7187,-4.709,-4.6484,-4.6246,-4.6152,-4.6152,-4.6108,-4.6033,-4.6033,-4.5992,-4.5955,-4.5911,-4.5796,-4.5699,-4.5699,-4.5699,-4.5684,-4.5673,-4.5657,-4.566,-4.5603,-4.5594,-4.5594,-4.5594,-4.5594,-4.5594,-4.5594,-4.5594,-4.5594,-4.5594,-4.5594,-4.5594,-4.5594,-4.5594,-4.5594,-4.5594,-4.5594,-4.5594,-4.5594,-4.5594,-4.5594,-4.5594,-4.5594,-4.5594,-4.5594,-4.5594,-4.5594,-4.5594,-4.5594,-4.5594,-4.5594,-4.5594,-4.5594,-2.6992,-2.7656,-2.8769,-3.0508,-3.2851,-3.5664,-3.9141,-4.0605,-4.2187,-4.5605,-4.6308,-4.6308,-4.6308,-4.6308,0.0,0.0,0.0,0.0,0.0,0.0,0.0,0.0,0.0,0.0,0.0,0.0,0.0,0.0,0.0,0.0,0.0,0.0,0.0,0.0,0.0,0.0,0.0,-4.9336,-4.8906,-4.8906,-4.8906,-4.9766,-5.1387,-5.1387,-5.0937,-5.0195,-5.0195,-4.9707,-4.8906,-4.8887,-4.8887,-4.8887,-4.8887,-4.8359,-4.7598,-4.7598,-4.7031,-4.6308,-4.6308,-4.6308,-4.6308,-4.6308,-4.6308,-4.6308,-4.6308,-4.6308,-4.6308,-4.6308,-4.6201,-4.6091,-4.6091,-4.5998,-4.5903,-4.5899,-4.5899,-4.5886,-4.5821,-4.5803,-4.5768,-4.5627,-4.5603,-4.5594,-4.5594,-4.5594,-4.5594,-4.5594,-4.5594,-4.5594,-4.5594,-4.5594,-4.5594,-4.5594,-4.5594,-4.5594,-4.5594,-4.5594,-4.5594,-4.5594,-4.5594,-4.5594,-4.5594,-4.5594,-4.5594,-4.5594,-4.5594,-4.5594,-4.5594,-4.5594,-4.5594,-4.5594,-4.5594,-4.5594,-2.6992,-2.8984,-3.1445,-3.3144,-3.6445,-3.9844,-4.207,-4.2773,-4.3594,-4.584,-4.6308,-4.6308,-4.6308,0.0,0.0,0.0,0.0,0.0,0.0,0.0,0.0,0.0,0.0,0.0,0.0,0.0,0.0,0.0,0.0,0.0,0.0,0.0,0.0,0.0,0.0,0.0,0.0,0.0,-4.8906,-4.8906,-4.8906,-4.916,-4.9648,-4.9648,-4.9512,-4.9297,-4.9297,-4.9141,-4.8848,-4.8242,-4.7617,-4.707,-4.707,-4.6914,-4.6699,-4.6699,-4.6523,-4.6308,-4.6308,-4.6308,-4.6308,-4.6308,-4.6308,-4.6308,-4.6308,-4.6308,-4.6308,-4.6308,-4.6268,-4.6246,-4.6246,-4.6202,-4.6122,-4.5936,-4.5899,-4.589,-4.5872,-4.5867,-4.5852,-4.5828,-4.5803,-4.5807,-4.5742,-4.574,-4.5708,-4.562,-4.5594,-4.5594,-4.5594,-4.5594,-4.5594,-4.5594,-4.5594,-4.5594,-4.5594,-4.5594,-4.5594,-4.5594,-4.5594,-4.5594,-4.5594,-4.5594,-4.5594,-4.5594,-4.5594,-4.5594,-4.5594,-4.5594,-4.5594,-4.5594,-4.5594,-4.5594,-2.8691,-3.082,-3.332,-3.6074,-3.9004,-4.1816,-4.4199,-4.4726,0.0,0.0,-4.6308,-4.6308,-4.6308,0.0,0.0,0.0,0.0,0.0,0.0,0.0,0.0,0.0,0.0,0.0,0.0,0.0,0.0,0.0,0.0,0.0,0.0,0.0,0.0,0.0,0.0,0.0,0.0,0.0,0.0,-4.7871,-4.7871,-4.7871,-4.7891,-4.8574,-4.8711,-4.8359,-4.8027,-4.7871,-4.7832,-4.7305,-4.6777,-4.6308,-4.6308,-4.6308,-4.6308,-4.6308,-4.6308,-4.6308,-4.6308,-4.6308,-4.6308,-4.6308,-4.6308,-4.6308,-4.6308,-4.6308,-4.6308,-4.6308,-4.6308,-4.6308,-4.6308,-4.6308,-4.6268,-4.6108,-4.6069,-4.6042,-4.5988,-4.5981,-4.5951,-4.5907,-4.5899,-4.5896,-4.5853,-4.5836,-4.5807,-4.5724,-4.5696,-4.5688,-4.5688,-4.5627,-4.5594,-4.5594,-4.5594,-4.5594,-4.5594,-4.5594,-4.5594,-4.5594,-4.5594,-4.5594,-4.5594,-4.5594,-4.5594,-4.5594,-4.5594,-4.5594,-4.5594,-4.5594,-4.5594,-4.5594,-4.5594,-4.5594,-3.1152,-3.2734,-3.4473,-3.8906,-4.0859,-4.248,-4.5586,-4.6308,-4.6308,-4.6308,0.0,-4.6308,0.0,0.0,0.0,0.0,0.0,0.0,0.0,0.0,0.0,0.0,0.0,0.0,0.0,0.0,0.0,0.0,0.0,0.0,0.0,0.0,0.0,0.0,0.0,0.0,0.0,0.0,0.0,0.0,-4.6308,-4.6308,-4.6348,-4.7949,-4.8223,-4.7441,-4.6641,-4.6308,-4.6308,-4.6308,-4.6308,-4.6308,-4.6308,-4.6308,-4.6308,-4.6308,-4.6308,-4.6308,-4.6308,-4.6308,-4.6308,-4.6308,-4.6308,-4.6308,-4.6308,-4.6308,-4.6308,-4.6308,-4.6308,-4.6308,-4.6308,-4.6308,-4.6308,-4.6308,-4.6308,-4.6268,-4.6145,-4.6117,-4.6082,-4.5967,-4.5932,-4.5928,-4.5916,-4.5916,-4.5912,-4.5903,-4.5859,-4.5803,-4.5803,-4.5696,-4.5627,-4.5629,-4.562,-4.5612,-4.5594,-4.5594,-4.5594,-4.5594,-4.5594,-4.5594,-4.5594,-4.5594,-4.5594,-4.5594,-4.5594,-4.5594,-4.5594,-4.5594,-4.5594,-4.5594,-4.5594,-4.5594,-3.039,-3.2266,-3.4609,-3.9668,-4.3086,-4.5391,-4.6133,-4.6308,-4.6308,-4.6308,-4.6308,0.0,0.0,0.0,0.0,0.0,0.0,0.0,0.0,0.0,0.0,0.0,0.0,0.0,0.0,0.0,0.0,0.0,0.0,0.0,0.0,0.0,0.0,0.0,0.0,0.0,-4.6582,-4.6387,-4.6308,0.0,-4.6308,-4.6308,-4.6308,-4.6699,-4.6758,-4.6562,-4.6387,-4.6308,-4.6308,-4.6308,-4.6308,-4.6308,-4.6308,-4.6308,-4.6308,-4.6308,-4.6308,-4.6308,-4.6308,-4.6308,-4.6308,-4.6308,-4.6308,-4.6308,-4.6308,-4.6308,-4.6308,-4.6308,-4.6308,-4.6308,-4.6308,-4.6308,-4.6308,-4.6308,-4.6308,-4.6289,-4.6268,-4.6267,-4.6247,-4.6223,-4.6203,-4.6175,-4.6077,-4.6069,-4.603,-4.5912,-4.5896,-4.5881,-4.5881,-4.5857,-4.5811,-4.5756,-4.5761,-4.5723,-4.5612,-4.5594,-4.5594,-4.5594,-4.5594,-4.5594,-4.5594,-4.5594,-4.5594,-4.5594,-4.5594,-4.5594,-4.5594,-4.5594,-4.5594,-4.5594,-4.5594,-4.5594,-2.9941,-3.2422,-3.5371,-4.0996,0.0,-4.6308,-4.6308,-4.6308,-4.6308,-4.6308,0.0,0.0,0.0,0.0,0.0,0.0,0.0,0.0,0.0,0.0,0.0,0.0,0.0,0.0,0.0,0.0,0.0,0.0,0.0,0.0,0.0,0.0,0.0,0.0,0.0,0.0,-4.6308,-4.6308,-4.6308,-4.6308,-4.6308,-4.6308,-4.6308,-4.6308,-4.6308,-4.6308,-4.6308,-4.6308,-4.6308,-4.6308,-4.6308,-4.6308,-4.6308,-4.6308,-4.6308,-4.6308,-4.6308,-4.6308,-4.6308,-4.6308,-4.6308,-4.6308,-4.6308,-4.6308,-4.6308,-4.6308,-4.6308,-4.6308,-4.6308,-4.6308,-4.6308,-4.6308,-4.6308,-4.6308,-4.6308,-4.6308,-4.6308,-4.6308,-4.6308,-4.6308,-4.6308,-4.6289,-4.6202,-4.6199,-4.6174,-4.6091,-4.6039,-4.5992,-4.5992,-4.5932,-4.5896,-4.5845,-4.5828,-4.5763,-4.57,-4.5635,-4.5594,-4.5594,-4.5594,-4.5594,-4.5594,-4.5594,-4.5594,-4.5594,-4.5594,-4.5594,-4.5594,-4.5594,-4.5594,-4.5594,-4.5594,-4.5594,-2.9121,-3.2637,-3.6426,-4.1719,-4.457,0.0,-4.6074,-4.6191,-4.6308,0.0,0.0,0.0,0.0,0.0,0.0,0.0,0.0,0.0,0.0,0.0,0.0,0.0,0.0,0.0,0.0,0.0,0.0,0.0,0.0,0.0,0.0,0.0,0.0,0.0,0.0,-4.6308,-4.6308,-4.6308,-4.6308,-4.6308,-4.6308,-4.6308,-4.6308,-4.6308,-4.6308,-4.6308,-4.6308,-4.6308,-4.6308,-4.6308,-4.6308,-4.6308,-4.6308,-4.6308,-4.6308,-4.6308,-4.6308,-4.6308,-4.6308,-4.6308,-4.6308,-4.6308,-4.6308,-4.6308,-4.6308,-4.6308,-4.6308,-4.6308,-4.6308,-4.6308,-4.6308,-4.6308,-4.6308,-4.6308,-4.6308,-4.6308,-4.6308,-4.6308,-4.6308,-4.6308,-4.6308,-4.6308,-4.6308,-4.6308,-4.6308,-4.6308,-4.6201,-4.6122,-4.6122,-4.6039,-4.5967,-4.5932,-4.5876,-4.5832,-4.5828,-4.5725,-4.5657,-4.5635,-4.5635,-4.5618,-4.5594,-4.5594,-4.5594,-4.5594,-4.5594,-4.5594,-4.5594,-4.5594,-4.5594,-4.5594,-4.5594,-4.5594,-2.6737,0.0,-3.7519,0.0,-4.2812,-4.5176,0.0,0.0,0.0,0.0,0.0,0.0,0.0,0.0,0.0,0.0,0.0,0.0,0.0,0.0,0.0,0.0,0.0,0.0,0.0,0.0,0.0,0.0,0.0,0.0,0.0,0.0,-4.6308,-4.6308,-4.6308,0.0,-4.6308,-4.6308,-4.6308,-4.6308,-4.6308,-4.6308,-4.6308,-4.6308,-4.6308,-4.6308,-4.6308,-4.6308,-4.6308,-4.6308,-4.6308,-4.6308,-4.6308,-4.6308,-4.6308,-4.6308,-4.6308,-4.6308,-4.6308,-4.6308,-4.6308,-4.6308,-4.6308,-4.6308,-4.6308,-4.6308,-4.6308,-4.6308,-4.6308,-4.6308,-4.6308,-4.6308,-4.6308,-4.6308,-4.6308,-4.6308,-4.6308,-4.6308,-4.6308,-4.6308,-4.6308,-4.6308,-4.6308,-4.6308,-4.6308,-4.6308,-4.6289,-4.6269,-4.6269,-4.6268,-4.6201,-4.6082,-4.6069,-4.6014,-4.5905,-4.5862,-4.5839,-4.5776,-4.5763,-4.573,-4.5603,-4.5594,-4.5594,-4.5594,-4.5594,-4.5594,-4.5594,-4.5594,-4.5594,-4.5594,-4.5594,-4.5594,-2.7275,-3.1698,-3.5898,0.0,-4.1738,-4.3808,-4.4785,0.0,0.0,0.0,0.0,0.0,0.0,0.0,0.0,0.0,0.0,0.0,0.0,0.0,0.0,0.0,0.0,0.0,0.0,0.0,0.0,0.0,0.0,0.0,0.0,-4.6308,-4.6308,-4.6308,-4.6308,0.0,-4.6308,-4.6308,-4.6308,-4.6308,-4.6308,-4.6308,-4.6308,-4.6308,-4.6308,-4.6308,-4.6308,-4.6308,-4.6308,-4.6308,-4.6308,-4.6308,-4.6308,-4.6308,-4.6308,-4.6308,-4.6308,-4.6308,-4.6308,-4.6308,-4.6308,-4.6308,-4.6308,-4.6308,-4.6308,-4.6308,-4.6308,-4.6308,-4.6308,-4.6308,-4.6308,-4.6308,-4.6308,-4.6308,-4.6308,-4.6308,-4.6308,-4.6308,-4.6308,-4.6308,-4.6308,-4.6308,-4.6308,-4.6308,-4.6308,-4.6308,-4.6308,-4.6308,-4.6308,-4.6308,-4.6289,-4.6223,-4.6145,-4.6077,-4.6027,-4.5936,-4.5896,-4.5861,-4.5855,-4.5807,-4.5723,-4.5715,-4.568,-4.5594,-4.5594,-4.5594,-4.5594,-4.5594,-4.5594,-4.5594,-4.5594,-4.5594,0.0,0.0,-3.2672,-3.66,-3.9355,-4.1542,0.0,0.0,0.0,0.0,0.0,0.0,0.0,0.0,0.0,0.0,0.0,0.0,0.0,0.0,0.0,0.0,0.0,0.0,0.0,0.0,0.0,0.0,0.0,0.0,-4.6308,-4.6308,-4.6308,-4.6308,-4.6308,-4.6308,-4.6308,-4.6308,-4.6308,-4.6308,-4.6308,-4.6308,-4.6308,-4.6308,-4.6308,-4.6308,-4.6308,-4.6308,-4.6308,-4.6308,-4.6308,-4.6308,-4.6308,-4.6308,-4.6308,-4.6308,-4.6308,-4.6308,-4.6308,-4.6308,-4.6308,-4.6308,-4.6308,-4.6308,-4.6308,-4.6308,-4.6308,-4.6308,-4.6308,-4.6308,-4.6308,-4.6308,-4.6308,-4.6308,-4.6308,-4.6308,-4.6308,-4.6308,-4.6308,-4.6308,-4.6308,-4.6308,-4.6308,-4.6308,-4.6308,-4.6308,-4.6308,-4.6308,-4.6308,-4.6308,-4.6308,-4.6308,-4.6202,-4.6147,-4.6147,-4.605,-4.5988,-4.5944,-4.594,-4.5909,-4.5832,-4.5826,-4.5783,-4.5681,-4.5681,-4.5645,-4.5594,-4.5594,-4.5594,-4.5594,-4.5594,-4.5594,0.0,-2.5208,0.0,-3.0588,-3.4401,0.0,0.0,0.0,0.0,0.0,0.0,0.0,0.0,0.0,0.0,0.0,0.0,0.0,0.0,0.0,0.0,0.0,0.0,0.0,0.0,0.0,0.0,0.0,0.0,0.0,-4.6308,-4.6308,-4.6308,-4.6308,-4.6308,-4.6308,-4.6308,-4.6308,-4.6308,-4.6308,-4.6308,-4.6308,-4.6308,-4.6308,-4.6308,-4.6308,-4.6308,-4.6308,-4.6308,-4.6308,-4.6308,-4.6308,-4.6308,-4.6308,-4.6308,-4.6308,-4.6308,-4.6308,-4.6308,-4.6308,-4.6308,-4.6308,-4.6308,-4.6308,-4.6308,-4.6308,-4.6308,-4.6308,-4.6308,-4.6308,-4.6308,-4.6308,-4.6308,-4.6308,-4.6308,-4.6308,-4.6308,-4.6308,-4.6308,-4.6308,-4.6308,-4.6308,-4.6308,-4.6308,-4.6308,-4.6308,-4.6308,-4.6308,-4.6308,-4.6308,-4.6308,-4.6308,-4.6289,-4.6289,-4.6289,-4.6289,-4.6224,-4.6108,-4.6084,-4.6033,-4.5894,-4.589,-4.589,-4.5881,-4.5881,-4.5788,-4.5594,-4.5594,-4.5594,-4.5594,-4.5594,-4.5594,0.0,0.0,0.0,-2.925,-3.2294,-3.5248,0.0,0.0,0.0,0.0,0.0,0.0,0.0,0.0,0.0,0.0,0.0,0.0,0.0,0.0,0.0,0.0,0.0,0.0,0.0,0.0,0.0,0.0,0.0,0.0,-4.6308,-4.6308,-4.6268,-4.6174,-4.6267,-4.6268,-4.6174,-4.6174,-4.6174,-4.6174,-4.6268,-4.6308,-4.6308,-4.6308,-4.6308,-4.6308,-4.6308,-4.6308,-4.6308,-4.6308,-4.6308,-4.6308,-4.6308,-4.6308,-4.6308,-4.6308,-4.6308,-4.6308,-4.6308,-4.6308,-4.6308,-4.6308,-4.6308,-4.6308,-4.6308,-4.6308,-4.6308,-4.6308,-4.6308,-4.6308,-4.6308,-4.6308,-4.6308,-4.6308,-4.6308,-4.6308,-4.6308,-4.6308,-4.6308,-4.6308,-4.6308,-4.6308,-4.6308,-4.6308,-4.6308,-4.6308,-4.6308,-4.6308,-4.6308,-4.6308,-4.6308,-4.6308,-4.6308,-4.6308,-4.6308,-4.6308,-4.6289,-4.6225,-4.6225,-4.6173,-4.6036,-4.6033,-4.5988,-4.5903,-4.5899,-4.5831,-4.5718,-4.5718,-4.5669,-4.5594,-4.5594,-4.5594,-2.163,0.0,0.0,0.0,0.0,-3.1874,0.0,0.0,0.0,0.0,0.0,0.0,0.0,0.0,0.0,0.0,0.0,0.0,0.0,0.0,0.0,0.0,0.0,0.0,0.0,0.0,0.0,0.0,0.0,0.0,-4.6173,-4.6171,-4.6119,-4.6036,-4.6117,-4.6119,-4.6036,-4.6036,-4.6036,-4.6036,-4.6119,-4.6171,-4.6173,-4.6203,-4.6226,-4.6245,-4.6289,-4.6308,-4.6308,-4.6308,-4.6308,-4.6308,-4.6308,-4.6308,-4.6308,-4.6308,-4.6308,-4.6308,-4.6308,-4.6308,-4.6308,-4.6308,-4.6308,-4.6308,-4.6308,-4.6308,-4.6308,-4.6308,-4.6308,-4.6308,-4.6308,-4.6308,-4.6308,-4.6308,-4.6308,-4.6308,-4.6308,-4.6308,-4.6308,-4.6308,-4.6308,-4.6308,-4.6308,-4.6308,-4.6308,-4.6308,-4.6308,-4.6308,-4.6308,-4.6308,-4.6308,-4.6308,-4.6308,-4.6308,-4.6308,-4.6308,-4.6308,-4.6308,-4.6308,-4.6268,-4.6173,-4.6173,-4.6138,-4.6036,-4.6036,-4.5994,-4.5896,-4.5867,-4.579,-4.5706,-4.5677,-4.5643,0.0,0.0,0.0,0.0,0.0,0.0,0.0,0.0,0.0,0.0,0.0,0.0,0.0,0.0,0.0,0.0,0.0,0.0,0.0,0.0,0.0,0.0,0.0,0.0,0.0,0.0,0.0,0.0,0.0,-4.6,-4.583,-4.5821,-4.584,-4.586,-4.5855,-4.587,-4.5894,-4.5894,-4.5894,-4.5894,-4.5899,-4.5899,-4.5903,-4.6036,-4.6087,-4.611,-4.6225,-4.6289,-4.6289,-4.6308,-4.6308,-4.6308,-4.6308,-4.6308,-4.6308,-4.6308,-4.6308,-4.6308,-4.6308,-4.6308,-4.6308,-4.6308,-4.6308,-4.6308,-4.6308,-4.6308,-4.6308,-4.6308,-4.6308,-4.6308,-4.6308,-4.6308,-4.6308,-4.6308,-4.6308,-4.6308,-4.6308,-4.6308,-4.6308,-4.6308,-4.6308,-4.6308,-4.6308,-4.6308,-4.6308,-4.6308,-4.6308,-4.6308,-4.6308,-4.6308,-4.6308,-4.6308,-4.6308,-4.6308,-4.6308,-4.6308,-4.6308,-4.6308,-4.6308,-4.6308,-4.6308,-4.6308,-4.6308,-4.6308,-4.6308,-4.6245,-4.611,-4.5978,-4.5903,-4.5899,-4.5825,-4.5733,-2.11,0.0,0.0,0.0,0.0,0.0,0.0,0.0,0.0,0.0,0.0,0.0,0.0,0.0,0.0,0.0,0.0,0.0,0.0,0.0,0.0,0.0,0.0,0.0,0.0,0.0,0.0,0.0,0.0,-4.4791,-4.4121,-4.3996,-4.4277,-4.5008,-4.4847,-4.5084,-4.5826,-4.5832,-4.5832,-4.5832,-4.5877,-4.5899,-4.5903,-4.5932,-4.5963,-4.5967,-4.5992,-4.6001,-4.603,-4.6223,-4.6308,-4.6308,-4.6308,-4.6308,-4.6308,-4.6308,-4.6308,-4.6308,-4.6308,-4.6308,-4.6308,-4.6308,-4.6308,-4.6308,-4.6308,-4.6308,-4.6308,-4.6308,-4.6308,-4.6308,-4.6308,-4.6308,-4.6308,-4.6308,-4.6308,-4.6308,-4.6308,-4.6308,-4.6308,-4.6308,-4.6308,-4.6308,-4.6308,-4.6308,-4.6308,-4.6308,-4.6308,-4.6308,-4.6308,-4.6308,-4.6308,-4.6308,-4.6308,-4.6308,-4.6308,-4.6308,-4.6308,-4.6308,-4.6308,-4.6308,-4.6308,-4.6308,-4.6308,-4.6308,-4.6308,-4.6289,-4.6247,-4.6113,-4.5992,-4.5899,-4.5886,-4.5846,-2.2139,-2.3047,-2.4072,0.0,0.0,0.0,0.0,0.0,0.0,0.0,0.0,0.0,0.0,0.0,0.0,0.0,0.0,0.0,0.0,0.0,0.0,0.0,0.0,0.0,0.0,0.0,0.0,0.0,-4.4064,-4.3845,-4.33,-4.3195,-4.344,-4.4005,-4.3875,-4.4075,-4.466,-4.466,-4.4834,-4.5162,-4.5215,-4.5414,-4.5783,-4.5834,-4.5861,-4.5861,-4.5896,-4.5899,-4.5912,-4.6075,-4.6171,-4.6222,-4.6222,-4.6247,-4.6289,-4.6174,-4.6201,-4.6289,-4.6245,-4.6248,-4.6308,-4.6308,-4.6308,-4.6308,-4.6308,-4.6308,-4.6308,-4.6308,-4.6308,-4.6308,-4.6308,-4.6308,-4.6308,-4.6308,-4.6308,-4.6308,-4.6308,-4.6308,-4.6308,-4.6308,-4.6308,-4.6308,-4.6308,-4.6308,-4.6308,-4.6308,-4.6308,-4.6308,-4.6308,-4.6308,-4.6308,-4.6308,-4.6308,-4.6308,-4.6308,-4.6308,-4.6308,-4.6308,-4.6308,-4.6308,-4.6308,-4.6308,-4.6308,-4.6308,-4.6308,-4.6308,-4.6308,-4.6223,-4.6115,-4.5985,-4.5985,-4.5944,-2.3451,-2.3913,-2.476,-2.5192,0.0,0.0,-2.7049,-2.7626,0.0,0.0,0.0,0.0,0.0,0.0,0.0,0.0,0.0,0.0,0.0,0.0,0.0,0.0,0.0,0.0,0.0,0.0,0.0,-4.304,-4.295,-4.2865,-4.2805,-4.2816,-4.2854,-4.2951,-4.297,-4.3008,-4.3104,-4.3104,-4.3451,-4.4162,-4.4162,-4.4624,-4.5468,-4.5575,-4.5692,-4.5776,-4.5845,-4.5877,-4.5862,-4.5876,-4.5967,-4.608,-4.608,-4.6147,-4.6224,-4.5988,-4.6045,-4.6246,-4.6117,-4.6168,-4.6267,-4.6267,-4.6267,-4.6267,-4.6267,-4.6267,-4.6267,-4.6267,-4.6268,-4.6289,-4.6289,-4.6289,-4.6308,-4.6308,-4.6308,-4.6308,-4.6308,-4.6308,-4.6308,-4.6308,-4.6308,-4.6308,-4.6308,-4.6308,-4.6308,-4.6308,-4.6308,-4.6308,-4.6308,-4.6308,-4.6308,-4.6308,-4.6308,-4.6308,-4.6308,-4.6308,-4.6308,-4.6308,-4.6308,-4.6308,-4.6308,-4.6308,-4.6308,-4.6308,-4.6308,-4.6308,-4.6308,-4.6308,-4.6246,-4.6119,-4.6119,-4.6069,-2.6101,-2.6972,-2.7664,-2.5769,0.0,0.0,0.0,-2.5895,0.0,0.0,0.0,0.0,0.0,0.0,0.0,0.0,0.0,0.0,0.0,0.0,0.0,0.0,0.0,0.0,0.0,0.0,-4.2097,-4.2071,-4.1424,-4.1023,-4.1016,-4.1016,-4.1335,-4.2027,-4.2038,-4.2393,-4.3085,-4.3104,-4.3181,-4.3335,-4.3335,-4.3758,-4.4556,-4.4578,-4.498,-4.5643,-4.5645,-4.5661,-4.5677,-4.577,-4.5861,-4.5932,-4.5932,-4.5963,-4.5978,-4.5916,-4.5928,-4.5978,-4.5959,-4.5967,-4.5981,-4.5981,-4.5981,-4.5981,-4.5981,-4.5981,-4.5981,-4.5981,-4.6067,-4.6144,-4.6144,-4.6223,-4.6308,-4.6308,-4.6308,-4.6308,-4.6308,-4.6308,-4.6308,-4.6308,-4.6308,-4.6308,-4.6308,-4.6308,-4.6308,-4.6308,-4.6308,-4.6308,-4.6308,-4.6308,-4.6308,-4.6308,-4.6308,-4.6308,-4.6308,-4.6308,-4.6308,-4.6308,-4.6308,-4.6308,-4.6308,-4.6308,-4.6308,-4.6308,-4.6308,-4.6308,-4.6308,-4.6308,-4.6289,-4.6268,-4.6268,-4.6247,-2.7717,-2.7852,-2.8299,-2.7409,0.0,0.0,0.0,0.0,0.0,0.0,0.0,0.0,0.0,0.0,0.0,0.0,0.0,0.0,0.0,0.0,0.0,0.0,0.0,0.0,0.0,0.0,-4.0719,-4.1123,-4.0746,-4.0496,-4.0496,-4.0496,-4.0708,-4.1143,-4.1143,-4.1354,-4.1797,-4.1797,-4.2027,-4.245,-4.245,-4.2893,-4.372,-4.4124,-4.4528,-4.4979,-4.5421,-4.5594,-4.5603,-4.5673,-4.572,-4.5751,-4.5811,-4.5867,-4.5885,-4.5782,-4.5803,-4.589,-4.5866,-4.5867,-4.5899,-4.5899,-4.5899,-4.5899,-4.5899,-4.5899,-4.5899,-4.5899,-4.5959,-4.5995,-4.5995,-4.6045,-4.6117,-4.6177,-4.62,-4.6223,-4.6289,-4.6308,-4.6308,-4.6308,-4.6308,-4.6308,-4.6308,-4.6308,-4.6308,-4.6308,-4.6308,-4.6308,-4.6308,-4.6308,-4.6308,-4.6308,-4.6308,-4.6308,-4.6308,-4.6308,-4.6308,-4.6308,-4.6308,-4.6308,-4.6308,-4.6308,-4.6308,-4.6308,-4.6308,-4.6308,-4.6308,-4.6308,-4.6308,-4.6308,-4.6308,-4.6308,0.0,0.0,0.0,0.0,0.0,-2.7948,0.0,0.0,0.0,-2.7178,0.0,0.0,0.0,0.0,0.0,0.0,0.0,0.0,0.0,0.0,0.0,0.0,0.0,0.0,0.0,0.0,-3.8969,-3.9958,-3.9727,-3.9746,-4.0246,-4.0265,-4.0342,-4.0496,-4.0496,-4.0496,-4.0496,-4.0496,-4.0854,-4.1546,-4.1546,-4.2008,-4.2874,-4.3528,-4.3912,-4.4124,-4.4979,-4.5344,-4.5364,-4.5537,-4.5594,-4.5612,-4.5723,-4.5796,-4.582,-4.5669,-4.5694,-4.5831,-4.5777,-4.5802,-4.5846,-4.5846,-4.5846,-4.5846,-4.5846,-4.5846,-4.5846,-4.5846,-4.5867,-4.5886,-4.5886,-4.5881,-4.5924,-4.6036,-4.6053,-4.6084,-4.62,-4.6224,-4.6224,-4.6224,-4.6224,-4.6246,-4.6289,-4.6308,-4.6308,-4.6308,-4.6308,-4.6308,-4.6308,-4.6308,-4.6308,-4.6308,-4.6308,-4.6308,-4.6308,-4.6308,-4.6308,-4.6308,-4.6308,-4.6308,-4.6308,-4.6308,-4.6308,-4.6308,-4.6308,-4.6308,-4.6308,-4.6308,-4.6308,-4.6308,-4.6308,-4.6308,0.0,0.0,0.0,0.0,-3.1243,0.0,0.0,0.0,-2.7217,-2.5865,0.0,0.0,0.0,0.0,0.0,0.0,0.0,0.0,0.0,0.0,0.0,0.0,0.0,0.0,0.0,0.0,0.0,-3.8161,-3.6911,-3.7046,-3.9323,-3.9438,-3.9765,-4.0477,-4.0496,-4.0496,-4.0496,-4.0496,-4.0554,-4.065,-4.065,-4.1104,-4.1942,-4.2038,-4.2508,-4.3278,-4.4105,-4.4451,-4.4509,-4.5287,-4.5594,-4.5594,-4.562,-4.5627,-4.5624,-4.5612,-4.561,-4.5624,-4.5618,-4.5627,-4.5632,-4.5632,-4.5632,-4.5632,-4.5632,-4.5632,-4.5632,-4.5632,-4.5725,-4.5809,-4.5809,-4.5855,-4.5903,-4.5916,-4.592,-4.5924,-4.5936,-4.5955,-4.5955,-4.5955,-4.5955,-4.6027,-4.6268,-4.6308,-4.6308,-4.6308,-4.6308,-4.6308,-4.6308,-4.6308,-4.6308,-4.6308,-4.6308,-4.6308,-4.6308,-4.6308,-4.6308,-4.6308,-4.6308,-4.6308,-4.6308,-4.6308,-4.6308,-4.6308,-4.6308,-4.6308,-4.6308,-4.6308,-4.6308,-4.6308,-4.6308,-4.6308,0.0,0.0,0.0,0.0,0.0,0.0,0.0,0.0,-2.6467,0.0,0.0,0.0,0.0,0.0,0.0,0.0,0.0,0.0,0.0,0.0,0.0,0.0,0.0,0.0,0.0,0.0,0.0,0.0,0.0,-3.6173,-3.7719,-3.8738,-3.9457,-3.9785,-4.0265,-4.0496,-4.0496,-4.0496,-4.0496,-4.0496,-4.0496,-4.0689,-4.1066,-4.1566,-4.2,-4.2393,-4.3239,-4.3874,-4.4335,-4.4682,-4.5152,-4.5594,-4.5594,-4.5594,-4.5594,-4.5594,-4.5594,-4.5594,-4.5594,-4.5594,-4.5594,-4.5594,-4.5594,-4.5594,-4.5594,-4.5594,-4.5594,-4.5594,-4.5643,-4.5669,-4.5669,-4.5699,-4.5744,-4.5825,-4.5842,-4.5845,-4.5885,-4.5899,-4.5899,-4.5899,-4.5899,-4.5948,-4.6045,-4.6122,-4.6202,-4.6289,-4.6308,-4.6308,-4.6308,-4.6308,-4.6308,-4.6308,-4.6308,-4.6308,-4.6308,-4.6308,-4.6308,-4.6308,-4.6308,-4.6308,-4.6308,-4.6308,-4.6308,-4.6308,-4.6308,-4.6308,-4.6308,-4.6308,-4.6308,-4.6308,-4.6308,-4.6308,-3.3548,0.0,0.0,0.0,0.0,0.0,0.0,0.0,0.0,0.0,0.0,0.0,0.0,0.0,0.0,0.0,0.0,0.0,0.0,0.0,0.0,0.0,0.0,0.0,0.0,0.0,0.0,0.0,0.0,0.0,-3.6269,-3.7777,-3.8815,-3.9284,-4.0073,-4.0496,-4.0496,-4.0496,-4.0496,-4.0496,-4.0496,-4.0496,-4.0516,-4.1162,-4.145,-4.1489,-4.2374,-4.3085,-4.3643,-4.4105,-4.4662,-4.5267,-4.5518,-4.5594,-4.5594,-4.5594,-4.5594,-4.5594,-4.5594,-4.5594,-4.5594,-4.5594,-4.5594,-4.5594,-4.5594,-4.5594,-4.5594,-4.5594,-4.5594,-4.5594,-4.5594,-4.5594,-4.5618,-4.5711,-4.5747,-4.5763,-4.5805,-4.5809,-4.5809,-4.5809,-4.5809,-4.5825,-4.5862,-4.5967,-4.6084,-4.6224,-4.6247,-4.6268,-4.6308,-4.6308,-4.6308,-4.6308,-4.6308,-4.6308,-4.6308,-4.6308,-4.6308,-4.6308,-4.6308,-4.6308,-4.6308,-4.6308,-4.6308,-4.6308,-4.6308,-4.6308,-4.6308,-4.6308,-4.6308,-4.6308,-4.6308,-4.6308,0.0,0.0,0.0,-3.0977,0.0,0.0,0.0,0.0,-2.83,0.0,0.0,0.0,0.0,0.0,-2.7544,-2.6697,0.0,0.0,0.0,0.0,0.0,0.0,0.0,0.0,0.0,0.0,0.0,0.0,0.0,0.0,-3.5327,-3.6327,-3.7565,-3.9246,-4.0073,-4.0496,-4.0496,-4.0496,-4.0496,-4.0496,-4.0496,-4.0496,-4.0496,-4.0535,-4.0535,-4.0593,-4.147,-4.1865,-4.2,-4.3624,-4.4316,-4.4432,-4.5267,-4.5594,-4.5594,-4.5594,-4.5594,-4.5594,-4.5594,-4.5594,-4.5594,-4.5594,-4.5594,-4.5594,-4.5594,-4.5594,-4.5594,-4.5594,-4.5594,-4.5594,-4.5594,-4.5594,-4.5594,-4.5603,-4.5603,-4.5603,-4.5612,-4.5612,-4.5612,-4.5612,-4.5612,-4.5648,-4.5776,-4.5861,-4.5944,-4.6084,-4.6113,-4.6149,-4.6289,-4.6308,-4.6308,-4.6308,-4.6308,-4.6308,-4.6308,-4.6308,-4.6308,-4.6308,-4.6308,-4.6308,-4.6308,-4.6308,-4.6308,-4.6308,-4.6308,-4.6308,-4.6308,-4.6308,-4.6308,-4.6308,-4.6308,-4.6308,0.0,0.0,-3.6974,-3.3051,0.0,0.0,0.0,0.0,0.0,0.0,0.0,0.0,0.0,0.0,-2.7357,-2.6491,-2.6469,-2.5909,0.0,0.0,0.0,0.0,0.0,0.0,0.0,0.0,0.0,0.0,0.0,0.0,0.0,-3.4846,-3.6423,-3.7546,-3.895,-3.9958,-4.0496,-4.0496,-4.0496,-4.0496,-4.0496,-4.0496,-4.0496,-4.0496,-4.0496,-4.0516,-4.0804,-4.1277,-4.1846,-4.2412,-4.3297,-4.4335,-4.4624,-4.5094,-4.5594,-4.5594,-4.5594,-4.5594,-4.5594,-4.5594,-4.5594,-4.5594,-4.5594,-4.5594,-4.5594,-4.5594,-4.5594,-4.5594,-4.5594,-4.5594,-4.5594,-4.5594,-4.5594,-4.5594,-4.5594,-4.5594,-4.5594,-4.5594,-4.5594,-4.5594,-4.5594,-4.562,-4.5657,-4.5688,-4.5757,-4.5948,-4.5974,-4.5985,-4.6033,-4.6115,-4.6173,-4.6173,-4.6247,-4.6308,-4.6308,-4.6308,-4.6308,-4.6308,-4.6308,-4.6308,-4.6308,-4.6308,-4.6308,-4.6308,-4.6308,-4.6308,-4.6308,-4.6308,-4.6308,-4.6308,-4.6308,-4.6308,-3.671,-3.7272,0.0,0.0,-3.3116,0.0,-2.8315,0.0,0.0,0.0,0.0,0.0,0.0,0.0,-2.7671,-2.7072,-2.6644,-2.5604,0.0,0.0,0.0,0.0,0.0,0.0,0.0,0.0,-2.6197,-2.7351,0.0,0.0,0.0,0.0,-3.5423,-3.625,-3.8238,-3.9554,-4.0073,-4.0362,-4.0496,-4.0496,-4.0496,-4.0496,-4.0496,-4.0496,-4.0496,-4.0496,-4.0496,-4.0823,-4.1354,-4.1673,-4.2624,-4.3893,-4.4182,-4.4836,-4.5594,-4.5594,-4.5594,-4.5594,-4.5594,-4.5594,-4.5594,-4.5594,-4.5594,-4.5594,-4.5594,-4.5594,-4.5594,-4.5594,-4.5594,-4.5594,-4.5594,-4.5594,-4.5594,-4.5594,-4.5594,-4.5594,-4.5594,-4.5594,-4.5594,-4.5594,-4.5594,-4.5594,-4.5594,-4.5594,-4.5661,-4.5839,-4.5852,-4.5872,-4.5894,-4.5978,-4.6033,-4.6033,-4.611,-4.6175,-4.6224,-4.6225,-4.6247,-4.6308,-4.6308,-4.6308,-4.6308,-4.6308,-4.6308,-4.6308,-4.6308,-4.6308,-4.6308,-4.6308,-4.6308,-4.6308,-4.6308,-4.6308]},{"header":{"parameterUnit":"m.s-1","parameterCategory":1,"la1":30.6,"la2":29.2853,"lo1":-89.7004,"lo2":-87.6739,"dy":0.0162,"dx":0.0183,"nx":112,"ny":82,"refTime":"2024-06-30T18:00:00:Z","depth":0,"parameterNumber":3,"parameterNumberName":"V-component_of_WINDS"},"data":[0.0,0.0,0.0,0.0,0.0,0.0,0.0,0.0,0.0,0.0,0.0,0.0,0.0,0.0,0.0,0.0,0.0,0.0,0.0,0.0,0.0,0.0,0.0,0.0,0.0,0.0,0.0,0.0,0.0,0.0,0.0,0.0,0.0,0.0,0.0,0.0,0.0,0.0,0.0,0.0,0.0,0.0,0.0,0.0,0.0,0.0,0.0,0.0,0.0,0.0,0.0,0.0,0.0,0.0,0.0,0.0,0.0,0.0,0.0,0.0,0.0,0.0,0.0,0.0,0.0,0.0,0.0,0.0,0.0,0.0,0.0,0.0,0.0,0.0,0.0,0.0,0.0,0.0,0.0,0.0,0.0,0.0,0.0,0.0,0.0,0.0,0.0,0.0,0.0,0.0,0.0,-1.2492,-1.3774,-1.4643,-1.4981,-1.4155,-1.2967,-1.1482,0.0,0.0,0.0,0.0,0.0,0.0,0.0,0.0,0.0,0.0,0.0,0.0,0.0,0.0,0.0,0.0,0.0,0.0,0.0,0.0,0.0,0.0,0.0,0.0,0.0,0.0,0.0,0.0,0.0,0.0,0.0,0.0,0.0,0.0,0.0,0.0,0.0,0.0,0.0,0.0,0.0,0.0,0.0,0.0,0.0,0.0,0.0,0.0,0.0,0.0,0.0,0.0,0.0,0.0,0.0,0.0,0.0,0.0,0.0,0.0,0.0,0.0,0.0,0.0,0.0,0.0,0.0,0.0,0.0,0.0,0.0,0.0,0.0,0.0,0.0,0.0,0.0,0.0,0.0,0.0,0.0,0.0,0.0,0.0,0.0,0.0,0.0,0.0,0.0,0.0,0.0,0.0,0.0,0.0,0.0,0.0,0.0,0.0,0.0,0.0,0.0,0.0,0.0,0.0,-1.1524,-1.3921,-1.4389,-1.4643,-1.4981,-1.4155,-1.2967,-1.1482,0.0,0.0,0.0,0.0,0.0,0.0,0.0,0.0,0.0,0.0,0.0,0.0,0.0,0.0,0.0,0.0,0.0,0.0,0.0,0.0,0.0,0.0,0.0,0.0,0.0,0.0,0.0,0.0,0.0,0.0,0.0,0.0,0.0,0.0,0.0,0.0,0.0,0.0,0.0,0.0,0.0,0.0,0.0,0.0,0.0,0.0,0.0,0.0,0.0,0.0,0.0,0.0,0.0,0.0,0.0,0.0,0.0,0.0,0.0,0.0,0.0,0.0,0.0,0.0,0.0,0.0,0.0,0.0,0.0,0.0,0.0,0.0,0.0,0.0,0.0,0.0,0.0,0.0,0.0,0.0,0.0,0.0,0.0,0.0,0.0,0.0,0.0,0.0,0.0,0.0,0.0,0.0,0.0,0.0,0.0,0.0,0.0,0.0,0.0,0.0,0.0,0.0,0.0,-1.1169,-1.2278,-1.4309,-1.4522,-1.4576,-1.471,-1.3915,-1.2801,-1.1475,-1.0454,0.0,0.0,0.0,0.0,0.0,0.0,0.0,0.0,0.0,0.0,0.0,0.0,0.0,0.0,0.0,0.0,0.0,0.0,0.0,0.0,0.0,0.0,0.0,0.0,0.0,0.0,0.0,0.0,0.0,0.0,0.0,0.0,0.0,0.0,0.0,0.0,0.0,0.0,0.0,0.0,0.0,0.0,0.0,0.0,0.0,0.0,0.0,0.0,0.0,0.0,0.0,0.0,0.0,0.0,0.0,0.0,0.0,0.0,0.0,0.0,0.0,0.0,0.0,0.0,0.0,0.0,0.0,0.0,0.0,0.0,0.0,0.0,0.0,0.0,0.0,0.0,0.0,0.0,0.0,0.0,0.0,0.0,0.0,0.0,0.0,0.0,0.0,0.0,0.0,0.0,0.0,0.0,0.0,0.0,0.0,0.0,0.0,0.0,0.0,0.0,0.0,0.0,-1.2345,-1.3026,-1.4376,-1.4456,-1.4442,-1.4466,-1.3587,-1.2545,-1.1455,-1.0134,0.0,0.0,0.0,0.0,0.0,0.0,0.0,0.0,0.0,0.0,0.0,0.0,0.0,0.0,0.0,0.0,0.0,0.0,0.0,0.0,0.0,0.0,0.0,0.0,0.0,0.0,0.0,0.0,0.0,0.0,0.0,0.0,0.0,0.0,0.0,0.0,0.0,0.0,0.0,0.0,0.0,0.0,0.0,0.0,0.0,0.0,0.0,0.0,0.0,0.0,0.0,0.0,0.0,0.0,0.0,0.0,0.0,0.0,0.0,0.0,0.0,0.0,0.0,0.0,0.0,0.0,0.0,0.0,0.0,0.0,0.0,0.0,0.0,0.0,0.0,0.0,0.0,0.0,0.0,0.0,0.0,0.0,0.0,0.0,0.0,0.0,0.0,0.0,0.0,0.0,0.0,0.0,0.0,0.0,0.0,0.0,0.0,0.0,0.0,0.0,0.0,0.0,-1.2421,-1.35,-1.4422,-1.4282,-1.4229,-1.4496,-1.32,-1.2098,-1.1429,-0.9559,0.0,0.0,0.0,0.0,0.0,0.0,0.0,0.0,0.0,0.0,0.0,0.0,0.0,0.0,0.0,0.0,0.0,0.0,0.0,0.0,0.0,0.0,0.0,0.0,0.0,0.0,0.0,0.0,0.0,0.0,0.0,0.0,0.0,0.0,0.0,0.0,0.0,0.0,0.0,0.0,0.0,0.0,0.0,0.0,0.0,0.0,0.0,0.0,0.0,0.0,0.0,0.0,0.0,0.0,0.0,0.0,0.0,0.0,0.0,0.0,0.0,0.0,0.0,0.0,0.0,0.0,0.0,0.0,0.0,0.0,0.0,0.0,0.0,0.0,0.0,0.0,0.0,0.0,0.0,0.0,0.0,0.0,0.0,0.0,0.0,0.0,0.0,0.0,0.0,0.0,0.0,0.0,0.0,0.0,0.0,0.0,0.0,0.0,0.0,0.0,0.0,0.0,-1.2138,-1.3053,0.0,-1.4155,-1.4055,-1.3939,-1.3113,-1.2134,-1.0955,0.0,0.0,0.0,0.0,0.0,0.0,0.0,0.0,0.0,0.0,0.0,0.0,0.0,0.0,0.0,0.0,0.0,0.0,0.0,0.0,0.0,0.0,0.0,0.0,0.0,0.0,0.0,0.0,0.0,0.0,0.0,0.0,0.0,0.0,0.0,0.0,0.0,0.0,0.0,0.0,0.0,0.0,0.0,0.0,0.0,0.0,0.0,0.0,0.0,0.0,0.0,0.0,0.0,0.0,0.0,0.0,0.0,0.0,0.0,0.0,0.0,0.0,0.0,0.0,0.0,0.0,0.0,0.0,0.0,0.0,0.0,0.0,0.0,0.0,0.0,0.0,0.0,0.0,0.0,0.0,0.0,0.0,0.0,0.0,0.0,0.0,0.0,0.0,0.0,0.0,0.0,0.0,0.0,0.0,0.0,0.0,0.0,0.0,0.0,0.0,0.0,0.0,-1.1189,-1.2104,-1.2973,0.0,-1.4088,-1.3968,-1.3626,-1.2919,-1.196,-1.0673,0.0,0.0,0.0,0.0,0.0,0.0,0.0,0.0,0.0,0.0,0.0,0.0,0.0,0.0,0.0,0.0,0.0,0.0,0.0,0.0,0.0,0.0,0.0,0.0,0.0,0.0,0.0,0.0,0.0,0.0,0.0,0.0,0.0,0.0,0.0,0.0,0.0,0.0,0.0,0.0,0.0,0.0,0.0,0.0,0.0,0.0,0.0,0.0,0.0,0.0,0.0,0.0,0.0,0.0,0.0,0.0,0.0,0.0,0.0,0.0,0.0,0.0,0.0,0.0,0.0,0.0,0.0,0.0,0.0,0.0,0.0,0.0,0.0,0.0,0.0,0.0,0.0,0.0,0.0,0.0,0.0,0.0,0.0,0.0,0.0,0.0,0.0,0.0,0.0,0.0,0.0,0.0,0.0,0.0,0.0,0.0,0.0,0.0,0.0,0.0,0.0,0.0,-1.1242,-1.2434,-1.3434,-1.4028,-1.4088,-1.3968,-1.3626,-1.2552,-1.1531,0.0,0.0,0.0,0.0,0.0,0.0,0.0,0.0,0.0,0.0,0.0,0.0,0.0,0.0,0.0,0.0,0.0,0.0,0.0,0.0,0.0,0.0,0.0,0.0,0.0,0.0,0.0,0.0,0.0,0.0,0.0,0.0,0.0,0.0,0.0,0.0,0.0,0.0,0.0,0.0,0.0,0.0,0.0,0.0,0.0,0.0,0.0,0.0,0.0,0.0,0.0,0.0,0.0,0.0,0.0,0.0,0.0,0.0,0.0,0.0,0.0,0.0,0.0,0.0,0.0,0.0,0.0,0.0,0.0,0.0,0.0,0.0,0.0,0.0,0.0,0.0,0.0,0.0,0.0,0.0,0.0,0.0,0.0,0.0,0.0,0.0,0.0,0.0,0.0,0.0,0.0,0.0,0.0,0.0,0.0,0.0,0.0,0.0,0.0,0.0,0.0,0.0,0.0,-1.1216,-1.2434,-1.3434,-1.4028,-1.4088,-1.3881,-1.334,-1.2625,-1.1536,-1.007,0.0,0.0,0.0,0.0,0.0,0.0,0.0,0.0,0.0,0.0,0.0,0.0,0.0,0.0,0.0,0.0,0.0,0.0,0.0,0.0,0.0,0.0,0.0,0.0,0.0,0.0,0.0,0.0,0.0,0.0,0.0,0.0,0.0,0.0,0.0,0.0,0.0,0.0,0.0,0.0,0.0,0.0,0.0,0.0,0.0,0.0,0.0,0.0,0.0,0.0,0.0,0.0,0.0,0.0,0.0,0.0,0.0,0.0,0.0,0.0,0.0,0.0,0.0,0.0,0.0,0.0,0.0,0.0,0.0,0.0,0.0,0.0,0.0,0.0,0.0,0.0,0.0,0.0,0.0,0.0,0.0,0.0,0.0,0.0,0.0,0.0,0.0,0.0,0.0,0.0,0.0,0.0,0.0,0.0,0.0,0.0,0.0,0.0,0.0,0.0,0.0,0.0,-1.1216,-1.2434,-1.3434,-1.4028,-1.4088,-1.3848,-1.326,-1.2652,-1.1603,-0.996,0.0,0.0,0.0,0.0,0.0,0.0,0.0,0.0,0.0,0.0,0.0,0.0,0.0,0.0,0.0,0.0,0.0,0.0,0.0,0.0,0.0,0.0,0.0,0.0,0.0,0.0,0.0,0.0,0.0,0.0,0.0,0.0,0.0,0.0,0.0,0.0,0.0,0.0,0.0,0.0,0.0,0.0,0.0,0.0,0.0,0.0,0.0,0.0,0.0,0.0,0.0,0.0,0.0,0.0,0.0,0.0,0.0,0.0,0.0,0.0,0.0,0.0,0.0,0.0,0.0,0.0,0.0,0.0,0.0,0.0,0.0,0.0,0.0,0.0,0.0,0.0,0.0,0.0,0.0,0.0,0.0,0.0,0.0,0.0,0.0,0.0,0.0,0.0,0.0,0.0,0.0,0.0,0.0,0.0,0.0,0.0,0.0,0.0,0.0,0.0,0.0,0.0,-1.1242,-1.2434,-1.3434,-1.4028,-1.4088,-1.3848,-1.326,-1.2679,-1.1717,-1.0254,0.0,0.0,0.0,0.0,0.0,0.0,0.0,0.0,0.0,0.0,0.0,0.0,0.0,0.0,0.0,0.0,0.0,0.0,0.0,0.0,0.0,0.0,0.0,0.0,0.0,0.0,0.0,0.0,0.0,0.0,0.0,0.0,0.0,0.0,0.0,0.0,0.0,0.0,0.0,0.0,0.0,0.0,0.0,0.0,0.0,0.0,0.0,0.0,0.0,0.0,0.0,0.0,0.0,0.0,0.0,0.0,0.0,0.0,0.0,0.0,-0.5162,0.0,0.0,0.0,0.0,0.0,0.0,0.0,0.0,0.0,0.0,0.0,0.0,0.0,0.0,0.0,0.0,0.0,0.0,0.0,0.0,0.0,0.0,0.0,0.0,0.0,0.0,0.0,0.0,0.0,0.0,0.0,0.0,0.0,0.0,0.0,0.0,0.0,0.0,0.0,0.0,0.0,-1.1209,-1.2434,-1.3434,-1.4028,-1.4088,-1.3848,-1.326,-1.2904,-1.206,-1.0593,0.0,0.0,0.0,0.0,0.0,0.0,0.0,0.0,0.0,0.0,0.0,0.0,0.0,0.0,0.0,0.0,0.0,0.0,0.0,0.0,0.0,0.0,0.0,0.0,0.0,0.0,0.0,0.0,0.0,0.0,0.0,0.0,0.0,0.0,0.0,0.0,0.0,0.0,0.0,0.0,0.0,0.0,0.0,0.0,0.0,0.0,0.0,0.0,0.0,0.0,0.0,0.0,0.0,0.0,0.0,0.0,0.0,0.0,0.0,0.0,0.0,-0.5603,0.0,0.0,0.0,0.0,0.0,0.0,0.0,0.0,0.0,0.0,0.0,0.0,0.0,0.0,0.0,0.0,0.0,0.0,0.0,0.0,0.0,0.0,0.0,0.0,0.0,0.0,0.0,0.0,0.0,0.0,0.0,0.0,0.0,0.0,0.0,0.0,0.0,0.0,0.0,0.0,-1.1242,-1.2434,-1.3434,-1.4028,-1.4088,-1.3848,-1.326,-1.2965,-1.2275,-1.1049,-1.0117,0.0,0.0,0.0,0.0,0.0,0.0,0.0,0.0,0.0,0.0,0.0,0.0,0.0,0.0,0.0,0.0,0.0,0.0,0.0,0.0,0.0,0.0,0.0,0.0,0.0,0.0,0.0,0.0,0.0,0.0,0.0,0.0,0.0,0.0,0.0,0.0,0.0,0.0,0.0,0.0,0.0,0.0,0.0,0.0,0.0,0.0,0.0,0.0,0.0,0.0,0.0,0.0,0.0,0.0,-0.681,-0.6932,-0.6932,-0.7004,-0.7058,-0.6732,-0.6603,-0.6512,0.0,0.0,0.0,0.0,0.0,0.0,0.0,0.0,0.0,0.0,0.0,0.0,0.0,0.0,0.0,0.0,0.0,0.0,0.0,0.0,0.0,0.0,0.0,0.0,0.0,-1.2272,-1.2556,0.0,0.0,0.0,0.0,0.0,0.0,0.0,0.0,0.0,0.0,0.0,0.0,-1.1422,-1.2579,-1.3494,-1.4028,-1.4088,-1.3848,-1.326,-1.3012,-1.2482,-1.1557,-1.0696,-0.992,0.0,0.0,0.0,0.0,0.0,0.0,0.0,0.0,0.0,0.0,0.0,0.0,0.0,0.0,0.0,0.0,0.0,0.0,0.0,0.0,0.0,0.0,0.0,0.0,0.0,0.0,0.0,0.0,0.0,0.0,0.0,0.0,-0.3542,-0.424,0.0,0.0,0.0,0.0,0.0,0.0,0.0,0.0,0.0,0.0,0.0,0.0,0.0,0.0,-0.661,-0.7021,-0.7279,-0.7303,-0.7648,-0.7796,-0.7813,-0.7813,-0.7826,-0.784,-0.7783,0.0,-0.6844,-0.6498,0.0,0.0,0.0,0.0,0.0,0.0,0.0,0.0,0.0,0.0,0.0,0.0,0.0,0.0,0.0,0.0,0.0,0.0,0.0,0.0,0.0,0.0,-1.2391,-1.3708,-1.3951,-1.3834,0.0,-1.196,-1.0472,-1.0278,0.0,0.0,0.0,0.0,0.0,0.0,0.0,0.0,-1.2037,-1.2967,-1.3673,-1.4048,-1.4088,-1.3848,-1.326,-1.3173,-1.2766,-1.1906,-1.1223,-1.0747,-1.0378,-0.9099,0.0,0.0,0.0,0.0,0.0,0.0,0.0,0.0,0.0,0.0,0.0,0.0,0.0,0.0,0.0,0.0,0.0,0.0,0.0,0.0,0.0,0.0,0.0,0.0,0.0,0.0,0.0,0.0,0.0,-0.3482,-0.4442,-0.4682,-0.4789,-0.4748,0.0,0.0,0.0,0.0,0.0,0.0,0.0,0.0,0.0,-0.691,-0.7027,-0.7261,-0.758,-0.7858,-0.7994,-0.7997,-0.8194,-0.8289,-0.8289,-0.8289,-0.8289,-0.8289,-0.8289,-0.8058,-0.7645,-0.7173,-0.6803,-0.6465,0.0,0.0,0.0,0.0,0.0,-0.6184,-0.6542,0.0,0.0,0.0,0.0,0.0,0.0,0.0,0.0,0.0,0.0,0.0,0.0,0.0,0.0,-1.4763,-1.4917,-1.4823,-1.4823,-1.3748,-1.2538,0.0,-1.1397,-1.0762,-0.938,0.0,0.0,0.0,0.0,0.0,-1.2482,-1.3193,-1.372,-1.4055,-1.4088,-1.3848,-1.326,-1.3213,-1.2893,-1.2158,-1.1752,-1.1316,-1.0854,-1.0064,-0.9179,0.0,0.0,0.0,0.0,0.0,0.0,0.0,0.0,0.0,0.0,0.0,0.0,0.0,0.0,0.0,0.0,0.0,0.0,0.0,0.0,0.0,0.0,0.0,0.0,0.0,0.0,0.0,0.0,-0.4481,-0.5131,-0.5094,-0.5319,-0.5386,0.0,0.0,0.0,0.0,0.0,0.0,-0.6726,-0.6815,-0.7058,-0.763,-0.7746,-0.7987,-0.8374,-0.8428,-0.8482,-0.8482,-0.8482,-0.8482,-0.8482,-0.8482,-0.8482,-0.8482,-0.8482,-0.8421,-0.8286,-0.776,-0.7366,-0.7075,-0.6807,-0.6654,-0.6519,-0.6776,-0.68,-0.6815,-0.7306,-0.7329,-0.7262,-0.7805,0.0,-0.8222,-0.7614,0.0,0.0,0.0,0.0,-1.2654,-1.3416,0.0,-1.4877,-1.5384,-1.5504,-1.5504,-1.5504,-1.5104,-1.4369,0.0,-1.2866,-1.2388,-1.0774,0.0,0.0,0.0,0.0,-1.2342,-1.2938,-1.3434,-1.38,-1.4062,-1.4088,-1.3848,-1.326,-1.3213,-1.2946,-1.2345,-1.1957,-1.1563,-1.1122,-1.0713,-0.993,-0.8757,0.0,0.0,0.0,0.0,0.0,0.0,0.0,0.0,0.0,0.0,0.0,0.0,0.0,0.0,0.0,0.0,0.0,0.0,0.0,0.0,0.0,0.0,0.0,0.0,0.0,0.0,0.0,0.0,0.0,-0.5572,-0.6186,0.0,0.0,0.0,0.0,-0.6446,-0.6573,-0.6858,-0.7347,-0.759,-0.7892,-0.8265,-0.8364,-0.8448,-0.8472,-0.8479,-0.8482,-0.8482,-0.8482,-0.8482,-0.8482,-0.8482,-0.8482,-0.8482,-0.8482,-0.8479,-0.8445,-0.8136,-0.7831,-0.755,-0.739,-0.7231,-0.7071,-0.7278,-0.7378,-0.7398,-0.7529,-0.7489,-0.7854,-1.0562,-1.2002,-1.2644,-1.2481,-1.1529,0.0,0.0,-1.1954,-1.3071,-1.3573,-1.4534,-1.5431,-1.5684,-1.5758,-1.5758,-1.5758,-1.5571,-1.5164,0.0,-1.3748,-1.306,-1.2697,0.0,-1.194,-1.2138,-1.2509,-1.2958,-1.348,-1.3868,-1.4075,-1.4088,-1.4088,-1.3848,-1.326,-1.3213,-1.2946,-1.2345,-1.1764,-1.1395,-1.1369,-1.0556,-0.9973,-0.9655,-0.8811,0.0,0.0,0.0,0.0,0.0,0.0,0.0,0.0,0.0,0.0,0.0,0.0,0.0,0.0,0.0,0.0,0.0,0.0,0.0,0.0,0.0,0.0,0.0,0.0,0.0,0.0,0.0,0.0,-0.6298,-0.6709,0.0,0.0,-0.6651,-0.6929,-0.718,-0.7424,-0.7716,-0.8069,-0.8184,-0.834,-0.8547,-0.8604,-0.8676,-0.8774,-0.8774,-0.8774,-0.8774,-0.8774,-0.8774,-0.8774,-0.8774,-0.8774,-0.8774,-0.8774,-0.872,-0.8621,-0.8513,-0.8299,-0.8018,-0.7862,-0.7719,-0.7678,-0.778,-0.7801,-0.7807,-0.7865,-0.7848,-0.7945,-0.8904,-0.9363,-0.9654,-1.0319,-1.0795,-1.1271,-1.2254,-1.3519,-1.4611,-1.495,-1.5336,-1.5698,-1.5758,-1.5784,-1.5784,-1.5784,-1.5698,-1.5611,-1.5358,-1.481,-1.4062,-1.3193,-1.3186,-1.3172,-1.2697,-1.3006,-1.3467,-1.3874,-1.4021,-1.4088,-1.4088,-1.4088,-1.3848,-1.326,-1.3213,-1.2872,-1.2078,-1.183,-1.1543,-1.1162,-1.0668,-1.0174,-0.9722,-0.9005,-0.8156,0.0,0.0,0.0,0.0,0.0,0.0,0.0,0.0,0.0,0.0,0.0,0.0,0.0,0.0,0.0,0.0,0.0,0.0,0.0,0.0,0.0,0.0,0.0,0.0,0.0,0.0,-0.6719,-0.677,-0.7217,-0.7387,-0.7037,-0.736,-0.7678,-0.7882,-0.8079,-0.8299,-0.8547,-0.856,-0.8652,-0.8852,-0.8859,-0.8933,-0.9086,-0.9086,-0.9062,-0.9011,-0.9011,-0.8984,-0.8885,-0.8885,-0.8885,-0.8885,-0.8885,-0.8824,-0.8784,-0.873,-0.8594,-0.8404,-0.8248,-0.816,-0.8116,-0.8116,-0.8032,-0.7988,-0.7988,-0.8287,-0.8658,-0.8548,-0.8779,-0.9207,-0.9957,-1.1125,-1.2379,-1.3291,-1.4531,-1.5585,-1.5731,-1.5784,-1.5784,-1.5784,-1.5784,-1.5784,-1.5784,-1.5784,-1.5784,-1.5784,-1.5438,-1.4863,-1.4082,-1.4188,-1.4191,-1.3487,-1.3687,-1.3933,-1.4075,-1.4088,-1.4088,-1.4088,-1.4088,-1.3848,-1.326,-1.3113,-1.2752,-1.2094,-1.1772,-1.1477,-1.1149,-1.0668,-1.0211,-0.9722,-0.9011,-0.837,-0.7792,0.0,0.0,0.0,0.0,0.0,0.0,0.0,0.0,0.0,0.0,0.0,0.0,0.0,0.0,0.0,0.0,0.0,0.0,0.0,0.0,0.0,0.0,0.0,-0.6027,-0.6654,-0.7065,-0.6943,-0.774,-0.8102,-0.7668,-0.8147,-0.8482,-0.8489,-0.8489,-0.8557,-0.8716,-0.8723,-0.8859,-0.9207,-0.9217,-0.9289,-0.9381,-0.9381,-0.9306,-0.9217,-0.9217,-0.9086,-0.8898,-0.8892,-0.8892,-0.8892,-0.8885,-0.8885,-0.8871,-0.8777,-0.8716,-0.8703,-0.8543,-0.8397,-0.8327,-0.8323,-0.8174,-0.7988,-0.7988,-0.8874,-0.9953,-0.9953,-1.0779,-1.1799,-1.1799,-1.2716,-1.383,-1.383,-1.4806,-1.5784,-1.5784,-1.5784,-1.5784,-1.5784,-1.5784,-1.5784,-1.5784,-1.5784,-1.5784,-1.5784,-1.5605,-1.5404,-1.5398,-1.5164,-1.4921,-1.4583,-1.4529,0.0,-1.4135,-1.4095,-1.4088,-1.4088,-1.4088,-1.3854,-1.3273,-1.2978,-1.2663,-1.2311,-1.1483,-1.1129,-1.1369,-1.0588,-0.9993,-0.9729,-0.8884,-0.8435,-0.8422,0.0,0.0,0.0,0.0,0.0,0.0,0.0,0.0,0.0,0.0,0.0,0.0,0.0,0.0,0.0,0.0,0.0,0.0,0.0,0.0,0.0,0.0,-0.6792,-0.6792,-0.7159,-0.758,-0.7868,-0.8119,-0.8313,-0.8241,-0.8387,-0.8526,-0.8638,-0.8648,-0.876,-0.9074,-0.9088,-0.9176,-0.9313,-0.9317,-0.934,-0.9381,-0.9381,-0.9361,-0.9317,-0.9317,-0.93,-0.9256,-0.9144,-0.9093,-0.9089,-0.8984,-0.8885,-0.8878,-0.8838,-0.8821,-0.8849,-0.8584,-0.8459,-0.8411,-0.8361,-0.8174,-0.7988,-0.7988,-0.8237,-0.8528,-0.8528,-0.8775,-0.9069,-0.9069,-1.0627,-1.2431,-1.2431,-1.4076,-1.5784,-1.5784,-1.5784,-1.5784,-1.5784,-1.5784,-1.5784,-1.5784,-1.5784,-1.5784,-1.5784,-1.5718,-1.5645,-1.5431,-1.5331,-1.5177,-1.4928,0.0,0.0,-1.4409,-1.4215,-1.4088,-1.4088,-1.4088,-1.3935,-1.3513,-1.3253,-1.2772,0.0,-1.1557,-1.1249,-1.1116,-1.0675,-1.0301,-1.0007,-0.9552,-0.9218,0.0,0.0,0.0,0.0,0.0,0.0,0.0,0.0,0.0,0.0,0.0,0.0,0.0,0.0,0.0,0.0,0.0,0.0,0.0,0.0,0.0,0.0,-0.6909,-0.7397,-0.7587,-0.7712,-0.7906,-0.8282,-0.8374,-0.8418,-0.8564,-0.8635,-0.8737,-0.8882,-0.8896,-0.8998,-0.9292,-0.9306,-0.9317,-0.9473,-0.9476,-0.9507,-0.9564,-0.9564,-0.9537,-0.9476,-0.9476,-0.9442,-0.9378,-0.9347,-0.9306,0.0,-0.9093,-0.9028,-0.9025,-0.8908,-0.8885,0.0,0.0,0.0,0.0,0.0,-0.8265,-0.8136,-0.8136,-0.8096,-0.7988,-0.7988,-0.7988,-0.7988,-0.7988,-0.946,-1.1121,-1.1121,-1.2576,-1.4178,-1.4178,-1.4561,-1.4997,-1.4997,-1.5391,-1.5784,-1.5784,-1.5784,-1.5784,-1.5784,0.0,0.0,-1.5605,-1.5578,-1.5478,-1.519,-1.4997,-1.4796,0.0,-1.4369,-1.4222,-1.4102,-1.4088,-1.3968,-1.3626,-1.326,0.0,0.0,0.0,-1.1296,-1.1002,-1.0861,0.0,0.0,0.0,0.0,0.0,0.0,0.0,0.0,-0.959,-0.987,0.0,0.0,0.0,0.0,0.0,0.0,0.0,0.0,0.0,0.0,0.0,0.0,0.0,0.0,0.0,0.0,-0.7451,-0.7814,-0.8265,-0.8167,-0.8147,-0.8303,-0.8431,-0.8567,-0.872,-0.8872,-0.9015,-0.92,-0.9224,-0.9303,-0.9398,0.0,0.0,0.0,0.0,-0.9693,-0.9819,-0.9822,-0.9758,-0.9635,-0.9635,-0.9561,-0.9432,-0.9415,-0.9408,-0.9398,-0.9303,-0.9224,-0.92,-0.9015,-0.8898,-0.8885,-0.8885,-0.879,-0.8696,-0.8557,-0.8408,0.0,0.0,0.0,0.0,-0.7988,-0.7988,-0.7988,-0.7988,-0.8924,-0.9998,-0.9998,-1.0925,-1.1896,-1.1896,-1.277,-1.368,-1.368,-1.4657,-1.5588,-1.5588,-1.5683,-1.5784,-1.5784,-1.5784,-1.5784,-1.5784,-1.5784,-1.5745,-1.5484,-1.5418,0.0,-1.4683,-1.4563,-1.4422,-1.4162,0.0,0.0,-1.3673,-1.3173,-1.2871,-1.2837,-1.1997,-1.1375,-1.1156,-1.1142,-1.1122,-1.1089,-1.1089,-1.1216,-1.1442,-1.1475,-1.1509,-1.1557,-1.0708,-1.0716,0.0,0.0,0.0,0.0,0.0,0.0,0.0,0.0,0.0,0.0,0.0,0.0,0.0,0.0,0.0,-0.7282,-0.7787,-0.817,-0.831,-0.8343,-0.8452,-0.8608,-0.8648,-0.8726,-0.8824,-0.9025,-0.918,-0.9207,-0.9323,-0.9405,-0.9557,-0.9564,0.0,-0.9774,-0.9781,-0.9791,-0.9822,-0.9822,-0.9805,-0.9781,0.0,0.0,-0.973,-0.9615,-0.9564,-0.9557,-0.9405,-0.9323,-0.9207,-0.918,-0.9045,-0.8885,-0.8885,-0.879,-0.8706,-0.8676,-0.8496,-0.8323,-0.8323,-0.817,-0.7988,-0.7988,-0.7988,-0.7988,-0.7988,-0.8924,0.0,-0.9998,-1.0925,-1.1896,-1.1896,-1.2091,-1.2285,-1.2285,-1.3301,-1.4262,-1.4262,-1.5045,-1.5784,-1.5784,-1.5784,-1.5784,-1.5784,-1.5784,-1.5764,-1.5752,-1.5545,-1.5357,-1.5244,-1.481,-1.4496,-1.4442,-1.4229,-1.4062,-1.4008,-1.3674,-1.3367,-1.3133,-1.2498,-1.2111,-1.2051,-1.2051,-1.1937,-1.1739,-1.1739,-1.1759,-1.1784,-1.2017,-1.2258,-1.2509,-1.1866,-1.175,0.0,0.0,0.0,0.0,0.0,0.0,0.0,0.0,0.0,0.0,0.0,-0.6458,-0.6805,0.0,-0.7553,-0.7784,-0.8183,-0.8404,-0.8479,-0.8554,-0.8625,-0.8703,-0.871,-0.8771,-0.8868,-0.9069,-0.9241,-0.932,-0.9408,-0.9561,-0.9707,-0.9717,-0.9747,-0.9819,-0.9822,-0.9822,-0.9822,-0.9822,-0.9822,-0.9822,-0.9822,-0.9822,-0.9819,-0.9747,-0.9717,-0.9707,-0.9557,-0.9452,-0.9367,-0.9272,-0.9069,-0.8885,-0.8885,-0.8838,-0.8825,-0.8825,-0.8682,-0.8479,-0.8404,-0.8279,-0.8143,-0.8015,-0.7988,-0.7988,-0.7988,-0.8482,-0.9019,-0.9019,-0.946,-0.9948,-0.9948,-1.0435,-1.0974,-1.0974,-1.1945,-1.2909,-1.2909,-1.3926,-1.4854,-1.4854,-1.5337,-1.5784,-1.5784,-1.5784,-1.5784,-1.5784,-1.5705,-1.5565,-1.5418,-1.5017,-1.4689,-1.4536,-1.4262,-1.4088,-1.4088,-1.3773,-1.348,-1.3227,-1.2926,-1.2759,-1.2759,-1.2759,-1.2685,-1.2545,-1.2538,-1.2538,-1.2538,-1.2685,-1.2832,-1.3012,-1.2826,-1.2832,0.0,0.0,0.0,0.0,0.0,0.0,0.0,0.0,-0.6044,-0.658,-0.6834,-0.7071,-0.7434,-0.7719,-0.7991,-0.8269,-0.8431,-0.857,-0.8693,-0.8737,-0.8754,-0.8754,-0.8754,-0.8815,-0.8964,-0.911,-0.9316,-0.9415,-0.9564,-0.97,-0.9815,-0.9822,-0.9822,-0.9822,-0.9822,-0.9822,-0.9822,-0.9822,-0.9822,-0.9822,-0.9822,-0.9822,-0.9822,-0.9822,-0.9822,-0.9815,-0.9673,-0.9608,-0.9585,-0.9337,-0.9086,-0.8977,-0.8895,-0.8885,-0.8885,-0.8885,-0.8842,-0.8693,-0.857,-0.8414,-0.8248,-0.8126,-0.8015,-0.7988,-0.7988,-0.7988,-0.7988,-0.7988,-0.7988,-0.7988,-0.7988,-0.8825,-0.9608,-0.9608,-1.0583,-1.1512,-1.1512,-1.2571,-1.3488,-1.3488,-1.4561,-1.5439,-1.5439,-1.5635,-1.5784,-1.5784,-1.5784,-1.5698,-1.5511,-1.5224,-1.493,-1.4636,-1.4342,-1.4148,-1.4088,-1.3868,-1.3586,-1.3394,-1.3327,-1.3293,-1.3293,-1.324,-1.3213,-1.3213,-1.3213,-1.324,-1.3293,-1.3293,-1.332,-1.3387,-1.358,-1.366,-0.4918,-0.5243,-0.5589,-0.6044,-0.6034,-0.6203,0.0,0.0,-0.7018,-0.7404,-0.7695,-0.7857,-0.7904,-0.8102,-0.8272,-0.8431,-0.8584,-0.8693,-0.871,-0.8828,-0.8858,-0.8858,-0.8858,-0.8971,-0.9173,-0.9266,-0.9418,-0.9571,-0.9717,-0.9805,-0.9822,-0.9822,-0.9822,-0.9822,-0.9822,-0.9822,-0.9822,-0.9822,-0.9822,-0.9822,-0.9822,-0.9822,-0.9822,-0.9822,-0.9822,-0.9815,-0.9673,-0.9608,-0.9585,-0.9337,-0.92,-0.9173,-0.8988,-0.8885,-0.8885,-0.8885,-0.8842,-0.871,-0.8693,-0.8503,-0.832,-0.8252,-0.815,-0.7988,-0.7988,-0.7988,-0.7988,-0.7988,-0.7988,-0.7988,-0.7988,-0.8088,-0.8233,-0.8233,-0.9266,-1.0194,-1.0194,-1.1214,-1.2139,-1.2139,-1.3199,-1.4118,-1.4118,-1.5045,-1.5784,-1.5784,-1.5784,-1.5771,-1.5738,-1.5524,-1.5237,-1.4988,-1.4649,-1.4369,-1.4108,-1.4055,-1.4021,-1.3995,-1.37,-1.3553,-1.3553,-1.3347,-1.3213,-1.3213,-1.3213,-1.334,-1.3553,-1.3553,-1.3728,-1.3988,-1.4021,-1.3895,-0.5783,-0.6071,-0.6302,0.0,-0.6797,-0.7058,-0.7499,-0.7502,-0.7492,-0.7794,-0.7904,-0.7988,-0.7988,-0.8231,-0.8414,0.0,-0.8686,-0.879,-0.879,-0.8821,-0.8804,-0.8804,-0.8804,-0.8862,-0.9015,-0.9242,-0.9408,-0.9473,-0.969,-0.9822,-0.9822,-0.9822,-0.9822,-0.9822,-0.9822,-0.9822,-0.9822,-0.9822,-0.9822,-0.9822,-0.9822,-0.9822,-0.9822,-0.9822,-0.9822,-0.9819,-0.9758,-0.9686,-0.9591,-0.9374,-0.9292,-0.9193,-0.8994,-0.8885,-0.8885,-0.8885,-0.8844,-0.8828,-0.8743,-0.857,-0.8381,-0.8347,-0.8167,-0.7988,-0.7988,-0.7988,-0.7988,-0.7988,-0.7988,-0.7988,-0.7988,-0.7988,-0.7988,-0.7988,-0.8432,-0.8825,-0.8825,-0.985,-1.0779,-1.0779,-1.1848,-1.2958,-1.3776,-1.4364,-1.4949,-1.5683,-1.5784,-1.5784,-1.5784,-1.5578,-1.5217,-1.4756,-1.4596,-1.4402,-1.4115,-1.4088,-1.4088,-1.4088,-1.3968,-1.3901,-1.3901,-1.3788,-1.3721,-1.3721,-1.3721,-1.3781,-1.3901,-1.3901,-1.3968,-1.4088,-1.4088,-1.4108,-0.6257,-0.658,0.0,-0.7014,-0.7356,-0.7668,-0.7709,-0.7723,-0.778,-0.7944,-0.7988,-0.8002,-0.8096,-0.8279,-0.8452,-0.853,-0.873,-0.8838,-0.8878,-0.8808,-0.8726,-0.8767,-0.8737,-0.8771,-0.8868,-0.9167,-0.9354,-0.9439,-0.9642,-0.9781,-0.9819,-0.9822,-0.9822,-0.9822,-0.9822,-0.9822,-0.9822,-0.9822,-0.9822,-0.9822,-0.9822,-0.9822,-0.9822,-0.9822,-0.9822,-0.9822,-0.9822,-0.9764,-0.9652,-0.9459,-0.9317,-0.9255,-0.9011,-0.8885,-0.8885,-0.8885,-0.8885,-0.8868,-0.8811,-0.8672,-0.852,-0.8377,-0.8225,-0.8096,-0.8002,-0.7988,-0.7988,-0.7988,-0.7988,-0.7988,-0.7988,-0.7988,-0.7988,-0.7988,-0.7988,-0.7988,-0.7988,-0.8775,-0.946,-0.946,-1.0485,-1.1702,-1.2662,-1.3102,-1.3638,-1.4615,-1.5051,-1.5384,-1.573,-1.5578,-1.5231,-1.481,-1.4616,-1.4436,-1.4222,-1.4135,-1.4088,-1.4088,-1.4088,-1.4088,-1.4088,-1.4088,-1.4088,-1.4088,-1.4088,-1.4088,-1.4088,-1.4088,-1.4088,-1.4088,-1.4168,-1.4315,-0.6115,0.0,-0.7119,-0.7319,-0.7584,-0.7841,-0.7941,-0.7975,-0.7978,-0.7988,-0.7988,-0.8035,-0.8235,-0.8323,-0.837,-0.8659,-0.871,-0.8767,-0.8861,-0.8808,-0.8764,-0.8858,-0.8801,-0.8771,0.0,-0.9072,-0.934,-0.9581,-0.9612,-0.9676,-0.9815,-0.9822,-0.9822,-0.9822,-0.9822,-0.9822,-0.9822,-0.9822,-0.9822,-0.9822,-0.9822,-0.9822,-0.9822,-0.9822,-0.9822,-0.9822,-0.9822,-0.9819,-0.9791,-0.95,-0.9378,-0.9347,-0.9052,-0.8885,-0.8885,-0.8885,-0.8885,-0.8885,-0.8878,-0.8832,-0.8679,-0.8526,-0.8381,-0.8235,-0.8035,-0.7988,-0.7988,-0.7988,-0.7988,-0.7988,-0.7988,-0.7988,-0.7988,-0.7988,-0.7988,-0.7988,-0.7988,-0.8038,-0.8038,-0.8038,-0.9167,-1.0047,-1.0096,-1.1121,-1.1945,-1.1994,-1.3102,-1.4411,-1.5635,-1.5578,-1.5391,-1.5371,-1.4856,-1.4516,-1.4509,-1.4249,-1.4088,-1.4088,-1.4088,-1.4088,-1.4088,-1.4088,-1.4088,-1.4088,-1.4088,-1.4088,-1.4088,-1.4088,-1.4088,-1.4095,-1.4376,-1.4466,-0.6647,0.0,-0.7478,-0.7628,-0.7814,-0.7928,-0.7978,-0.7988,-0.7988,-0.7988,-0.7911,-0.7933,-0.8089,-0.8116,-0.8214,-0.8513,-0.8645,-0.8764,-0.8861,-0.8841,-0.879,-0.8794,-0.8832,0.0,0.0,0.0,0.0,-0.9442,-0.9551,-0.9673,-0.9815,-0.9822,-0.9869,-0.9906,-0.9873,-0.9869,-0.9909,-0.9873,-0.9822,-0.9822,-0.9822,-0.9822,-0.9822,-0.9822,-0.9822,-0.9822,-0.9822,-0.9822,-0.9805,-0.9612,-0.9473,-0.9361,-0.9161,-0.9022,-0.8885,-0.8885,-0.8885,-0.8885,-0.8885,-0.8838,-0.8686,-0.853,-0.8387,-0.8241,-0.8085,-0.7988,-0.7988,-0.7988,-0.7988,-0.7988,-0.7988,-0.7988,-0.7988,-0.7988,-0.7988,-0.7988,-0.7988,-0.7988,-0.7988,-0.7988,-0.8382,-0.897,-0.9854,-1.0342,-1.0925,-1.175,-1.3054,-1.4364,-1.5635,-1.5745,-1.5611,-1.5418,-1.5224,-1.4943,-1.4506,-1.4429,-1.4295,-1.4095,-1.4088,-1.4088,-1.4088,-1.4088,-1.4088,-1.4088,-1.4088,-1.4088,-1.4088,-1.4088,-1.4182,-1.4376,-1.4476,-1.473,-0.717,-0.7448,-0.7648,-0.7845,-0.7917,-0.7988,-0.7988,-0.7988,-0.7975,-0.7921,-0.7838,-0.7767,-0.7865,-0.7838,-0.7933,-0.834,-0.853,-0.872,-0.8977,-0.9015,-0.9001,-0.8957,-0.8988,-0.8998,0.0,0.0,0.0,-0.9374,-0.9523,-0.9696,-0.989,-0.99,-0.9971,-1.0127,-1.0036,-1.0005,-0.9987,-0.9889,-0.9876,-0.9822,-0.9822,-0.9822,-0.9822,-0.9822,-0.9822,-0.9822,-0.9822,-0.9822,-0.9812,-0.9666,-0.952,-0.9364,-0.9268,-0.9066,-0.8885,-0.8885,-0.8885,-0.8885,-0.8885,-0.8817,-0.8757,-0.855,-0.8421,-0.8306,-0.8052,-0.7988,-0.7988,-0.7988,-0.7988,-0.7988,-0.7988,-0.7988,-0.7988,-0.7988,-0.7988,-0.7988,-0.7988,-0.7988,-0.7988,-0.7988,-0.7988,-0.8283,-0.9118,-0.9266,-0.9702,-1.1023,-1.194,-1.3151,-1.4902,-1.5534,-1.5711,-1.5571,-1.5458,-1.5244,-1.4863,-1.4736,-1.4603,-1.4409,-1.4302,-1.4242,-1.4242,-1.4142,-1.4088,-1.4088,-1.4088,-1.4135,-1.4242,-1.4242,-1.4389,-1.4683,-1.4783,-1.5037,-0.7519,-0.7611,-0.7689,-0.7921,-0.7988,-0.7988,-0.7988,-0.7985,-0.7931,-0.7821,-0.7675,-0.757,-0.7556,0.0,-0.761,-0.8204,-0.8384,-0.8648,-0.9146,-0.9224,-0.9282,0.0,0.0,0.0,0.0,0.0,0.0,-0.9401,0.0,-0.9747,-0.997,-0.9994,-1.0131,-1.0287,-1.0283,-1.0212,-1.0011,-0.9994,-0.9909,-0.9822,-0.9822,-0.9822,-0.9822,-0.9822,-0.9822,-0.9822,-0.9822,-0.9822,-0.9812,-0.9676,-0.9527,-0.9367,-0.9279,-0.9072,-0.8885,-0.8885,-0.8885,-0.8885,-0.8885,-0.8885,-0.8834,-0.8591,-0.8489,-0.8428,-0.814,-0.7995,-0.7988,-0.7988,-0.7988,-0.7988,-0.7988,-0.7988,-0.7988,-0.7988,-0.7988,-0.7988,-0.7988,-0.7988,-0.7988,-0.7988,-0.7988,-0.7988,-0.7988,-0.7988,-0.8432,-0.9702,-0.9948,-1.0921,-1.3584,-1.4949,-1.573,-1.5778,-1.5585,-1.5411,-1.5398,-1.5189,-1.5022,-1.5008,-1.4696,-1.4543,-1.4543,-1.4282,-1.4135,-1.4135,-1.4135,-1.4269,-1.4543,-1.4543,-1.4696,-1.5035,-1.5264,-1.5404,-0.7546,-0.776,-0.7897,-0.7971,-0.7988,-0.7988,-0.7988,-0.7901,-0.7794,-0.7536,-0.7363,-0.7146,-0.697,0.0,0.0,-0.7868,-0.8336,0.0,-0.9163,-0.9351,0.0,-0.9391,0.0,-0.9462,-0.9388,-0.9486,0.0,0.0,-0.9744,-0.9849,-0.9977,-1.0158,-1.029,-1.0432,-1.0334,-1.031,-1.0378,-1.0095,-0.9909,-0.9822,-0.9822,-0.9822,-0.9822,-0.9822,-0.9822,-0.9822,-0.9822,-0.9822,-0.9819,-0.9781,-0.9615,-0.9378,-0.934,-0.9164,-0.8885,-0.8885,-0.8885,-0.8885,-0.8885,-0.8885,-0.8851,-0.8713,-0.8574,-0.8448,-0.8265,-0.8133,-0.7988,-0.7988,-0.7988,-0.7988,-0.7988,-0.7988,-0.7988,-0.7988,-0.7988,-0.7988,-0.7988,-0.7988,-0.7988,-0.7988,-0.7988,-0.7988,-0.7988,-0.7988,-0.8137,-0.8482,-0.9361,-1.0921,-1.3584,-1.4166,-1.4752,-1.5683,-1.5718,-1.5631,-1.5418,-1.5331,-1.5197,-1.5022,-1.4941,-1.485,-1.485,-1.4827,-1.4787,-1.4787,-1.4787,-1.4821,-1.485,-1.485,-1.5003,-1.5291,-1.5357,-1.5511,-0.775,-0.7864,-0.7988,-0.7988,-0.7988,-0.7938,-0.779,-0.7678,-0.7478,-0.703,-0.6817,0.0,-0.6363,-0.6729,0.0,0.0,0.0,0.0,-0.9159,-0.9415,-0.9602,0.0,-0.9649,0.0,-0.9676,-0.9751,-0.9863,0.0,-0.9961,-0.9953,-1.0232,-1.0327,-1.0439,-1.0585,-1.0514,-1.0449,-1.0399,-1.0164,-0.9909,-0.9822,-0.9822,-0.9822,-0.9822,-0.9822,-0.9822,-0.9822,0.0,-0.9822,-0.9822,-0.9822,-0.9646,-0.9381,-0.9381,-0.9201,-0.8885,-0.8885,-0.8885,-0.8885,-0.8885,-0.8885,-0.8858,-0.876,-0.8608,-0.8455,-0.8364,-0.8163,-0.7988,-0.7988,-0.7988,-0.7988,-0.7988,-0.7988,-0.7988,-0.7988,-0.7988,-0.7988,-0.7988,-0.7988,-0.7988,-0.7988,-0.7988,-0.7988,-0.7988,-0.7988,-0.7988,-0.7988,-0.8627,-0.985,-1.1935,-1.3199,-1.4411,-1.5683,-1.5784,-1.5718,-1.5605,-1.5585,-1.5518,-1.5351,-1.5224,-1.5202,-1.5202,-1.5075,-1.5008,-1.5008,-1.5008,-1.5068,-1.5202,-1.5202,-1.5304,-1.5585,-1.5585,-1.5671,-0.7955,-0.7988,-0.7988,-0.7988,-0.7975,-0.7896,-0.7468,-0.7371,-0.7122,-0.6388,0.0,-0.6115,-0.5769,-0.622,-0.6746,-0.7018,0.0,-0.8594,-0.9139,-0.9398,-0.9639,-0.9802,-0.9822,-0.988,-0.9974,-0.9987,-1.0058,-1.0297,-1.0185,-1.0222,-1.0477,-1.051,-1.0575,-1.0687,-1.069,-1.0548,-1.0253,-1.0117,-0.9909,-0.9822,-0.9822,-0.9822,-0.9822,-0.9822,-0.9822,-0.9822,0.0,0.0,-0.9822,-0.9822,-0.9646,-0.9381,-0.9381,-0.9201,-0.8885,-0.8885,-0.8885,-0.8885,-0.8885,-0.8885,-0.8861,-0.8784,-0.8635,-0.8486,-0.8343,-0.8191,-0.8015,-0.7995,-0.7988,-0.7988,-0.7988,-0.7988,-0.7988,-0.7988,-0.7988,-0.7988,-0.7988,-0.7988,-0.7988,-0.7988,-0.7988,-0.7988,-0.7988,-0.7988,-0.7988,-0.7988,-0.7988,-0.8482,-0.985,-1.1984,-1.3878,-1.5146,-1.5296,-1.5296,-1.5296,-1.5439,-1.554,-1.554,-1.5498,-1.5451,-1.5451,-1.5211,-1.5122,-1.5122,-1.5122,-1.5204,-1.5451,-1.5451,-1.5585,-1.5784,-1.5784,-1.5784,-0.7982,-0.7988,-0.7988,-0.7988,-0.7894,-0.7767,-0.7444,-0.7085,0.0,0.0,-0.5786,-0.5613,-0.5272,-0.5844,-0.6474,-0.6856,0.0,0.0,0.0,0.0,-0.952,0.0,0.0,0.0,0.0,0.0,0.0,0.0,0.0,0.0,-1.0487,-1.0612,-1.0633,-1.0534,-1.0531,-1.0388,-1.0031,-1.0,-0.9909,-0.9822,-0.9822,-0.9822,-0.9822,-0.9822,-0.9822,-0.9822,0.0,0.0,-0.9822,-0.9822,-0.9646,-0.9381,-0.9381,-0.9201,-0.8885,-0.8885,-0.8885,-0.8885,-0.8885,-0.8885,-0.8878,-0.8851,-0.8794,-0.8642,-0.8489,-0.8343,-0.8204,-0.8025,-0.7988,-0.7988,-0.7988,-0.7988,-0.7988,-0.7988,-0.7988,-0.7988,-0.7988,-0.7988,-0.7988,-0.7988,-0.7988,-0.7988,-0.7988,-0.7988,-0.7988,-0.7988,-0.7988,-0.8482,-0.985,-1.0386,-1.1165,-1.2431,-1.2576,-1.2576,-1.2576,-1.359,-1.4214,-1.4214,-1.5149,-1.5752,-1.5752,-1.5705,-1.5678,-1.5678,-1.5678,-1.5705,-1.5752,-1.5752,-1.5731,-1.5784,-1.5784,-1.5784,-0.7789,-0.7988,-0.7988,-0.7988,-0.7923,-0.7672,-0.7143,0.0,0.0,0.0,-0.5287,-0.5148,-0.484,-0.546,0.0,0.0,0.0,0.0,0.0,0.0,0.0,0.0,0.0,0.0,0.0,0.0,0.0,0.0,0.0,0.0,-1.049,-1.049,-1.046,-1.0385,-1.0382,-1.0273,-0.9987,-0.9987,-0.9909,-0.9822,-0.9822,-0.9822,-0.9822,-0.9822,-0.9822,-0.9822,0.0,0.0,-0.9822,-0.9822,-0.9646,-0.9381,-0.9381,-0.9201,-0.8885,-0.8885,-0.8885,-0.8885,-0.8885,-0.8885,-0.8885,-0.8885,-0.8835,-0.8682,-0.8526,-0.8384,-0.8238,-0.8032,-0.7988,-0.7988,-0.7988,-0.7988,-0.7988,-0.7988,-0.7988,-0.7988,-0.7988,-0.7988,-0.7988,-0.7988,-0.7988,-0.7988,-0.7988,-0.7988,-0.7988,-0.7988,-0.7988,-0.8233,-0.8871,-0.897,-0.9702,-1.1702,-1.1896,-1.1896,-1.1896,-1.2474,-1.2861,-1.2861,-1.4076,-1.48,-1.48,-1.5439,-1.5784,-1.5784,-1.5784,-1.5784,-1.5784,-1.5784,-1.5784,-1.5784,-1.5784,-1.5784,-0.7226,-0.7587,-0.7637,-0.7939,-0.7875,-0.7539,-0.6854,-0.6396,0.0,0.0,-0.4867,-0.4758,-0.458,0.0,-0.5664,0.0,-0.6495,0.0,0.0,0.0,0.0,0.0,0.0,0.0,0.0,0.0,0.0,0.0,0.0,0.0,0.0,-1.0341,-1.0263,-1.0232,-1.0232,-1.0158,-0.994,-0.9936,-0.9879,-0.9822,-0.9822,-0.9822,-0.9822,-0.9822,-0.9822,-0.9822,0.0,0.0,0.0,-0.9788,-0.9622,-0.9378,-0.9344,-0.9171,-0.8885,-0.8885,-0.8885,-0.8885,-0.8885,-0.8885,-0.8885,-0.8885,-0.8835,-0.8682,-0.8526,-0.8384,-0.8238,-0.8032,-0.7988,-0.7988,-0.7988,-0.7988,-0.7988,-0.7988,-0.7988,-0.7988,-0.7988,-0.7988,-0.7988,-0.7988,-0.7988,-0.7988,-0.7988,-0.7988,-0.7988,-0.7988,-0.7988,-0.7988,-0.7988,-0.7988,-0.8775,-1.0823,-1.1068,-1.1068,-1.1068,-1.1312,-1.1512,-1.1512,-1.2716,-1.3488,-1.3488,-1.4418,-1.4956,-1.4956,-1.4956,-1.4956,-1.4956,-1.5242,-1.5391,-1.5391,-1.5683,-1.5784,-0.5802,-0.6179,-0.6481,-0.7686,-0.7723,-0.7285,-0.681,0.0,0.0,-0.502,-0.4697,-0.4566,-0.4679,-0.485,-0.5191,-0.5861,0.0,-0.6985,0.0,0.0,0.0,0.0,0.0,0.0,0.0,0.0,0.0,0.0,0.0,0.0,0.0,-1.0287,-1.0215,-1.0011,-1.0007,-0.9933,-0.9842,-0.9842,-0.9836,-0.9822,-0.9822,-0.9822,-0.9822,-0.9822,-0.9822,-0.9822,0.0,0.0,0.0,-0.9683,-0.953,-0.9367,-0.9286,-0.9079,-0.8885,-0.8885,-0.8885,-0.8885,-0.8885,-0.8885,-0.8885,-0.8885,-0.8835,-0.8682,-0.8526,-0.8384,-0.8238,-0.8032,-0.7988,-0.7988,-0.7988,-0.7988,-0.7988,-0.7988,-0.7988,-0.7988,-0.7988,-0.7988,-0.7988,-0.7988,-0.7988,-0.7988,-0.7988,-0.7988,-0.7988,-0.7988,-0.7988,-0.7988,-0.7988,-0.7988,-0.8088,-0.8333,-0.8382,-0.8382,-0.8382,-0.946,-1.0194,-1.0194,-1.1361,-1.2091,-1.2091,-1.2188,-1.2237,-1.2237,-1.2237,-1.2237,-1.2237,-1.3494,-1.407,-1.4118,-1.5242,-1.5784,-0.4426,-0.4781,-0.5122,-0.6478,-0.6016,-0.5345,-0.5822,0.0,-0.3888,-0.3537,-0.3651,-0.3836,-0.3857,-0.4355,-0.4969,-0.5535,-0.5803,-0.6298,-0.7319,0.0,0.0,0.0,0.0,0.0,0.0,0.0,0.0,0.0,0.0,0.0,0.0,-1.0005,-0.9975,-0.9852,-0.9852,-0.9883,-0.9822,-0.9822,-0.9822,-0.9822,-0.9822,-0.9822,-0.9822,-0.9822,-0.9822,-0.9822,0.0,0.0,0.0,-0.9666,-0.952,-0.9364,-0.9268,-0.9066,-0.8885,-0.8885,-0.8885,-0.8885,-0.8885,-0.8885,-0.8885,-0.8885,-0.8835,-0.8682,-0.8526,-0.8442,-0.8347,-0.8056,-0.7988,-0.7988,-0.7988,-0.7988,-0.7988,-0.7988,-0.7988,-0.7988,-0.7988,-0.7988,-0.7988,-0.7988,-0.7988,-0.7988,-0.7988,-0.7988,-0.7988,-0.7988,-0.7988,-0.7988,-0.7988,-0.7988,-0.7988,-0.7988,-0.7988,-0.7988,-0.7988,-0.8482,-0.8775,-0.8775,-1.0047,-1.0779,-1.0779,-1.1512,-1.1896,-1.1896,-1.1896,-1.2285,-1.3102,-1.3632,-1.4268,-1.5051,-1.5581,-1.5784,-0.3026,-0.3391,-0.3735,-0.5083,-0.4581,-0.3944,0.0,-0.3761,-0.2762,-0.2533,-0.2785,-0.3093,-0.3259,-0.3897,-0.4581,-0.5194,-0.5494,-0.5966,-0.6822,-0.738,0.0,0.0,0.0,0.0,0.0,0.0,0.0,0.0,0.0,0.0,0.0,0.0,-0.9822,-0.9822,-0.9822,-0.9822,-0.9822,-0.9822,-0.9822,-0.9822,-0.9822,-0.9822,-0.9822,-0.9822,-0.9822,0.0,0.0,0.0,0.0,-0.9554,-0.9412,-0.93,-0.9147,-0.9028,-0.8885,-0.8885,-0.8885,-0.8885,-0.8885,-0.8885,-0.8885,-0.8885,-0.8811,-0.874,-0.854,-0.8452,-0.8367,-0.8059,-0.7988,-0.7988,-0.7988,-0.7988,-0.7988,-0.7988,-0.7988,-0.7988,-0.7988,-0.7988,-0.7988,-0.7988,-0.7988,-0.7988,-0.7988,-0.7988,-0.7988,-0.7988,-0.7988,-0.7988,-0.7988,-0.7988,-0.7988,-0.7988,-0.7988,-0.7988,-0.7988,-0.7988,-0.7988,-0.7988,-0.8874,-0.941,-0.941,-1.0288,-1.073,-1.073,-1.073,-1.1209,-1.2173,-1.2565,-1.3392,-1.4663,-1.5045,-1.5439,-0.1678,-0.2026,-0.2348,-0.3668,-0.3786,-0.3537,-0.3354,-0.3002,-0.2647,-0.2543,-0.2341,-0.2426,-0.3176,-0.3468,-0.3949,-0.4927,-0.5508,-0.6112,-0.6967,-0.7526,0.0,0.0,0.0,0.0,0.0,0.0,0.0,0.0,0.0,0.0,0.0,0.0,-0.9822,-0.9822,-0.9822,-0.9822,-0.9822,-0.9822,-0.9822,-0.9822,-0.9822,-0.9822,-0.9822,-0.9822,0.0,0.0,0.0,0.0,0.0,-0.934,-0.9214,-0.9197,-0.8998,-0.8885,-0.8885,-0.8885,-0.8885,-0.8885,-0.8885,-0.8885,-0.8885,-0.8885,-0.8881,-0.8824,-0.8574,-0.8384,-0.8241,-0.8032,-0.7988,-0.7988,-0.7988,-0.7988,-0.7988,-0.7988,-0.7988,-0.7988,-0.7988,-0.7988,-0.7988,-0.7988,-0.7988,-0.7988,-0.7988,-0.7988,-0.7988,-0.7988,-0.7988,-0.7988,-0.7988,-0.7988,-0.7988,-0.7988,-0.7988,-0.7988,-0.7988,-0.7988,-0.7988,-0.7988,-0.7988,-0.8038,-0.8038,-0.8038,-0.8038,-0.8038,-0.8038,-0.8038,-0.8088,-0.941,-1.0681,-1.1945,-1.3295,-1.4609,-0.0538,-0.0639,-0.0948,-0.2288,-0.189,-0.1376,-0.2209,-0.1615,-0.0832,-0.0806,-0.1144,-0.1507,-0.1758,-0.2671,-0.372,-0.4685,-0.5387,-0.6115,0.0,0.0,0.0,0.0,0.0,0.0,0.0,0.0,0.0,0.0,0.0,0.0,0.0,0.0,-0.9822,-0.9822,-0.9822,-0.9822,-0.9822,-0.9822,-0.9822,-0.9822,-0.9822,-0.9822,-0.9822,-0.9822,0.0,0.0,0.0,0.0,0.0,-0.9292,-0.921,-0.9193,-0.8994,-0.8885,-0.8885,-0.8885,-0.8885,-0.8885,-0.8885,-0.8885,-0.8885,-0.8885,-0.8885,-0.8824,-0.8574,-0.8452,-0.836,-0.8059,-0.7988,-0.7988,-0.7988,-0.7988,-0.7988,-0.7988,-0.7988,-0.7988,-0.7988,-0.7988,-0.7988,-0.7988,-0.7988,-0.7988,-0.7988,-0.7988,-0.7988,-0.7988,-0.7988,-0.7988,-0.7988,-0.7988,-0.7988,-0.7988,-0.7988,-0.7988,-0.7988,-0.7988,-0.7988,-0.7988,-0.7988,-0.7988,-0.7988,-0.7988,-0.7988,-0.7988,-0.7988,-0.8432,-0.9361,-0.9801,-1.0632,-1.1945,-1.3295,-1.4118,0.0,0.0,-0.0197,-0.1047,-0.0607,-0.022,-0.1068,-0.059,0.0,0.0,-0.0369,-0.0783,-0.1062,-0.188,-0.2949,-0.4167,-0.4953,0.0,0.0,0.0,0.0,0.0,0.0,0.0,0.0,0.0,0.0,0.0,0.0,0.0,0.0,0.0,-0.9822,-0.9822,-0.9822,-0.9822,-0.9822,-0.9822,-0.9822,-0.9822,-0.9822,-0.9451,-0.8894,0.0,0.0,0.0,0.0,0.0,0.0,-0.9133,-0.9072,-0.9062,-0.8974,-0.8885,-0.8885,-0.8885,-0.8885,-0.8885,-0.8885,-0.8885,-0.8885,-0.8885,-0.8807,-0.873,-0.854,-0.8404,-0.8275,-0.8042,-0.7988,-0.7988,-0.7988,-0.7988,-0.7988,-0.7988,-0.7988,-0.7988,-0.7988,-0.7988,-0.7988,-0.7988,-0.7988,-0.7988,-0.7988,-0.7988,-0.7988,-0.7988,-0.7988,-0.7988,-0.7988,-0.7988,-0.7988,-0.7988,-0.7988,-0.7988,-0.7988,-0.7988,-0.7988,-0.7988,-0.7988,-0.7988,-0.7988,-0.7988,-0.7988,-0.7988,-0.7988,-0.8432,-0.9266,-0.9752,-1.0386,-1.1214,-1.2522,-1.3445,0.0,0.0,0.0,0.0,0.0,0.0,0.0,0.0,0.0,0.0,0.0,-0.0197,-0.0903,-0.1155,-0.1824,-0.3417,-0.4281,0.0,0.0,0.0,0.0,0.0,0.0,0.0,0.0,0.0,0.0,0.0,0.0,0.0,0.0,0.0,0.0,-0.9822,-0.9822,-0.9822,-0.9822,-0.9697,-0.9636,-0.9636,-0.9505,-0.8699,-0.7284,0.0,0.0,0.0,0.0,0.0,0.0,-0.8657,-0.8602,-0.8602,-0.8602,-0.8602,-0.8602,-0.8602,-0.8602,-0.8602,-0.8602,-0.8657,-0.8771,-0.8881,-0.873,-0.8482,-0.8482,-0.8275,-0.7988,-0.7988,-0.7988,-0.7988,-0.7988,-0.7988,-0.7988,-0.7988,-0.7988,-0.7988,-0.7988,-0.7988,-0.7988,-0.7988,-0.7988,-0.7988,-0.7988,-0.7988,-0.7988,-0.7988,-0.7988,-0.7988,-0.7988,-0.7988,-0.7988,-0.7988,-0.7988,-0.7988,-0.7988,-0.7988,-0.7988,-0.7988,-0.7988,-0.7988,-0.7988,-0.7988,-0.7988,-0.7988,-0.7988,-0.7988,-0.7988,-0.9266,-0.9854,-0.9899,-1.1165,-1.2431,0.0,0.0,0.0,0.0,0.0,0.0,0.0,0.0,0.0,0.0,0.0,-0.0057,-0.0216,-0.0744,-0.1425,-0.228,0.0,0.0,0.0,0.0,0.0,0.0,0.0,0.0,0.0,0.0,0.0,0.0,0.0,0.0,0.0,0.0,0.0,-0.9822,-0.9822,-0.9822,-0.9822,-0.859,-0.7972,-0.7972,-0.667,-0.5852,-0.5487,0.0,0.0,0.0,0.0,0.0,-0.5616,-0.5539,-0.553,-0.553,-0.553,-0.553,-0.553,-0.553,-0.553,-0.553,-0.553,-0.6255,-0.7426,-0.8546,-0.873,-0.8482,-0.8482,-0.8275,-0.7988,-0.7988,-0.7988,-0.7988,-0.7988,-0.7988,-0.7988,-0.7988,-0.7988,-0.7988,-0.7988,-0.7988,-0.7988,-0.7988,-0.7988,-0.7988,-0.7988,-0.7988,-0.7988,-0.7988,-0.7988,-0.7988,-0.7988,-0.7988,-0.7988,-0.7988,-0.7988,-0.7988,-0.7988,-0.7988,-0.7988,-0.7988,-0.7988,-0.7988,-0.7988,-0.7988,-0.7988,-0.7988,-0.7988,-0.7988,-0.7988,-0.8333,-0.8482,-0.8478,-0.985,-1.0632,0.0,0.0,0.0,0.0,0.0,0.0,0.0,0.0,0.0,0.0,0.0,0.0,0.0,-0.0323,-0.0821,0.0,0.0,0.0,0.0,0.0,0.0,0.0,0.0,0.0,0.0,0.0,0.0,0.0,0.0,0.0,0.0,0.0,0.0,0.0,-0.7962,-0.7924,-0.8708,-0.785,-0.703,-0.6254,-0.5363,-0.4487,-0.3801,0.0,0.0,0.0,0.0,0.0,-0.4526,-0.4526,-0.4526,-0.4526,-0.4526,-0.4526,-0.4526,-0.4526,-0.4526,-0.4526,-0.4526,-0.5027,-0.5802,-0.6641,-0.6721,-0.6666,-0.7296,-0.7292,-0.7235,-0.7839,-0.7988,-0.7988,-0.7988,-0.7988,-0.7988,-0.7988,-0.7988,-0.7988,-0.7988,-0.7988,-0.7988,-0.7988,-0.7988,-0.7988,-0.7988,-0.7988,-0.7988,-0.7988,-0.7988,-0.7988,-0.7988,-0.7988,-0.7988,-0.7988,-0.7988,-0.7988,-0.7988,-0.7988,-0.7988,-0.7988,-0.7988,-0.7988,-0.7988,-0.7988,-0.7988,-0.7988,-0.7988,-0.7988,-0.7988,-0.7988,-0.7988,-0.8041,-0.8726,-0.941,0.0,0.0,0.0,0.0,0.0,0.0,0.0,0.0,0.0,0.0,0.0,0.0,0.0,0.0,0.0,0.0,0.0,0.0,0.0,0.0,0.0,0.0,0.0,0.0,0.0,0.0,0.0,0.0,0.0,0.0,0.0,0.0,0.0,0.0,-0.5667,-0.5461,-0.6638,-0.664,-0.5933,-0.4548,-0.4298,-0.3437,-0.2165,-0.339,0.0,0.0,0.0,0.0,-0.3801,-0.3801,-0.3801,-0.3801,-0.3801,-0.3801,-0.3801,-0.3801,-0.3801,-0.3857,-0.408,-0.4128,-0.4166,-0.4435,-0.4352,-0.4423,-0.5597,-0.6012,-0.6232,-0.7385,-0.7839,-0.7988,-0.7988,-0.7988,-0.7988,-0.7988,-0.7988,-0.7988,-0.7988,-0.7988,-0.7988,-0.7988,-0.7988,-0.7988,-0.7988,-0.7988,-0.7988,-0.7988,-0.7988,-0.7988,-0.7988,-0.7988,-0.7988,-0.7988,-0.7988,-0.7988,-0.7988,-0.7988,-0.7988,-0.7988,-0.7988,-0.7988,-0.7988,-0.7988,-0.7988,-0.7988,-0.7988,-0.7988,-0.7988,-0.7988,-0.7988,-0.7988,-0.7988,-0.8627,0.0,0.0,0.0,0.0,0.0,0.0,0.0,0.0,0.0,0.0,0.0,0.0,0.0,0.0,-0.004,0.0,0.0,0.0,0.0,0.0,0.0,0.0,0.0,0.0,0.0,0.0,0.0,0.0,0.0,0.0,0.0,0.0,0.0,0.0,0.0,-0.435,-0.3251,-0.3251,-0.3129,-0.2828,-0.1455,-0.0636,-0.0403,-0.0623,-0.0562,0.0,0.0,0.0,-0.0672,-0.0672,-0.0672,-0.0672,-0.0672,-0.0672,-0.0672,-0.0672,-0.0672,-0.0896,-0.2125,-0.2548,-0.2792,-0.4089,-0.4369,-0.4248,-0.4442,-0.5198,-0.6029,-0.6232,-0.7135,-0.7988,-0.7988,-0.7988,-0.7988,-0.7988,-0.7988,-0.7988,-0.7988,-0.7988,-0.7988,-0.7988,-0.7988,-0.7988,-0.7988,-0.7988,-0.7988,-0.7988,-0.7988,-0.7988,-0.7988,-0.7988,-0.7988,-0.7988,-0.7988,-0.7988,-0.7988,-0.7988,-0.7988,-0.7988,-0.7988,-0.7988,-0.7988,-0.7988,-0.7988,-0.7988,-0.7988,-0.7988,-0.7988,-0.7988,-0.7988,-0.7988,-0.7988,-0.8088,0.0,0.0,0.0,0.0,0.0,0.0,0.0,0.0,0.0,0.0,0.0,0.0,0.0,0.0,0.0,0.0,0.0,0.0,0.0,0.0,0.0,0.0,0.0,0.0,0.0,0.0,0.0,0.0,0.0,0.0,0.0,0.0,0.0,0.0,0.0,0.0,-0.1146,-0.1146,-0.1151,-0.1161,-0.0346,0.0,0.0,0.0,0.0,0.0,0.0,0.0,0.0,0.0,0.0,0.0,0.0,0.0,0.0,0.0,0.0,-0.0112,-0.0776,-0.099,-0.1144,-0.1816,-0.2517,-0.3147,-0.3877,-0.5006,-0.6129,-0.6883,-0.7537,-0.7988,-0.7988,-0.7988,-0.7988,-0.7988,-0.7988,-0.7988,-0.7988,-0.7988,-0.7988,-0.7988,-0.7988,-0.7988,-0.7988,-0.7988,-0.7988,-0.7988,-0.7988,-0.7988,-0.7988,-0.7988,-0.7988,-0.7988,-0.7988,-0.7988,-0.7988,-0.7988,-0.7988,-0.7988,-0.7988,-0.7988,-0.7988,-0.7988,-0.7988,-0.7988,-0.7988,-0.7988,-0.7988,-0.7988,-0.7988,-0.7988,-0.7988,-0.7988,0.0,0.0,0.0,0.0,0.0,0.0,0.0,0.0,0.0,0.0,0.0,0.0,0.0,0.0,0.0,0.0,0.0,0.0,0.0,0.0,0.0,0.0,0.0,0.0,0.0,0.0,0.0,0.0,0.0,0.0,0.0,0.0,0.0,0.0,0.0,0.0,0.0,0.0,0.0,0.0,0.0,0.0,0.0,0.0,0.0,0.0,0.0,0.0,0.0,0.0,0.0,0.0,0.0,0.0,0.0,0.0,0.0,0.0,0.0,0.0,0.0,0.0,-0.0672,-0.1744,-0.2777,-0.4019,-0.5275,-0.6329,-0.703,-0.7587,-0.7939,-0.7988,-0.7988,-0.7988,-0.7988,-0.7988,-0.7988,-0.7988,-0.7988,-0.7988,-0.7988,-0.7988,-0.7988,-0.7988,-0.7988,-0.7988,-0.7988,-0.7988,-0.7988,-0.7988,-0.7988,-0.7988,-0.7988,-0.7988,-0.7988,-0.7988,-0.7988,-0.7988,-0.7988,-0.7988,-0.7988,-0.7988,-0.7988,-0.7988,-0.7988,-0.7988,-0.7988,-0.7988,-0.7988,-0.7988,-0.7988,-0.7988,0.0,0.0,0.0,0.0,0.0,0.0,0.0,0.0,0.0,0.0,0.0,0.0,0.0,0.0,0.0,0.0,0.0,0.0,0.0,0.0,0.0,0.0,0.0,0.0,0.0,0.0,0.0,0.0,0.0,0.0,0.0,0.0,0.0,0.0,0.0,0.0,0.0,0.0,0.0,0.0,0.0,0.0,0.0,0.0,0.0,0.0,0.0,0.0,0.0,0.0,0.0,0.0,0.0,0.0,0.0,0.0,0.0,0.0,0.0,0.0,0.0,0.0,-0.0051,-0.0152,-0.0252,-0.1209,-0.2314,-0.2414,-0.4221,-0.6431,-0.7686,-0.7988,-0.7988,-0.7988,-0.7988,-0.7988,-0.7988,-0.7988,-0.7988,-0.7988,-0.7988,-0.7988,-0.7988,-0.7988,-0.7988,-0.7988,-0.7988,-0.7988,-0.7988,-0.7988,-0.7988,-0.7988,-0.7988,-0.7988,-0.7988,-0.7988,-0.7988,-0.7988,-0.7988,-0.7988,-0.7988,-0.7988,-0.7988,-0.7988,-0.7988,-0.7988,-0.7988,-0.7988,-0.7988,-0.7988,-0.7988,-0.7988,0.0,0.0,0.0,0.0,0.0,0.0,0.0,0.0,0.0,0.0,0.0,0.0,0.0,0.0,0.0,0.0,0.0,0.0,0.0,0.0,0.0,0.0,0.0,0.0,0.0,0.0,0.0,0.0,0.0,0.0,0.0,0.0,0.0,0.0,0.0,0.0,0.0,0.0,0.0,0.0,0.0,0.0,0.0,0.0,0.0,0.0,0.0,0.0,0.0,0.0,0.0,0.0,0.0,0.0,0.0,0.0,0.0,0.0,0.0,0.0,0.0,0.0,-0.0558,-0.126,-0.126,-0.2163,-0.3265,-0.3265,-0.3967,-0.507,-0.6429,-0.7385,-0.7988,-0.7988,-0.7988,-0.7988,-0.7988,-0.7988,-0.7988,-0.7988,-0.7988,-0.7988,-0.7988,-0.7988,-0.7988,-0.7988,-0.7988,-0.7988,-0.7988,-0.7988,-0.7988,-0.7988,-0.7988,-0.7988,-0.7988,-0.7988,-0.7988,-0.7988,-0.7988,-0.7988,-0.7988,-0.7988,-0.7988,-0.7988,-0.7988,-0.7988,-0.7988,-0.7988,-0.7988,-0.7988,-0.7988,-0.7988,0.0,0.0,0.0,0.0,0.0,0.0,0.0,0.0,0.0,0.0,0.0,0.0,0.0,0.0,0.0,0.0,0.0,0.0,0.0,0.0,0.0,0.0,0.0,0.0,0.0,0.0,0.0,0.0,0.0,0.0,0.0,0.0,0.0,0.0,0.0,0.0,0.0,0.0,0.0,0.0,0.0,0.0,0.0,0.0,0.0,0.0,0.0,0.0,0.0,0.0,0.0,0.0,0.0,0.0,0.0,0.0,0.0,0.0,0.0,0.0,0.0,0.0,-0.0605,-0.136,-0.136,-0.2013,-0.2715,-0.2715,-0.3065,-0.3566,-0.4522,-0.5724,-0.6728,-0.6728,-0.6728,-0.6828,-0.7285,-0.7385,-0.7487,-0.7939,-0.7988,-0.7988,-0.7988,-0.7988,-0.7988,-0.7988,-0.7988,-0.7988,-0.7988,-0.7988,-0.7988,-0.7988,-0.7988,-0.7988,-0.7988,-0.7988,-0.7988,-0.7988,-0.7988,-0.7988,-0.7988,-0.7988,-0.7988,-0.7988,-0.7988,-0.7988,-0.7988,-0.7988,-0.7988,-0.7988,-0.7988,-0.7988,0.0,0.0,0.0,0.0,0.0,0.0,0.0,0.0,0.0,0.0,0.0,0.0,0.0,0.0,0.0,0.0,0.0,0.0,0.0,0.0,0.0,0.0,0.0,0.0,0.0,0.0,0.0,0.0,0.0,0.0,0.0,0.0,0.0,0.0,0.0,0.0,0.0,0.0,0.0,0.0,0.0,0.0,0.0,0.0,0.0,0.0,0.0,0.0,0.0,0.0,0.0,0.0,0.0,0.0,0.0,0.0,0.0,0.0,0.0,0.0,0.0,0.0,0.0,0.0,0.0,0.0,0.0,0.0,-0.0958,-0.1962,-0.1962,-0.2964,-0.3966,-0.4016,-0.4016,-0.4368,-0.5677,-0.5979,-0.6381,-0.7686,-0.7939,-0.7988,-0.7988,-0.7988,-0.7988,-0.7988,-0.7988,-0.7988,-0.7988,-0.7988,-0.7988,-0.7988,-0.7988,-0.7988,-0.7988,-0.7988,-0.7988,-0.7988,-0.7988,-0.7988,-0.7988,-0.7988,-0.7988,-0.7988,-0.7988,-0.7988,-0.7988,-0.7988,-0.7988,-0.7988,-0.7988,-0.7988,0.0,0.0,0.0,0.0,0.0,0.0,0.0,0.0,0.0,0.0,0.0,0.0,0.0,0.0,0.0,0.0,0.0,0.0,0.0,0.0,0.0,0.0,0.0,0.0,0.0,0.0,0.0,0.0,0.0,0.0,0.0,0.0,0.0,0.0,0.0,0.0,0.0,0.0,0.0,0.0,0.0,0.0,0.0,0.0,0.0,0.0,0.0,0.0,0.0,0.0,0.0,0.0,0.0,0.0,0.0,0.0,0.0,0.0,0.0,0.0,0.0,0.0,0.0,0.0,0.0,0.0,0.0,0.0,-0.0303,-0.0605,-0.0605,-0.0907,-0.1661,-0.3565,-0.4016,-0.4116,-0.4518,-0.4568,-0.4718,-0.512,-0.5168,-0.5472,-0.6429,-0.6581,-0.6933,-0.7839,-0.7988,-0.7988,-0.7988,-0.7988,-0.7988,-0.7988,-0.7988,-0.7988,-0.7988,-0.7988,-0.7988,-0.7988,-0.7988,-0.7988,-0.7988,-0.7988,-0.7988,-0.7988,-0.7988,-0.7988,-0.7988,-0.7988,-0.7988,-0.7988,-0.7988,-0.7988,0.0,0.0,0.0,0.0,0.0,0.0,0.0,0.0,0.0,0.0,0.0,0.0,0.0,0.0,0.0,0.0,0.0,0.0,0.0,0.0,0.0,0.0,0.0,0.0,0.0,0.0,0.0,0.0,0.0,0.0,0.0,0.0,0.0,0.0,0.0,0.0,0.0,0.0,0.0,0.0,0.0,0.0,0.0,0.0,0.0,0.0,0.0,0.0,0.0,0.0,0.0,0.0,0.0,0.0,0.0,0.0,0.0,0.0,0.0,0.0,0.0,0.0,0.0,0.0,0.0,0.0,0.0,0.0,0.0,0.0,0.0,0.0,-0.0404,-0.2013,-0.2414,-0.2564,-0.3115,-0.3215,-0.3364,-0.3915,-0.4016,-0.4268,-0.5072,-0.5222,-0.5472,-0.6274,-0.688,-0.7185,-0.7185,-0.7686,-0.7988,-0.7988,-0.7988,-0.7988,-0.7988,-0.7988,-0.7988,-0.7988,-0.7988,-0.7988,-0.7988,-0.7988,-0.7988,-0.7988,-0.7988,-0.7988,-0.7988,-0.7988,-0.7988,-0.7988,-0.7988,-0.7988,0.0,0.0,0.0,0.0,0.0,0.0,0.0,0.0,0.0,0.0,0.0,0.0,0.0,0.0,0.0,0.0,0.0,0.0,0.0,0.0,0.0,0.0,0.0,0.0,0.0,0.0,0.0,0.0,0.0,0.0,0.0,0.0,0.0,0.0,0.0,0.0,0.0,0.0,0.0,0.0,0.0,0.0,0.0,0.0,0.0,0.0,0.0,0.0,0.0,0.0,0.0,0.0,0.0,0.0,0.0,0.0,0.0,0.0,0.0,0.0,0.0,0.0,0.0,0.0,0.0,0.0,0.0,0.0,0.0,0.0,0.0,0.0,0.0,0.0,0.0,-0.0353,-0.1561,-0.1812,-0.2163,-0.3416,-0.3615,-0.3665,-0.3815,-0.3815,-0.3865,-0.3966,-0.5022,-0.5827,-0.5827,-0.688,-0.7686,-0.7789,-0.7839,-0.7889,-0.7988,-0.7988,-0.7988,-0.7988,-0.7988,-0.7988,-0.7988,-0.7988,-0.7988,-0.7988,-0.7988,-0.7988,-0.7988,-0.7988,-0.7988,-0.7988,-0.7988,-0.7988,0.0133,0.0,0.0,0.0,0.0,0.0,0.0,0.0,0.0,0.0,0.0,0.0,0.0,0.0,0.0,0.0,0.0,0.0,0.0,0.0,0.0,0.0,0.0,0.0,0.0,0.0,0.0,0.0,0.0,0.0,0.0,0.0,0.0,0.0,0.0,0.0,0.0,0.0,0.0,0.0,0.0,0.0,0.0,0.0,0.0,0.0,0.0,0.0,0.0,0.0,0.0,0.0,0.0,0.0,0.0,0.0,0.0,0.0,0.0,0.0,0.0,0.0,0.0,0.0,0.0,0.0,0.0,0.0,0.0,0.0,0.0,0.0,0.0,0.0,0.0,-0.0101,-0.0353,-0.0454,-0.0504,-0.0807,-0.0857,-0.1209,-0.2264,-0.2414,-0.2765,-0.3865,-0.4268,-0.4418,-0.4418,-0.4668,-0.527,-0.6329,-0.6431,-0.6833,-0.7889,-0.7988,-0.7988,-0.7988,-0.7988,-0.7988,-0.7988,-0.7988,-0.7988,-0.7988,-0.7988,-0.7988,-0.7988,-0.7988,-0.7988,-0.7988,-0.7988,-0.7988,0.0098,0.0,0.0,0.0,0.0,0.0,0.0,0.0,0.0,0.0,0.0,0.0,0.0,0.0,0.0,0.0,0.0,0.0,0.0,0.0,0.0,0.0,0.0,0.0,0.0,0.0,0.0,0.0,0.0,0.0,0.0,0.0,0.0,0.0,0.0,0.0,0.0,0.0,0.0,0.0,0.0,0.0,0.0,0.0,0.0,0.0,0.0,0.0,0.0,0.0,0.0,0.0,0.0,0.0,0.0,0.0,0.0,0.0,0.0,0.0,0.0,0.0,0.0,0.0,0.0,0.0,0.0,0.0,0.0,0.0,0.0,0.0,0.0,0.0,0.0,0.0,0.0,0.0,0.0,0.0,0.0,-0.0202,-0.0907,-0.1058,-0.126,-0.1962,-0.2614,-0.3065,-0.3065,-0.3615,-0.4268,-0.497,-0.5627,-0.6279,-0.6983,-0.7637,-0.7988,-0.7988,-0.7988,-0.7988,-0.7988,-0.7988,-0.7988,-0.7988,-0.7988,-0.7988,-0.7988,-0.7988,-0.7988,-0.7988,-0.7988,-0.7988,0.0064,0.0,0.0,0.0,0.0,0.0,0.0,0.0,0.0,0.0,0.0,0.0,0.0,0.0,0.0,0.0,0.0,0.0,0.0,0.0,0.0,0.0,0.0,0.0,0.0,0.0,0.0,0.0,0.0,0.0,0.0,0.0,0.0,0.0,0.0,0.0,0.0,0.0,0.0,0.0,0.0,0.0,0.0,0.0,0.0,0.0,0.0,0.0,0.0,0.0,0.0,0.0,0.0,0.0,0.0,0.0,0.0,0.0,0.0,0.0,0.0,0.0,0.0,0.0,0.0,0.0,0.0,0.0,0.0,0.0,0.0,0.0,0.0,0.0,0.0,0.0,0.0,0.0,0.0,0.0,0.0,0.0,0.0,0.0,0.0,0.0,-0.0958,-0.1661,-0.1661,-0.2614,-0.3416,-0.3615,-0.467,-0.5425,-0.5627,-0.6681,-0.7385,-0.7637,-0.7637,-0.7736,-0.7988,-0.7988,-0.7988,-0.7988,-0.7988,-0.7988,-0.7988,-0.7988,-0.7988,-0.7988,-0.7988,-0.7988,0.0292,0.0,0.0,0.0,0.0,0.0,0.0,0.0,0.0,0.0,0.0,0.0,0.0,0.0,0.0,0.0,0.0,0.0,0.0,0.0,0.0,0.0,0.0,0.0,0.0,0.0,0.0,0.0,0.0,0.0,0.0,0.0,0.0,0.0,0.0,0.0,0.0,0.0,0.0,0.0,0.0,0.0,0.0,0.0,0.0,0.0,0.0,0.0,0.0,0.0,0.0,0.0,0.0,0.0,0.0,0.0,0.0,0.0,0.0,0.0,0.0,0.0,0.0,0.0,0.0,0.0,0.0,0.0,0.0,0.0,0.0,0.0,0.0,0.0,0.0,0.0,0.0,0.0,0.0,0.0,0.0,0.0,0.0,0.0,0.0,0.0,-0.0151,-0.0252,-0.0252,-0.0404,-0.0958,-0.2163,-0.2414,-0.3016,-0.4168,-0.4416,-0.502,-0.6179,-0.6279,-0.6783,-0.7939,-0.7988,-0.7988,-0.7988,-0.7988,-0.7988,-0.7988,-0.7988,-0.7988,-0.7988,-0.7988,-0.7988,0.0744,0.0242,0.0,0.0,0.0,0.0,0.0,0.0,0.0,0.0,0.0,0.0,0.0,0.0,0.0,0.0,0.0,0.0,0.0,0.0,0.0,0.0,0.0,0.0,0.0,0.0,0.0,0.0,0.0,0.0,0.0,0.0,0.0,0.0,0.0,0.0,0.0,0.0,0.0,0.0,0.0,0.0,0.0,0.0,0.0,0.0,0.0,0.0,0.0,0.0,0.0,0.0,0.0,0.0,0.0,0.0,0.0,0.0,0.0,0.0,0.0,0.0,0.0,0.0,0.0,0.0,0.0,0.0,0.0,0.0,0.0,0.0,0.0,0.0,0.0,0.0,0.0,0.0,0.0,0.0,0.0,0.0,0.0,0.0,0.0,0.0,0.0,0.0,0.0,0.0,-0.0202,-0.0807,-0.1561,-0.2264,-0.2815,-0.3565,-0.4268,-0.482,-0.487,-0.5472,-0.6833,-0.6883,-0.7235,-0.7988,-0.7988,-0.7988,-0.7988,-0.7988,-0.7988,-0.7988,-0.7988,-0.7988,0.0,0.0,0.0463,0.0279,0.0258,0.0227,0.0,0.0,0.0,0.0,0.0,0.0,0.0,0.0,0.0,0.0,0.0,0.0,0.0,0.0,0.0,0.0,0.0,0.0,0.0,0.0,0.0,0.0,0.0,0.0,0.0,0.0,0.0,0.0,0.0,0.0,0.0,0.0,0.0,0.0,0.0,0.0,0.0,0.0,0.0,0.0,0.0,0.0,0.0,0.0,0.0,0.0,0.0,0.0,0.0,0.0,0.0,0.0,0.0,0.0,0.0,0.0,0.0,0.0,0.0,0.0,0.0,0.0,0.0,0.0,0.0,0.0,0.0,0.0,0.0,0.0,0.0,0.0,0.0,0.0,0.0,0.0,0.0,0.0,0.0,0.0,0.0,0.0,0.0,0.0,0.0,0.0,-0.0907,-0.1511,-0.1511,-0.2413,-0.3115,-0.3465,-0.3515,-0.4117,-0.5425,-0.5475,-0.5977,-0.698,-0.698,-0.7332,-0.7988,-0.7988,-0.7988,-0.7988,-0.7988,-0.7988,0.0,0.1818,0.0,0.1035,0.0938,0.0,0.0,0.0,0.0,0.0,0.0,0.0,0.0,0.0,0.0,0.0,0.0,0.0,0.0,0.0,0.0,0.0,0.0,0.0,0.0,0.0,0.0,0.0,0.0,0.0,0.0,0.0,0.0,0.0,0.0,0.0,0.0,0.0,0.0,0.0,0.0,0.0,0.0,0.0,0.0,0.0,0.0,0.0,0.0,0.0,0.0,0.0,0.0,0.0,0.0,0.0,0.0,0.0,0.0,0.0,0.0,0.0,0.0,0.0,0.0,0.0,0.0,0.0,0.0,0.0,0.0,0.0,0.0,0.0,0.0,0.0,0.0,0.0,0.0,0.0,0.0,0.0,0.0,0.0,0.0,0.0,0.0,0.0,0.0,0.0,0.0,0.0,-0.005,-0.0101,-0.0101,-0.0151,-0.0756,-0.2013,-0.2113,-0.2715,-0.4066,-0.4116,-0.4116,-0.4216,-0.4216,-0.547,-0.7988,-0.7988,-0.7988,-0.7988,-0.7988,-0.7988,0.0,0.0,0.0,0.1661,0.1798,0.177,0.0,0.0,0.0,0.0,0.0,0.0,0.0,0.0,0.0,0.0,0.0,0.0,0.0,0.0,0.0,0.0,0.0,0.0,0.0,0.0,0.0,0.0,0.0,0.0,0.0,0.0,0.0404,0.126,0.0454,0.0404,0.126,0.126,0.126,0.126,0.0404,0.0,0.0,0.0,0.0,0.0,0.0,0.0,0.0,0.0,0.0,0.0,0.0,0.0,0.0,0.0,0.0,0.0,0.0,0.0,0.0,0.0,0.0,0.0,0.0,0.0,0.0,0.0,0.0,0.0,0.0,0.0,0.0,0.0,0.0,0.0,0.0,0.0,0.0,0.0,0.0,0.0,0.0,0.0,0.0,0.0,0.0,0.0,0.0,0.0,0.0,0.0,0.0,0.0,0.0,0.0,-0.0202,-0.0706,-0.0706,-0.131,-0.2665,-0.2715,-0.3115,-0.3966,-0.4016,-0.4918,-0.6731,-0.6731,-0.7182,-0.7988,-0.7988,-0.7988,0.2992,0.0,0.0,0.0,0.0,0.2509,0.0,0.0,0.0,0.0,0.0,0.0,0.0,0.0,0.0,0.0,0.0,0.0,0.0,0.0,0.0,0.0,0.0,0.0,0.0,0.0,0.0,0.0,0.0,0.0,0.131,0.136,0.1762,0.2665,0.1812,0.1762,0.2665,0.2665,0.2665,0.2665,0.1762,0.136,0.131,0.0857,0.0656,0.0656,0.0202,0.0,0.0,0.0,0.0,0.0,0.0,0.0,0.0,0.0,0.0,0.0,0.0,0.0,0.0,0.0,0.0,0.0,0.0,0.0,0.0,0.0,0.0,0.0,0.0,0.0,0.0,0.0,0.0,0.0,0.0,0.0,0.0,0.0,0.0,0.0,0.0,0.0,0.0,0.0,0.0,0.0,0.0,0.0,0.0,0.0,0.0,0.0,0.0,0.0,0.0,0.0,0.0,-0.0404,-0.131,-0.131,-0.1762,-0.2665,-0.2665,-0.3317,-0.4672,-0.5125,-0.5774,-0.6678,-0.7132,-0.7587,0.0,0.0,0.0,0.0,0.0,0.0,0.0,0.0,0.0,0.0,0.0,0.0,0.0,0.0,0.0,0.0,0.0,0.0,0.0,0.0,0.0,0.0,0.0,0.0,0.0,0.0,0.0,0.0,0.0,0.2612,0.3909,0.4009,0.4011,0.4012,0.4062,0.4114,0.4066,0.4066,0.4066,0.4066,0.4016,0.4016,0.3966,0.2665,0.2063,0.1963,0.0706,0.0101,0.0101,0.0051,0.0,0.0,0.0,0.0,0.0,0.0,0.0,0.0,0.0,0.0,0.0,0.0,0.0,0.0,0.0,0.0,0.0,0.0,0.0,0.0,0.0,0.0,0.0,0.0,0.0,0.0,0.0,0.0,0.0,0.0,0.0,0.0,0.0,0.0,0.0,0.0,0.0,0.0,0.0,0.0,0.0,0.0,0.0,0.0,0.0,0.0,0.0,0.0,0.0,0.0,0.0,0.0,0.0,0.0,0.0,-0.0656,-0.1963,-0.3265,-0.3966,-0.4016,-0.5322,-0.6631,0.3721,0.0,0.0,0.0,0.0,0.0,0.0,0.0,0.0,0.0,0.0,0.0,0.0,0.0,0.0,0.0,0.0,0.0,0.0,0.0,0.0,0.0,0.0,0.0,0.0,0.0,0.0,0.0,0.0,0.3427,0.3715,0.4624,0.4751,0.3888,0.5755,0.6336,0.5475,0.5425,0.5425,0.5425,0.4468,0.4016,0.3966,0.3615,0.3466,0.3416,0.3065,0.2914,0.2765,0.0807,0.0,0.0,0.0,0.0,0.0,0.0,0.0,0.0,0.0,0.0,0.0,0.0,0.0,0.0,0.0,0.0,0.0,0.0,0.0,0.0,0.0,0.0,0.0,0.0,0.0,0.0,0.0,0.0,0.0,0.0,0.0,0.0,0.0,0.0,0.0,0.0,0.0,0.0,0.0,0.0,0.0,0.0,0.0,0.0,0.0,0.0,0.0,0.0,0.0,0.0,0.0,0.0,0.0,0.0,0.0,-0.0202,-0.0555,-0.1913,-0.3065,-0.4016,-0.4368,-0.4768,0.3904,0.4038,0.419,0.0,0.0,0.0,0.0,0.0,0.0,0.0,0.0,0.0,0.0,0.0,0.0,0.0,0.0,0.0,0.0,0.0,0.0,0.0,0.0,0.0,0.0,0.0,0.0,0.0,0.4534,0.4753,0.5221,0.6023,0.6105,0.5403,0.69,0.7376,0.6675,0.6675,0.67,0.675,0.5953,0.5626,0.5672,0.507,0.482,0.482,0.4268,0.4016,0.3865,0.2314,0.136,0.0857,0.0857,0.0504,0.0151,0.126,0.0958,0.0101,0.0656,0.0454,0.0,0.0,0.0,0.0,0.0,0.0,0.0,0.0,0.0,0.0,0.0,0.0,0.0,0.0,0.0,0.0,0.0,0.0,0.0,0.0,0.0,0.0,0.0,0.0,0.0,0.0,0.0,0.0,0.0,0.0,0.0,0.0,0.0,0.0,0.0,0.0,0.0,0.0,0.0,0.0,0.0,0.0,0.0,0.0,0.0,0.0,0.0,-0.0807,-0.1862,-0.3165,-0.3165,-0.3465,0.4109,0.419,0.4338,0.447,0.0,0.0,0.4739,0.484,0.0,0.0,0.0,0.0,0.0,0.0,0.0,0.0,0.0,0.0,0.0,0.0,0.0,0.0,0.0,0.0,0.0,0.0,0.0,0.5714,0.5798,0.6263,0.75,0.755,0.7556,0.7573,0.7577,0.7584,0.76,0.76,0.7662,0.7787,0.7787,0.7868,0.7915,0.676,0.6218,0.6179,0.497,0.4468,0.4416,0.4266,0.3416,0.2213,0.2213,0.1511,0.0756,0.3115,0.2514,0.0605,0.1812,0.1461,0.0454,0.0454,0.0454,0.0454,0.0454,0.0454,0.0454,0.0454,0.0353,0.0202,0.0202,0.0101,0.0,0.0,0.0,0.0,0.0,0.0,0.0,0.0,0.0,0.0,0.0,0.0,0.0,0.0,0.0,0.0,0.0,0.0,0.0,0.0,0.0,0.0,0.0,0.0,0.0,0.0,0.0,0.0,0.0,0.0,0.0,0.0,0.0,0.0,0.0,0.0,-0.0605,-0.1762,-0.1762,-0.2414,0.4602,0.4726,0.4847,0.4573,0.0,0.0,0.0,0.4537,0.0,0.0,0.0,0.0,0.0,0.0,0.0,0.0,0.0,0.0,0.0,0.0,0.0,0.0,0.0,0.0,0.0,0.0,0.6762,0.704,0.6886,0.6911,0.7186,0.7186,0.7288,0.7411,0.746,0.7475,0.7597,0.76,0.7614,0.7641,0.7641,0.7716,0.7806,0.756,0.7527,0.7587,0.7332,0.7232,0.7132,0.6077,0.482,0.3615,0.3615,0.3466,0.3265,0.3815,0.3665,0.3265,0.3516,0.3416,0.3215,0.3215,0.3215,0.3215,0.3215,0.3215,0.3215,0.3215,0.2465,0.1611,0.1611,0.0807,0.0,0.0,0.0,0.0,0.0,0.0,0.0,0.0,0.0,0.0,0.0,0.0,0.0,0.0,0.0,0.0,0.0,0.0,0.0,0.0,0.0,0.0,0.0,0.0,0.0,0.0,0.0,0.0,0.0,0.0,0.0,0.0,0.0,0.0,0.0,0.0,-0.0151,-0.0404,-0.0404,-0.0555,0.4887,0.4911,0.4958,0.4833,0.0,0.0,0.0,0.0,0.0,0.0,0.0,0.0,0.0,0.0,0.0,0.0,0.0,0.0,0.0,0.0,0.0,0.0,0.0,0.0,0.0,0.0,0.718,0.7251,0.7139,0.7095,0.7095,0.7095,0.7132,0.7255,0.7255,0.7292,0.737,0.737,0.7411,0.7485,0.7485,0.7563,0.7709,0.778,0.7851,0.788,0.7958,0.7988,0.7939,0.7285,0.6578,0.5922,0.527,0.4568,0.4166,0.552,0.5168,0.4116,0.477,0.4568,0.4016,0.4016,0.4016,0.4016,0.4016,0.4016,0.4016,0.4016,0.3516,0.3015,0.3015,0.2514,0.1812,0.1159,0.1008,0.0807,0.0151,0.0,0.0,0.0,0.0,0.0,0.0,0.0,0.0,0.0,0.0,0.0,0.0,0.0,0.0,0.0,0.0,0.0,0.0,0.0,0.0,0.0,0.0,0.0,0.0,0.0,0.0,0.0,0.0,0.0,0.0,0.0,0.0,0.0,0.0,0.0,0.0,0.0,0.0,0.0,0.0,0.4928,0.0,0.0,0.0,0.4792,0.0,0.0,0.0,0.0,0.0,0.0,0.0,0.0,0.0,0.0,0.0,0.0,0.0,0.0,0.0,0.0,0.6871,0.7001,0.696,0.6964,0.7051,0.7055,0.7068,0.7095,0.7095,0.7095,0.7095,0.7095,0.7204,0.7326,0.7326,0.7407,0.756,0.7675,0.7743,0.778,0.788,0.7944,0.7948,0.7978,0.7988,0.7889,0.6833,0.5724,0.5018,0.7182,0.6625,0.4918,0.6027,0.5675,0.4768,0.4768,0.4768,0.4768,0.4768,0.4768,0.4768,0.4768,0.4568,0.4368,0.4368,0.4216,0.3715,0.2665,0.2363,0.2113,0.1008,0.0756,0.0756,0.0756,0.0756,0.0605,0.0101,0.0,0.0,0.0,0.0,0.0,0.0,0.0,0.0,0.0,0.0,0.0,0.0,0.0,0.0,0.0,0.0,0.0,0.0,0.0,0.0,0.0,0.0,0.0,0.0,0.0,0.0,0.0,0.0,0.0,0.0,0.0,0.0,0.0,0.5474,0.0,0.0,0.0,0.4799,0.459,0.0,0.0,0.0,0.0,0.0,0.0,0.0,0.0,0.0,0.0,0.0,0.0,0.0,0.0,0.0,0.0,0.0,0.6729,0.6508,0.6532,0.6889,0.691,0.6967,0.7092,0.7095,0.7095,0.7095,0.7095,0.7105,0.7122,0.7122,0.7248,0.7443,0.746,0.7495,0.7631,0.7777,0.7838,0.7848,0.7934,0.7988,0.7988,0.7839,0.7686,0.7584,0.7889,0.7786,0.7584,0.7736,0.7686,0.7534,0.7534,0.7534,0.7534,0.7534,0.7534,0.7534,0.7534,0.6681,0.5777,0.5777,0.487,0.3966,0.3815,0.3765,0.3715,0.3565,0.3566,0.3566,0.3566,0.3566,0.2815,0.0404,0.0,0.0,0.0,0.0,0.0,0.0,0.0,0.0,0.0,0.0,0.0,0.0,0.0,0.0,0.0,0.0,0.0,0.0,0.0,0.0,0.0,0.0,0.0,0.0,0.0,0.0,0.0,0.0,0.0,0.0,0.0,0.0,0.0,0.0,0.0,0.0,0.0,0.4667,0.0,0.0,0.0,0.0,0.0,0.0,0.0,0.0,0.0,0.0,0.0,0.0,0.0,0.0,0.0,0.0,0.0,0.0,0.0,0.0,0.6419,0.6651,0.6831,0.6913,0.697,0.7055,0.7095,0.7095,0.7095,0.7095,0.7095,0.7095,0.7129,0.7241,0.7329,0.7453,0.7475,0.7624,0.7736,0.7818,0.7879,0.7911,0.7988,0.7988,0.7988,0.7988,0.7988,0.7988,0.7988,0.7988,0.7988,0.7988,0.7988,0.7988,0.7988,0.7988,0.7988,0.7988,0.7988,0.7587,0.7182,0.7182,0.6728,0.6124,0.5322,0.5172,0.497,0.4166,0.4016,0.4016,0.4016,0.4016,0.3667,0.2514,0.1661,0.0907,0.0101,0.0,0.0,0.0,0.0,0.0,0.0,0.0,0.0,0.0,0.0,0.0,0.0,0.0,0.0,0.0,0.0,0.0,0.0,0.0,0.0,0.0,0.0,0.0,0.0,0.0,0.0,0.8015,0.0,0.0,0.0,0.0,0.0,0.0,0.0,0.0,0.0,0.0,0.0,0.0,0.0,0.0,0.0,0.0,0.0,0.0,0.0,0.0,0.0,0.0,0.0,0.0,0.0,0.0,0.0,0.0,0.0,0.6436,0.6661,0.6844,0.6883,0.7021,0.7095,0.7095,0.7095,0.7095,0.7095,0.7095,0.7095,0.7098,0.7258,0.7309,0.7316,0.7472,0.7597,0.7695,0.7777,0.7875,0.7931,0.7975,0.7988,0.7988,0.7988,0.7988,0.7988,0.7988,0.7988,0.7988,0.7988,0.7988,0.7988,0.7988,0.7988,0.7988,0.7988,0.7988,0.7988,0.7988,0.7988,0.7736,0.6781,0.6531,0.6279,0.532,0.5118,0.5118,0.5118,0.5118,0.4968,0.4618,0.3416,0.2113,0.0756,0.0555,0.0404,0.0051,0.0,0.0,0.0,0.0,0.0,0.0,0.0,0.0,0.0,0.0,0.0,0.0,0.0,0.0,0.0,0.0,0.0,0.0,0.0,0.0,0.0,0.0,0.0,0.0,0.0,0.0,0.8228,0.0,0.0,0.0,0.0,0.5887,0.0,0.0,0.0,0.0,0.0,0.4857,0.4707,0.0,0.0,0.0,0.0,0.0,0.0,0.0,0.0,0.0,0.0,0.0,0.0,0.0,0.0,0.6269,0.6446,0.6624,0.6876,0.7021,0.7095,0.7095,0.7095,0.7095,0.7095,0.7095,0.7095,0.7095,0.7102,0.7102,0.7112,0.7312,0.7429,0.7453,0.7692,0.7814,0.7834,0.7931,0.7988,0.7988,0.7988,0.7988,0.7988,0.7988,0.7988,0.7988,0.7988,0.7988,0.7988,0.7988,0.7988,0.7988,0.7988,0.7988,0.7988,0.7988,0.7988,0.7988,0.7939,0.7939,0.7939,0.7889,0.7889,0.7889,0.7889,0.7889,0.7434,0.6179,0.482,0.3465,0.2113,0.1913,0.146,0.0151,0.0,0.0,0.0,0.0,0.0,0.0,0.0,0.0,0.0,0.0,0.0,0.0,0.0,0.0,0.0,0.0,0.0,0.0,0.0,0.0,0.0,0.0,0.0,0.0,0.0,0.9994,0.9088,0.0,0.0,0.0,0.0,0.0,0.0,0.0,0.0,0.0,0.0,0.5721,0.557,0.5085,0.4568,0.0,0.0,0.0,0.0,0.0,0.0,0.0,0.0,0.0,0.0,0.0,0.0,0.0,0.6184,0.6463,0.662,0.6868,0.7001,0.7095,0.7095,0.7095,0.7095,0.7095,0.7095,0.7095,0.7095,0.7095,0.7098,0.7149,0.7278,0.7426,0.7478,0.7634,0.7818,0.7868,0.7901,0.7988,0.7988,0.7988,0.7988,0.7988,0.7988,0.7988,0.7988,0.7988,0.7988,0.7988,0.7988,0.7988,0.7988,0.7988,0.7988,0.7988,0.7988,0.7988,0.7988,0.7988,0.7988,0.7988,0.7988,0.7988,0.7988,0.7988,0.7839,0.7385,0.693,0.5872,0.3667,0.3316,0.3165,0.2715,0.1862,0.131,0.131,0.0504,0.0,0.0,0.0,0.0,0.0,0.0,0.0,0.0,0.0,0.0,0.0,0.0,0.0,0.0,0.0,0.0,0.0,0.0,0.0,1.2283,1.1886,0.0,0.0,1.0124,0.0,0.832,0.0,0.0,0.0,0.0,0.0,0.0,0.0,0.6643,0.6625,0.5968,0.5326,0.0,0.0,0.0,0.0,0.0,0.0,0.0,0.0,0.4619,0.4823,0.0,0.0,0.0,0.0,0.6286,0.6433,0.6742,0.693,0.7021,0.7071,0.7095,0.7095,0.7095,0.7095,0.7095,0.7095,0.7095,0.7095,0.7095,0.7152,0.7292,0.7395,0.7516,0.774,0.779,0.7906,0.7988,0.7988,0.7988,0.7988,0.7988,0.7988,0.7988,0.7988,0.7988,0.7988,0.7988,0.7988,0.7988,0.7988,0.7988,0.7988,0.7988,0.7988,0.7988,0.7988,0.7988,0.7988,0.7988,0.7988,0.7988,0.7988,0.7988,0.7988,0.7988,0.7988,0.7232,0.502,0.4718,0.4518,0.4066,0.3265,0.2715,0.2715,0.1963,0.1209,0.0756,0.0706,0.0504,0.0051,0.0,0.0,0.0,0.0,0.0,0.0,0.0,0.0,0.0,0.0,0.0,0.0,0.0,0.0]}]]